Wetterdaten: Samstag, 16.04.2016
Datum Zeit Temp. A. Feuchte A. Luftdruck Regen Wind Richtung Richtung Sonnenschein ET UV Solar Taupunkt Windchill Windben Empfang
16.04.2016 00:00 6,6 C 91 % 1008,6 hPa 0,0 l/m 0,0 km/h (0 Bft) NO 49 0 min 0,000 mm 0,0 UV-I 0 W/m 5,2 C 6,6 C 0,0 km/h (0 Bft) 100,00 %
16.04.2016 00:02 6,6 C 91 % 1008,6 hPa 0,0 l/m 0,0 km/h (0 Bft) NO 49 0 min 0,000 mm 0,0 UV-I 0 W/m 5,2 C 6,6 C 0,0 km/h (0 Bft) 92,11 %
16.04.2016 00:03 6,6 C 91 % 1008,6 hPa 0,0 l/m 0,9 km/h (0 Bft) NO 49 0 min 0,000 mm 0,0 UV-I 0 W/m 5,2 C 6,6 C 1,6 km/h (1 Bft) 100,00 %
16.04.2016 00:04 6,6 C 91 % 1008,6 hPa 0,0 l/m 0,0 km/h (0 Bft) NO 49 0 min 0,000 mm 0,0 UV-I 0 W/m 5,2 C 6,6 C 0,0 km/h (0 Bft) 100,00 %
16.04.2016 00:05 6,6 C 91 % 1008,6 hPa 0,0 l/m 0,0 km/h (0 Bft) NO 49 0 min 0,000 mm 0,0 UV-I 0 W/m 5,2 C 6,6 C 0,0 km/h (0 Bft) 100,00 %
16.04.2016 00:06 6,6 C 91 % 1008,6 hPa 0,0 l/m 0,0 km/h (0 Bft) NO 49 0 min 0,000 mm 0,0 UV-I 0 W/m 5,2 C 6,6 C 0,0 km/h (0 Bft) 100,00 %
16.04.2016 00:07 6,5 C 90 % 1008,6 hPa 0,0 l/m 0,0 km/h (0 Bft) NO 49 0 min 0,000 mm 0,0 UV-I 0 W/m 5,0 C 6,5 C 0,0 km/h (0 Bft) 100,00 %
16.04.2016 00:08 6,4 C 90 % 1008,6 hPa 0,0 l/m 0,0 km/h (0 Bft) NO 49 0 min 0,000 mm 0,0 UV-I 0 W/m 4,9 C 6,4 C 0,0 km/h (0 Bft) 100,00 %
16.04.2016 00:09 6,4 C 90 % 1008,6 hPa 0,0 l/m 0,5 km/h (0 Bft) NO 49 0 min 0,000 mm 0,0 UV-I 0 W/m 4,9 C 6,4 C 3,2 km/h (1 Bft) 100,00 %
16.04.2016 00:10 6,3 C 90 % 1008,6 hPa 0,0 l/m 0,3 km/h (0 Bft) NO 49 0 min 0,000 mm 0,0 UV-I 0 W/m 4,8 C 6,3 C 1,6 km/h (1 Bft) 100,00 %
16.04.2016 00:11 6,3 C 90 % 1008,5 hPa 0,0 l/m 0,0 km/h (0 Bft) NO 49 0 min 0,000 mm 0,0 UV-I 0 W/m 4,8 C 6,3 C 0,0 km/h (0 Bft) 100,00 %
16.04.2016 00:12 6,3 C 91 % 1008,5 hPa 0,0 l/m 0,0 km/h (0 Bft) NO 49 0 min 0,000 mm 0,0 UV-I 0 W/m 4,9 C 6,3 C 0,0 km/h (0 Bft) 100,00 %
16.04.2016 00:13 6,2 C 91 % 1008,6 hPa 0,0 l/m 0,1 km/h (0 Bft) NO 49 0 min 0,000 mm 0,0 UV-I 0 W/m 4,8 C 6,2 C 1,6 km/h (1 Bft) 100,00 %
16.04.2016 00:14 6,2 C 91 % 1008,6 hPa 0,0 l/m 1,3 km/h (1 Bft) NO 49 0 min 0,000 mm 0,0 UV-I 0 W/m 4,8 C 6,2 C 1,6 km/h (1 Bft) 100,00 %
16.04.2016 00:15 6,2 C 91 % 1008,6 hPa 0,0 l/m 0,7 km/h (0 Bft) NO 49 0 min 0,000 mm 0,0 UV-I 0 W/m 4,8 C 6,2 C 1,6 km/h (1 Bft) 100,00 %
16.04.2016 00:16 6,2 C 91 % 1008,7 hPa 0,0 l/m 0,0 km/h (0 Bft) NO 49 0 min 0,000 mm 0,0 UV-I 0 W/m 4,8 C 6,2 C 0,0 km/h (0 Bft) 100,00 %
16.04.2016 00:17 6,2 C 91 % 1008,7 hPa 0,0 l/m 0,0 km/h (0 Bft) NO 49 0 min 0,000 mm 0,0 UV-I 0 W/m 4,8 C 6,2 C 0,0 km/h (0 Bft) 100,00 %
16.04.2016 00:18 6,2 C 92 % 1008,7 hPa 0,0 l/m 1,2 km/h (1 Bft) NO 49 0 min 0,000 mm 0,0 UV-I 0 W/m 5,0 C 6,2 C 3,2 km/h (1 Bft) 92,86 %
16.04.2016 00:19 6,2 C 92 % 1008,7 hPa 0,0 l/m 0,6 km/h (0 Bft) NO 49 0 min 0,000 mm 0,0 UV-I 0 W/m 5,0 C 6,2 C 1,6 km/h (1 Bft) 100,00 %
16.04.2016 00:20 6,2 C 92 % 1008,7 hPa 0,0 l/m 0,0 km/h (0 Bft) NO 49 0 min 0,000 mm 0,0 UV-I 0 W/m 5,0 C 6,2 C 0,0 km/h (0 Bft) 100,00 %
16.04.2016 00:21 6,2 C 92 % 1008,7 hPa 0,0 l/m 0,0 km/h (0 Bft) NO 49 0 min 0,000 mm 0,0 UV-I 0 W/m 5,0 C 6,2 C 0,0 km/h (0 Bft) 95,83 %
16.04.2016 00:22 6,2 C 92 % 1008,7 hPa 0,0 l/m 0,4 km/h (0 Bft) NO 49 0 min 0,000 mm 0,0 UV-I 0 W/m 5,0 C 6,2 C 1,6 km/h (1 Bft) 100,00 %
16.04.2016 00:23 6,2 C 92 % 1008,7 hPa 0,0 l/m 1,0 km/h (0 Bft) NO 49 0 min 0,000 mm 0,0 UV-I 0 W/m 5,0 C 6,2 C 1,6 km/h (1 Bft) 100,00 %
16.04.2016 00:24 6,2 C 92 % 1008,8 hPa 0,0 l/m 0,4 km/h (0 Bft) NO 49 0 min 0,000 mm 0,0 UV-I 0 W/m 5,0 C 6,2 C 1,6 km/h (1 Bft) 100,00 %
16.04.2016 00:25 6,1 C 92 % 1008,8 hPa 0,0 l/m 0,1 km/h (0 Bft) NO 49 0 min 0,000 mm 0,0 UV-I 0 W/m 4,9 C 6,1 C 1,6 km/h (1 Bft) 100,00 %
16.04.2016 00:26 6,1 C 91 % 1008,7 hPa 0,0 l/m 0,1 km/h (0 Bft) NO 49 0 min 0,000 mm 0,0 UV-I 0 W/m 4,7 C 6,1 C 1,6 km/h (1 Bft) 95,83 %
16.04.2016 00:27 6,1 C 91 % 1008,8 hPa 0,0 l/m 0,9 km/h (0 Bft) NO 49 0 min 0,000 mm 0,0 UV-I 0 W/m 4,7 C 6,1 C 1,6 km/h (1 Bft) 95,65 %
16.04.2016 00:28 6,1 C 92 % 1008,8 hPa 0,0 l/m 1,9 km/h (1 Bft) NO 49 0 min 0,000 mm 0,0 UV-I 0 W/m 4,9 C 6,1 C 3,2 km/h (1 Bft) 100,00 %
16.04.2016 00:29 6,1 C 92 % 1008,7 hPa 0,0 l/m 2,5 km/h (1 Bft) NO 49 0 min 0,000 mm 0,0 UV-I 0 W/m 4,9 C 6,1 C 3,2 km/h (1 Bft) 95,65 %
16.04.2016 00:30 6,2 C 92 % 1008,7 hPa 0,0 l/m 1,6 km/h (1 Bft) NO 49 0 min 0,000 mm 0,0 UV-I 0 W/m 5,0 C 6,2 C 3,2 km/h (1 Bft) 100,00 %
16.04.2016 00:31 6,2 C 92 % 1008,7 hPa 0,0 l/m 0,1 km/h (0 Bft) NO 49 0 min 0,000 mm 0,0 UV-I 0 W/m 5,0 C 6,2 C 1,6 km/h (1 Bft) 100,00 %
16.04.2016 00:32 6,2 C 92 % 1008,7 hPa 0,0 l/m 0,2 km/h (0 Bft) NO 49 0 min 0,000 mm 0,0 UV-I 0 W/m 5,0 C 6,2 C 1,6 km/h (1 Bft) 100,00 %
16.04.2016 00:33 6,2 C 92 % 1008,6 hPa 0,0 l/m 0,3 km/h (0 Bft) NO 49 0 min 0,000 mm 0,0 UV-I 0 W/m 5,0 C 6,2 C 1,6 km/h (1 Bft) 100,00 %
16.04.2016 00:34 6,2 C 92 % 1008,6 hPa 0,0 l/m 3,2 km/h (1 Bft) NO 49 0 min 0,000 mm 0,0 UV-I 0 W/m 5,0 C 6,2 C 4,8 km/h (1 Bft) 100,00 %
16.04.2016 00:35 6,2 C 92 % 1008,6 hPa 0,0 l/m 4,0 km/h (1 Bft) NO 49 0 min 0,000 mm 0,0 UV-I 0 W/m 5,0 C 6,2 C 4,8 km/h (1 Bft) 100,00 %
16.04.2016 00:36 6,3 C 92 % 1008,6 hPa 0,0 l/m 3,0 km/h (1 Bft) NO 49 0 min 0,000 mm 0,0 UV-I 0 W/m 5,1 C 6,3 C 3,2 km/h (1 Bft) 100,00 %
16.04.2016 00:37 6,3 C 92 % 1008,6 hPa 0,0 l/m 0,7 km/h (0 Bft) NO 49 0 min 0,000 mm 0,0 UV-I 0 W/m 5,1 C 6,3 C 1,6 km/h (1 Bft) 100,00 %
16.04.2016 00:38 6,3 C 92 % 1008,6 hPa 0,0 l/m 2,5 km/h (1 Bft) W-NW 303 0 min 0,000 mm 0,0 UV-I 0 W/m 5,1 C 6,3 C 4,8 km/h (1 Bft) 100,00 %
16.04.2016 00:39 6,3 C 91 % 1008,7 hPa 0,0 l/m 1,2 km/h (1 Bft) W-NW 303 0 min 0,000 mm 0,0 UV-I 0 W/m 4,9 C 6,3 C 3,2 km/h (1 Bft) 100,00 %
16.04.2016 00:40 6,3 C 91 % 1008,6 hPa 0,0 l/m 0,2 km/h (0 Bft) W-NW 303 0 min 0,000 mm 0,0 UV-I 0 W/m 4,9 C 6,3 C 1,6 km/h (1 Bft) 100,00 %
16.04.2016 00:41 6,2 C 91 % 1008,6 hPa 0,0 l/m 0,0 km/h (0 Bft) W-NW 303 0 min 0,000 mm 0,0 UV-I 0 W/m 4,8 C 6,2 C 0,0 km/h (0 Bft) 100,00 %
16.04.2016 00:42 6,2 C 91 % 1008,5 hPa 0,0 l/m 2,2 km/h (1 Bft) NO 46 0 min 0,000 mm 0,0 UV-I 0 W/m 4,8 C 6,2 C 4,8 km/h (1 Bft) 100,00 %
16.04.2016 00:43 6,2 C 91 % 1008,5 hPa 0,0 l/m 3,9 km/h (1 Bft) NO 54 0 min 0,000 mm 0,0 UV-I 0 W/m 4,8 C 6,2 C 4,8 km/h (1 Bft) 100,00 %
16.04.2016 00:44 6,1 C 92 % 1008,4 hPa 0,0 l/m 4,6 km/h (1 Bft) O-NO 66 0 min 0,000 mm 0,0 UV-I 0 W/m 4,9 C 6,1 C 4,8 km/h (1 Bft) 100,00 %
16.04.2016 00:45 6,1 C 92 % 1008,4 hPa 0,0 l/m 4,7 km/h (1 Bft) O 80 0 min 0,000 mm 0,0 UV-I 0 W/m 4,9 C 6,1 C 4,8 km/h (1 Bft) 100,00 %
16.04.2016 00:46 6,1 C 91 % 1008,5 hPa 0,0 l/m 3,5 km/h (1 Bft) O 96 0 min 0,000 mm 0,0 UV-I 0 W/m 4,7 C 6,1 C 4,8 km/h (1 Bft) 100,00 %
16.04.2016 00:47 6,1 C 91 % 1008,5 hPa 0,0 l/m 1,3 km/h (1 Bft) SW 220 0 min 0,000 mm 0,0 UV-I 0 W/m 4,7 C 6,1 C 4,8 km/h (1 Bft) 100,00 %
16.04.2016 00:48 6,1 C 92 % 1008,5 hPa 0,0 l/m 3,1 km/h (1 Bft) W-SW 242 0 min 0,000 mm 0,0 UV-I 0 W/m 4,9 C 6,1 C 4,8 km/h (1 Bft) 96,15 %
16.04.2016 00:49 6,0 C 92 % 1008,7 hPa 0,0 l/m 0,1 km/h (0 Bft) W-SW 242 0 min 0,000 mm 0,0 UV-I 0 W/m 4,8 C 6,0 C 1,6 km/h (1 Bft) 100,00 %
16.04.2016 00:50 6,1 C 92 % 1008,7 hPa 0,0 l/m 0,0 km/h (0 Bft) W-SW 242 0 min 0,000 mm 0,0 UV-I 0 W/m 4,9 C 6,1 C 0,0 km/h (0 Bft) 100,00 %
16.04.2016 00:51 6,1 C 92 % 1008,7 hPa 0,0 l/m 0,0 km/h (0 Bft) W-SW 242 0 min 0,000 mm 0,0 UV-I 0 W/m 4,9 C 6,1 C 0,0 km/h (0 Bft) 100,00 %
16.04.2016 00:52 6,1 C 92 % 1008,7 hPa 0,0 l/m 1,1 km/h (1 Bft) W-SW 242 0 min 0,000 mm 0,0 UV-I 0 W/m 4,9 C 6,1 C 1,6 km/h (1 Bft) 100,00 %
16.04.2016 00:53 6,1 C 92 % 1008,7 hPa 0,0 l/m 1,2 km/h (1 Bft) W-SW 242 0 min 0,000 mm 0,0 UV-I 0 W/m 4,9 C 6,1 C 1,6 km/h (1 Bft) 100,00 %
16.04.2016 00:54 6,2 C 92 % 1008,7 hPa 0,0 l/m 1,0 km/h (0 Bft) W-SW 242 0 min 0,000 mm 0,0 UV-I 0 W/m 5,0 C 6,2 C 1,6 km/h (1 Bft) 95,65 %
16.04.2016 00:55 6,2 C 92 % 1008,7 hPa 0,0 l/m 0,1 km/h (0 Bft) W-SW 242 0 min 0,000 mm 0,0 UV-I 0 W/m 5,0 C 6,2 C 1,6 km/h (1 Bft) 100,00 %
16.04.2016 00:56 6,2 C 92 % 1008,7 hPa 0,0 l/m 0,1 km/h (0 Bft) W-SW 242 0 min 0,000 mm 0,0 UV-I 0 W/m 5,0 C 6,2 C 1,6 km/h (1 Bft) 100,00 %
16.04.2016 00:57 6,2 C 92 % 1008,7 hPa 0,0 l/m 0,0 km/h (0 Bft) W-SW 242 0 min 0,000 mm 0,0 UV-I 0 W/m 5,0 C 6,2 C 0,0 km/h (0 Bft) 100,00 %
16.04.2016 00:58 6,2 C 92 % 1008,7 hPa 0,0 l/m 1,1 km/h (1 Bft) W-SW 242 0 min 0,000 mm 0,0 UV-I 0 W/m 5,0 C 6,2 C 3,2 km/h (1 Bft) 100,00 %
16.04.2016 00:59 6,2 C 92 % 1008,7 hPa 0,0 l/m 2,1 km/h (1 Bft) W-SW 242 0 min 0,000 mm 0,0 UV-I 0 W/m 5,0 C 6,2 C 3,2 km/h (1 Bft) 100,00 %
16.04.2016 01:00 6,1 C 91 % 1008,7 hPa 0,0 l/m 1,3 km/h (1 Bft) W-SW 242 0 min 0,000 mm 0,0 UV-I 0 W/m 4,7 C 6,1 C 1,6 km/h (1 Bft) 95,65 %
16.04.2016 01:01 6,1 C 92 % 1008,7 hPa 0,0 l/m 0,1 km/h (0 Bft) W-SW 242 0 min 0,000 mm 0,0 UV-I 0 W/m 4,9 C 6,1 C 1,6 km/h (1 Bft) 100,00 %
16.04.2016 01:02 6,1 C 91 % 1008,7 hPa 0,0 l/m 0,0 km/h (0 Bft) W-SW 242 0 min 0,000 mm 0,0 UV-I 0 W/m 4,7 C 6,1 C 0,0 km/h (0 Bft) 95,65 %
16.04.2016 01:03 6,1 C 92 % 1008,7 hPa 0,0 l/m 0,0 km/h (0 Bft) W-SW 242 0 min 0,000 mm 0,0 UV-I 0 W/m 4,9 C 6,1 C 0,0 km/h (0 Bft) 100,00 %
16.04.2016 01:04 6,1 C 92 % 1008,7 hPa 0,0 l/m 0,5 km/h (0 Bft) W-SW 242 0 min 0,000 mm 0,0 UV-I 0 W/m 4,9 C 6,1 C 1,6 km/h (1 Bft) 100,00 %
16.04.2016 01:05 6,1 C 92 % 1008,6 hPa 0,0 l/m 1,4 km/h (1 Bft) W-SW 242 0 min 0,000 mm 0,0 UV-I 0 W/m 4,9 C 6,1 C 1,6 km/h (1 Bft) 100,00 %
16.04.2016 01:06 6,1 C 92 % 1008,6 hPa 0,0 l/m 0,7 km/h (0 Bft) W-SW 242 0 min 0,000 mm 0,0 UV-I 0 W/m 4,9 C 6,1 C 1,6 km/h (1 Bft) 100,00 %
16.04.2016 01:07 6,0 C 92 % 1008,5 hPa 0,0 l/m 1,9 km/h (1 Bft) W-SW 242 0 min 0,000 mm 0,0 UV-I 0 W/m 4,8 C 6,0 C 3,2 km/h (1 Bft) 100,00 %
16.04.2016 01:08 6,0 C 92 % 1008,5 hPa 0,0 l/m 1,7 km/h (1 Bft) W-SW 242 0 min 0,000 mm 0,0 UV-I 0 W/m 4,8 C 6,0 C 3,2 km/h (1 Bft) 100,00 %
16.04.2016 01:09 6,0 C 92 % 1008,5 hPa 0,0 l/m 0,6 km/h (0 Bft) W-SW 242 0 min 0,000 mm 0,0 UV-I 0 W/m 4,8 C 6,0 C 1,6 km/h (1 Bft) 100,00 %
16.04.2016 01:10 6,0 C 92 % 1008,4 hPa 0,0 l/m 2,1 km/h (1 Bft) W-SW 242 0 min 0,000 mm 0,0 UV-I 0 W/m 4,8 C 6,0 C 4,8 km/h (1 Bft) 100,00 %
16.04.2016 01:11 6,0 C 92 % 1008,4 hPa 0,0 l/m 7,2 km/h (2 Bft) O-NO 59 0 min 0,000 mm 0,0 UV-I 0 W/m 4,8 C 5,3 C 9,7 km/h (2 Bft) 100,00 %
16.04.2016 01:12 6,1 C 93 % 1008,4 hPa 0,0 l/m 9,7 km/h (2 Bft) O-NO 57 0 min 0,000 mm 0,0 UV-I 0 W/m 5,1 C 3,5 C 12,9 km/h (3 Bft) 91,67 %
16.04.2016 01:13 6,1 C 93 % 1008,4 hPa 0,0 l/m 8,5 km/h (2 Bft) O-NO 66 0 min 0,000 mm 0,0 UV-I 0 W/m 5,1 C 4,4 C 9,7 km/h (2 Bft) 100,00 %
16.04.2016 01:14 6,3 C 93 % 1008,4 hPa 0,0 l/m 5,7 km/h (1 Bft) O-NO 67 0 min 0,000 mm 0,0 UV-I 0 W/m 5,3 C 6,3 C 8,0 km/h (2 Bft) 100,00 %
16.04.2016 01:15 6,3 C 94 % 1008,5 hPa 0,0 l/m 3,9 km/h (1 Bft) W-SW 254 0 min 0,000 mm 0,0 UV-I 0 W/m 5,4 C 6,3 C 9,7 km/h (2 Bft) 100,00 %
16.04.2016 01:16 6,4 C 93 % 1008,5 hPa 0,0 l/m 8,5 km/h (2 Bft) W-SW 239 0 min 0,000 mm 0,0 UV-I 0 W/m 5,4 C 4,7 C 11,3 km/h (2 Bft) 100,00 %
16.04.2016 01:17 6,4 C 91 % 1008,5 hPa 0,0 l/m 2,8 km/h (1 Bft) W-SW 240 0 min 0,000 mm 0,0 UV-I 0 W/m 5,0 C 6,4 C 6,4 km/h (2 Bft) 100,00 %
16.04.2016 01:18 6,3 C 90 % 1008,4 hPa 0,0 l/m 0,9 km/h (0 Bft) W-SW 240 0 min 0,000 mm 0,0 UV-I 0 W/m 4,8 C 6,3 C 3,2 km/h (1 Bft) 100,00 %
16.04.2016 01:19 6,2 C 90 % 1008,4 hPa 0,0 l/m 4,3 km/h (1 Bft) NO 48 0 min 0,000 mm 0,0 UV-I 0 W/m 4,7 C 6,2 C 6,4 km/h (2 Bft) 100,00 %
16.04.2016 01:20 6,2 C 91 % 1008,4 hPa 0,0 l/m 5,2 km/h (1 Bft) NO 48 0 min 0,000 mm 0,0 UV-I 0 W/m 4,8 C 6,2 C 6,4 km/h (2 Bft) 100,00 %
16.04.2016 01:21 6,3 C 92 % 1008,5 hPa 0,0 l/m 4,8 km/h (1 Bft) NO 50 0 min 0,000 mm 0,0 UV-I 0 W/m 5,1 C 6,3 C 6,4 km/h (2 Bft) 100,00 %
16.04.2016 01:22 6,3 C 92 % 1008,5 hPa 0,0 l/m 3,5 km/h (1 Bft) O-NO 67 0 min 0,000 mm 0,0 UV-I 0 W/m 5,1 C 6,3 C 4,8 km/h (1 Bft) 100,00 %
16.04.2016 01:23 6,3 C 91 % 1008,5 hPa 0,0 l/m 2,8 km/h (1 Bft) O-NO 67 0 min 0,000 mm 0,0 UV-I 0 W/m 4,9 C 6,3 C 4,8 km/h (1 Bft) 100,00 %
16.04.2016 01:24 6,3 C 91 % 1008,5 hPa 0,0 l/m 2,7 km/h (1 Bft) O-NO 67 0 min 0,000 mm 0,0 UV-I 0 W/m 4,9 C 6,3 C 4,8 km/h (1 Bft) 100,00 %
16.04.2016 01:25 6,2 C 90 % 1008,6 hPa 0,0 l/m 3,1 km/h (1 Bft) O-NO 67 0 min 0,000 mm 0,0 UV-I 0 W/m 4,7 C 6,2 C 4,8 km/h (1 Bft) 100,00 %
16.04.2016 01:26 6,1 C 90 % 1008,6 hPa 0,0 l/m 0,1 km/h (0 Bft) O-NO 67 0 min 0,000 mm 0,0 UV-I 0 W/m 4,6 C 6,1 C 1,6 km/h (1 Bft) 100,00 %
16.04.2016 01:27 6,0 C 90 % 1008,6 hPa 0,0 l/m 0,0 km/h (0 Bft) O-NO 67 0 min 0,000 mm 0,0 UV-I 0 W/m 4,5 C 6,0 C 0,0 km/h (0 Bft) 100,00 %
16.04.2016 01:28 5,9 C 91 % 1008,6 hPa 0,0 l/m 0,0 km/h (0 Bft) O-NO 67 0 min 0,000 mm 0,0 UV-I 0 W/m 4,5 C 5,9 C 0,0 km/h (0 Bft) 100,00 %
16.04.2016 01:29 5,9 C 91 % 1008,6 hPa 0,0 l/m 1,1 km/h (1 Bft) O-NO 67 0 min 0,000 mm 0,0 UV-I 0 W/m 4,5 C 5,9 C 1,6 km/h (1 Bft) 95,83 %
16.04.2016 01:30 5,8 C 91 % 1008,6 hPa 0,0 l/m 1,5 km/h (1 Bft) O-NO 67 0 min 0,000 mm 0,0 UV-I 0 W/m 4,4 C 5,8 C 3,2 km/h (1 Bft) 95,65 %
16.04.2016 01:31 5,8 C 91 % 1008,5 hPa 0,0 l/m 0,8 km/h (0 Bft) O-NO 67 0 min 0,000 mm 0,0 UV-I 0 W/m 4,4 C 5,8 C 1,6 km/h (1 Bft) 96,30 %
16.04.2016 01:32 5,8 C 92 % 1008,6 hPa 0,0 l/m 3,6 km/h (1 Bft) NO 53 0 min 0,000 mm 0,0 UV-I 0 W/m 4,6 C 5,8 C 4,8 km/h (1 Bft) 100,00 %
16.04.2016 01:33 5,8 C 92 % 1008,6 hPa 0,0 l/m 2,9 km/h (1 Bft) NO 53 0 min 0,000 mm 0,0 UV-I 0 W/m 4,6 C 5,8 C 3,2 km/h (1 Bft) 96,30 %
16.04.2016 01:34 5,8 C 92 % 1008,6 hPa 0,0 l/m 1,7 km/h (1 Bft) NO 53 0 min 0,000 mm 0,0 UV-I 0 W/m 4,6 C 5,8 C 3,2 km/h (1 Bft) 95,65 %
16.04.2016 01:35 5,9 C 92 % 1008,7 hPa 0,0 l/m 2,5 km/h (1 Bft) NW 306 0 min 0,000 mm 0,0 UV-I 0 W/m 4,7 C 5,9 C 4,8 km/h (1 Bft) 100,00 %
16.04.2016 01:36 5,9 C 92 % 1008,7 hPa 0,0 l/m 3,2 km/h (1 Bft) NW 309 0 min 0,000 mm 0,0 UV-I 0 W/m 4,7 C 5,9 C 4,8 km/h (1 Bft) 95,65 %
16.04.2016 01:37 5,9 C 92 % 1008,7 hPa 0,0 l/m 1,9 km/h (1 Bft) NW 309 0 min 0,000 mm 0,0 UV-I 0 W/m 4,7 C 5,9 C 3,2 km/h (1 Bft) 100,00 %
16.04.2016 01:38 5,9 C 92 % 1008,7 hPa 0,0 l/m 0,9 km/h (0 Bft) NW 309 0 min 0,000 mm 0,0 UV-I 0 W/m 4,7 C 5,9 C 1,6 km/h (1 Bft) 95,65 %
16.04.2016 01:39 5,9 C 92 % 1008,6 hPa 0,0 l/m 0,1 km/h (0 Bft) NW 309 0 min 0,000 mm 0,0 UV-I 0 W/m 4,7 C 5,9 C 1,6 km/h (1 Bft) 100,00 %
16.04.2016 01:40 5,9 C 92 % 1008,4 hPa 0,0 l/m 0,0 km/h (0 Bft) NW 309 0 min 0,000 mm 0,0 UV-I 0 W/m 4,7 C 5,9 C 0,0 km/h (0 Bft) 94,12 %
16.04.2016 01:41 5,9 C 92 % 1008,4 hPa 0,0 l/m 0,9 km/h (0 Bft) NW 309 0 min 0,000 mm 0,0 UV-I 0 W/m 4,7 C 5,9 C 1,6 km/h (1 Bft) 100,00 %
16.04.2016 01:42 5,9 C 92 % 1008,4 hPa 0,0 l/m 1,4 km/h (1 Bft) NW 309 0 min 0,000 mm 0,0 UV-I 0 W/m 4,7 C 5,9 C 3,2 km/h (1 Bft) 96,15 %
16.04.2016 01:43 5,9 C 92 % 1008,4 hPa 0,0 l/m 0,7 km/h (0 Bft) NW 309 0 min 0,000 mm 0,0 UV-I 0 W/m 4,7 C 5,9 C 1,6 km/h (1 Bft) 95,83 %
16.04.2016 01:44 5,9 C 92 % 1008,4 hPa 0,0 l/m 0,4 km/h (0 Bft) NW 309 0 min 0,000 mm 0,0 UV-I 0 W/m 4,7 C 5,9 C 1,6 km/h (1 Bft) 100,00 %
16.04.2016 01:45 5,9 C 93 % 1008,4 hPa 0,0 l/m 2,1 km/h (1 Bft) NW 309 0 min 0,000 mm 0,0 UV-I 0 W/m 4,9 C 5,9 C 3,2 km/h (1 Bft) 95,83 %
16.04.2016 01:46 5,9 C 92 % 1008,4 hPa 0,0 l/m 0,8 km/h (0 Bft) NW 309 0 min 0,000 mm 0,0 UV-I 0 W/m 4,7 C 5,9 C 1,6 km/h (1 Bft) 100,00 %
16.04.2016 01:47 5,9 C 93 % 1008,4 hPa 0,0 l/m 0,0 km/h (0 Bft) NW 309 0 min 0,000 mm 0,0 UV-I 0 W/m 4,9 C 5,9 C 0,0 km/h (0 Bft) 95,83 %
16.04.2016 01:48 5,9 C 93 % 1008,4 hPa 0,0 l/m 0,0 km/h (0 Bft) NW 309 0 min 0,000 mm 0,0 UV-I 0 W/m 4,9 C 5,9 C 0,0 km/h (0 Bft) 100,00 %
16.04.2016 01:49 5,9 C 92 % 1008,4 hPa 0,0 l/m 0,0 km/h (0 Bft) NW 309 0 min 0,000 mm 0,0 UV-I 0 W/m 4,7 C 5,9 C 0,0 km/h (0 Bft) 96,30 %
16.04.2016 01:50 5,9 C 92 % 1008,3 hPa 0,0 l/m 0,1 km/h (0 Bft) NW 309 0 min 0,000 mm 0,0 UV-I 0 W/m 4,7 C 5,9 C 1,6 km/h (1 Bft) 100,00 %
16.04.2016 01:51 5,8 C 92 % 1008,4 hPa 0,0 l/m 0,0 km/h (0 Bft) NW 309 0 min 0,000 mm 0,0 UV-I 0 W/m 4,6 C 5,8 C 0,0 km/h (0 Bft) 95,65 %
16.04.2016 01:52 5,8 C 92 % 1008,3 hPa 0,0 l/m 0,0 km/h (0 Bft) NW 309 0 min 0,000 mm 0,0 UV-I 0 W/m 4,6 C 5,8 C 0,0 km/h (0 Bft) 100,00 %
16.04.2016 01:53 5,7 C 92 % 1008,3 hPa 0,0 l/m 0,0 km/h (0 Bft) NW 309 0 min 0,000 mm 0,0 UV-I 0 W/m 4,5 C 5,7 C 0,0 km/h (0 Bft) 95,65 %
16.04.2016 01:54 5,6 C 91 % 1008,3 hPa 0,0 l/m 0,0 km/h (0 Bft) NW 309 0 min 0,000 mm 0,0 UV-I 0 W/m 4,2 C 5,6 C 0,0 km/h (0 Bft) 96,30 %
16.04.2016 01:55 5,6 C 91 % 1008,3 hPa 0,0 l/m 0,0 km/h (0 Bft) NW 309 0 min 0,000 mm 0,0 UV-I 0 W/m 4,2 C 5,6 C 0,0 km/h (0 Bft) 100,00 %
16.04.2016 01:56 5,5 C 92 % 1008,3 hPa 0,0 l/m 0,0 km/h (0 Bft) NW 309 0 min 0,000 mm 0,0 UV-I 0 W/m 4,3 C 5,5 C 0,0 km/h (0 Bft) 91,67 %
16.04.2016 01:57 5,5 C 92 % 1008,3 hPa 0,0 l/m 0,1 km/h (0 Bft) NW 309 0 min 0,000 mm 0,0 UV-I 0 W/m 4,3 C 5,5 C 1,6 km/h (1 Bft) 100,00 %
16.04.2016 01:58 5,4 C 92 % 1008,3 hPa 0,0 l/m 0,9 km/h (0 Bft) NW 309 0 min 0,000 mm 0,0 UV-I 0 W/m 4,2 C 5,4 C 1,6 km/h (1 Bft) 95,83 %
16.04.2016 01:59 5,4 C 92 % 1008,3 hPa 0,0 l/m 2,0 km/h (1 Bft) NW 309 0 min 0,000 mm 0,0 UV-I 0 W/m 4,2 C 5,4 C 3,2 km/h (1 Bft) 95,65 %
16.04.2016 02:00 5,4 C 92 % 1008,2 hPa 0,0 l/m 2,5 km/h (1 Bft) NW 309 0 min 0,000 mm 0,0 UV-I 0 W/m 4,2 C 5,4 C 3,2 km/h (1 Bft) 100,00 %
16.04.2016 02:01 5,4 C 92 % 1008,2 hPa 0,0 l/m 2,1 km/h (1 Bft) NW 309 0 min 0,000 mm 0,0 UV-I 0 W/m 4,2 C 5,4 C 3,2 km/h (1 Bft) 92,59 %
16.04.2016 02:02 5,3 C 93 % 1008,2 hPa 0,0 l/m 0,1 km/h (0 Bft) NW 309 0 min 0,000 mm 0,0 UV-I 0 W/m 4,3 C 5,3 C 1,6 km/h (1 Bft) 100,00 %
16.04.2016 02:03 5,3 C 93 % 1008,2 hPa 0,0 l/m 0,1 km/h (0 Bft) NW 309 0 min 0,000 mm 0,0 UV-I 0 W/m 4,3 C 5,3 C 1,6 km/h (1 Bft) 95,83 %
16.04.2016 02:04 5,3 C 93 % 1008,2 hPa 0,0 l/m 0,3 km/h (0 Bft) NW 309 0 min 0,000 mm 0,0 UV-I 0 W/m 4,3 C 5,3 C 1,6 km/h (1 Bft) 100,00 %
16.04.2016 02:05 5,4 C 93 % 1008,2 hPa 0,0 l/m 0,0 km/h (0 Bft) NW 309 0 min 0,000 mm 0,0 UV-I 0 W/m 4,4 C 5,4 C 0,0 km/h (0 Bft) 95,83 %
16.04.2016 02:06 5,4 C 93 % 1008,1 hPa 0,0 l/m 0,0 km/h (0 Bft) NW 309 0 min 0,000 mm 0,0 UV-I 0 W/m 4,4 C 5,4 C 0,0 km/h (0 Bft) 100,00 %
16.04.2016 02:07 5,4 C 93 % 1008,1 hPa 0,0 l/m 0,0 km/h (0 Bft) NW 309 0 min 0,000 mm 0,0 UV-I 0 W/m 4,4 C 5,4 C 0,0 km/h (0 Bft) 96,30 %
16.04.2016 02:08 5,4 C 93 % 1008,1 hPa 0,0 l/m 0,0 km/h (0 Bft) NW 309 0 min 0,000 mm 0,0 UV-I 0 W/m 4,4 C 5,4 C 0,0 km/h (0 Bft) 100,00 %
16.04.2016 02:09 5,4 C 94 % 1008,1 hPa 0,0 l/m 0,0 km/h (0 Bft) NW 309 0 min 0,000 mm 0,0 UV-I 0 W/m 4,5 C 5,4 C 0,0 km/h (0 Bft) 100,00 %
16.04.2016 02:10 5,4 C 94 % 1008,1 hPa 0,0 l/m 0,0 km/h (0 Bft) NW 309 0 min 0,000 mm 0,0 UV-I 0 W/m 4,5 C 5,4 C 0,0 km/h (0 Bft) 100,00 %
16.04.2016 02:11 5,5 C 94 % 1008,1 hPa 0,0 l/m 0,0 km/h (0 Bft) NW 309 0 min 0,000 mm 0,0 UV-I 0 W/m 4,6 C 5,5 C 0,0 km/h (0 Bft) 96,30 %
16.04.2016 02:12 5,5 C 93 % 1008,1 hPa 0,0 l/m 0,5 km/h (0 Bft) NW 309 0 min 0,000 mm 0,0 UV-I 0 W/m 4,5 C 5,5 C 1,6 km/h (1 Bft) 100,00 %
16.04.2016 02:13 5,4 C 93 % 1008,1 hPa 0,0 l/m 2,7 km/h (1 Bft) NW 309 0 min 0,000 mm 0,0 UV-I 0 W/m 4,4 C 5,4 C 3,2 km/h (1 Bft) 100,00 %
16.04.2016 02:14 5,4 C 93 % 1008,2 hPa 0,0 l/m 1,8 km/h (1 Bft) NW 309 0 min 0,000 mm 0,0 UV-I 0 W/m 4,4 C 5,4 C 3,2 km/h (1 Bft) 98,71 %
16.04.2016 02:15 5,4 C 93 % 1008,2 hPa 0,0 l/m 0,9 km/h (0 Bft) NW 309 0 min 0,000 mm 0,0 UV-I 0 W/m 4,4 C 5,4 C 1,6 km/h (1 Bft) 100,00 %
16.04.2016 02:16 5,4 C 93 % 1008,2 hPa 0,0 l/m 0,5 km/h (0 Bft) NW 309 0 min 0,000 mm 0,0 UV-I 0 W/m 4,4 C 5,4 C 1,6 km/h (1 Bft) 96,15 %
16.04.2016 02:17 5,3 C 93 % 1008,2 hPa 0,0 l/m 0,0 km/h (0 Bft) NW 309 0 min 0,000 mm 0,0 UV-I 0 W/m 4,3 C 5,3 C 0,0 km/h (0 Bft) 100,00 %
16.04.2016 02:18 5,3 C 93 % 1008,3 hPa 0,0 l/m 0,0 km/h (0 Bft) NW 309 0 min 0,000 mm 0,0 UV-I 0 W/m 4,3 C 5,3 C 0,0 km/h (0 Bft) 100,00 %
16.04.2016 02:19 5,3 C 93 % 1008,3 hPa 0,0 l/m 0,6 km/h (0 Bft) NW 309 0 min 0,000 mm 0,0 UV-I 0 W/m 4,3 C 5,3 C 3,2 km/h (1 Bft) 100,00 %
16.04.2016 02:20 5,3 C 94 % 1008,3 hPa 0,0 l/m 3,0 km/h (1 Bft) NW 309 0 min 0,000 mm 0,0 UV-I 0 W/m 4,4 C 5,3 C 4,8 km/h (1 Bft) 95,65 %
16.04.2016 02:21 5,3 C 93 % 1008,3 hPa 0,0 l/m 2,9 km/h (1 Bft) W-NW 296 0 min 0,000 mm 0,0 UV-I 0 W/m 4,3 C 5,3 C 4,8 km/h (1 Bft) 100,00 %
16.04.2016 02:22 5,3 C 93 % 1008,4 hPa 0,0 l/m 2,4 km/h (1 Bft) W-NW 296 0 min 0,000 mm 0,0 UV-I 0 W/m 4,3 C 5,3 C 3,2 km/h (1 Bft) 100,00 %
16.04.2016 02:23 5,3 C 94 % 1008,4 hPa 0,0 l/m 2,0 km/h (1 Bft) W-NW 296 0 min 0,000 mm 0,0 UV-I 0 W/m 4,4 C 5,3 C 3,2 km/h (1 Bft) 100,00 %
16.04.2016 02:24 5,3 C 94 % 1008,3 hPa 0,0 l/m 2,2 km/h (1 Bft) W-NW 296 0 min 0,000 mm 0,0 UV-I 0 W/m 4,4 C 5,3 C 3,2 km/h (1 Bft) 100,00 %
16.04.2016 02:25 5,3 C 94 % 1008,3 hPa 0,0 l/m 3,8 km/h (1 Bft) W-SW 257 0 min 0,000 mm 0,0 UV-I 0 W/m 4,4 C 5,3 C 4,8 km/h (1 Bft) 100,00 %
16.04.2016 02:26 5,2 C 94 % 1008,4 hPa 0,0 l/m 4,2 km/h (1 Bft) W-SW 257 0 min 0,000 mm 0,0 UV-I 0 W/m 4,3 C 5,2 C 4,8 km/h (1 Bft) 100,00 %
16.04.2016 02:27 5,2 C 93 % 1008,4 hPa 0,0 l/m 3,5 km/h (1 Bft) W-SW 257 0 min 0,000 mm 0,0 UV-I 0 W/m 4,2 C 5,2 C 4,8 km/h (1 Bft) 100,00 %
16.04.2016 02:28 5,2 C 93 % 1008,3 hPa 0,0 l/m 3,1 km/h (1 Bft) W-SW 257 0 min 0,000 mm 0,0 UV-I 0 W/m 4,2 C 5,2 C 4,8 km/h (1 Bft) 100,00 %
16.04.2016 02:29 5,1 C 93 % 1008,3 hPa 0,0 l/m 2,5 km/h (1 Bft) W-SW 254 0 min 0,000 mm 0,0 UV-I 0 W/m 4,1 C 5,1 C 3,2 km/h (1 Bft) 100,00 %
16.04.2016 02:30 5,1 C 93 % 1008,3 hPa 0,0 l/m 1,3 km/h (1 Bft) W-SW 254 0 min 0,000 mm 0,0 UV-I 0 W/m 4,1 C 5,1 C 1,6 km/h (1 Bft) 100,00 %
16.04.2016 02:31 5,1 C 94 % 1008,3 hPa 0,0 l/m 0,8 km/h (0 Bft) W-SW 237 0 min 0,000 mm 0,0 UV-I 0 W/m 4,2 C 5,1 C 1,6 km/h (1 Bft) 100,00 %
16.04.2016 02:32 5,1 C 94 % 1008,3 hPa 0,0 l/m 1,2 km/h (1 Bft) W-SW 237 0 min 0,000 mm 0,0 UV-I 0 W/m 4,2 C 5,1 C 1,6 km/h (1 Bft) 100,00 %
16.04.2016 02:33 5,0 C 93 % 1008,3 hPa 0,0 l/m 1,0 km/h (0 Bft) W-SW 237 0 min 0,000 mm 0,0 UV-I 0 W/m 4,0 C 5,0 C 1,6 km/h (1 Bft) 100,00 %
16.04.2016 02:34 4,9 C 93 % 1008,3 hPa 0,0 l/m 2,2 km/h (1 Bft) W-SW 237 0 min 0,000 mm 0,0 UV-I 0 W/m 3,9 C 4,9 C 3,2 km/h (1 Bft) 100,00 %
16.04.2016 02:35 4,9 C 93 % 1008,3 hPa 0,0 l/m 2,4 km/h (1 Bft) W-SW 237 0 min 0,000 mm 0,0 UV-I 0 W/m 3,9 C 4,9 C 3,2 km/h (1 Bft) 100,00 %
16.04.2016 02:36 4,9 C 93 % 1008,3 hPa 0,0 l/m 1,6 km/h (1 Bft) W-SW 237 0 min 0,000 mm 0,0 UV-I 0 W/m 3,9 C 4,9 C 1,6 km/h (1 Bft) 100,00 %
16.04.2016 02:37 4,9 C 94 % 1008,3 hPa 0,0 l/m 2,6 km/h (1 Bft) W-SW 237 0 min 0,000 mm 0,0 UV-I 0 W/m 4,0 C 4,9 C 3,2 km/h (1 Bft) 96,55 %
16.04.2016 02:38 4,9 C 94 % 1008,3 hPa 0,0 l/m 3,8 km/h (1 Bft) SW 225 0 min 0,000 mm 0,0 UV-I 0 W/m 4,0 C 4,9 C 4,8 km/h (1 Bft) 100,00 %
16.04.2016 02:39 5,0 C 95 % 1008,3 hPa 0,0 l/m 3,0 km/h (1 Bft) SW 220 0 min 0,000 mm 0,0 UV-I 0 W/m 4,3 C 5,0 C 3,2 km/h (1 Bft) 100,00 %
16.04.2016 02:40 5,1 C 95 % 1008,3 hPa 0,0 l/m 0,8 km/h (0 Bft) SW 220 0 min 0,000 mm 0,0 UV-I 0 W/m 4,4 C 5,1 C 1,6 km/h (1 Bft) 100,00 %
16.04.2016 02:41 5,2 C 95 % 1008,2 hPa 0,0 l/m 1,9 km/h (1 Bft) SW 220 0 min 0,000 mm 0,0 UV-I 0 W/m 4,5 C 5,2 C 3,2 km/h (1 Bft) 100,00 %
16.04.2016 02:42 5,2 C 95 % 1008,2 hPa 0,0 l/m 1,9 km/h (1 Bft) SW 220 0 min 0,000 mm 0,0 UV-I 0 W/m 4,5 C 5,2 C 3,2 km/h (1 Bft) 100,00 %
16.04.2016 02:43 5,2 C 94 % 1008,2 hPa 0,0 l/m 2,3 km/h (1 Bft) SW 220 0 min 0,000 mm 0,0 UV-I 0 W/m 4,3 C 5,2 C 4,8 km/h (1 Bft) 100,00 %
16.04.2016 02:44 5,2 C 94 % 1008,0 hPa 0,0 l/m 4,6 km/h (1 Bft) SW 214 0 min 0,000 mm 0,0 UV-I 0 W/m 4,3 C 5,2 C 4,8 km/h (1 Bft) 100,00 %
16.04.2016 02:45 5,2 C 94 % 1007,9 hPa 0,0 l/m 5,8 km/h (2 Bft) S-SO 150 0 min 0,000 mm 0,0 UV-I 0 W/m 4,3 C 5,2 C 6,4 km/h (2 Bft) 100,00 %
16.04.2016 02:46 5,2 C 94 % 1007,8 hPa 0,0 l/m 5,2 km/h (1 Bft) SO 125 0 min 0,000 mm 0,0 UV-I 0 W/m 4,3 C 5,2 C 6,4 km/h (2 Bft) 100,00 %
16.04.2016 02:47 5,2 C 94 % 1007,8 hPa 0,0 l/m 5,1 km/h (1 Bft) O-SO 121 0 min 0,000 mm 0,0 UV-I 0 W/m 4,3 C 5,2 C 6,4 km/h (2 Bft) 100,00 %
16.04.2016 02:48 5,2 C 94 % 1007,8 hPa 0,0 l/m 4,6 km/h (1 Bft) O-SO 121 0 min 0,000 mm 0,0 UV-I 0 W/m 4,3 C 5,2 C 4,8 km/h (1 Bft) 100,00 %
16.04.2016 02:49 5,2 C 94 % 1007,8 hPa 0,0 l/m 3,0 km/h (1 Bft) O-SO 121 0 min 0,000 mm 0,0 UV-I 0 W/m 4,3 C 5,2 C 4,8 km/h (1 Bft) 100,00 %
16.04.2016 02:50 5,3 C 95 % 1007,8 hPa 0,0 l/m 1,1 km/h (1 Bft) O-SO 121 0 min 0,000 mm 0,0 UV-I 0 W/m 4,6 C 5,3 C 3,2 km/h (1 Bft) 100,00 %
16.04.2016 02:51 5,3 C 95 % 1007,9 hPa 0,0 l/m 0,1 km/h (0 Bft) O-SO 121 0 min 0,000 mm 0,0 UV-I 0 W/m 4,6 C 5,3 C 1,6 km/h (1 Bft) 100,00 %
16.04.2016 02:52 5,3 C 95 % 1007,9 hPa 0,0 l/m 0,0 km/h (0 Bft) O-SO 121 0 min 0,000 mm 0,0 UV-I 0 W/m 4,6 C 5,3 C 0,0 km/h (0 Bft) 100,00 %
16.04.2016 02:53 5,4 C 95 % 1007,9 hPa 0,0 l/m 0,0 km/h (0 Bft) O-SO 121 0 min 0,000 mm 0,0 UV-I 0 W/m 4,7 C 5,4 C 0,0 km/h (0 Bft) 100,00 %
16.04.2016 02:54 5,4 C 95 % 1007,9 hPa 0,0 l/m 0,0 km/h (0 Bft) O-SO 121 0 min 0,000 mm 0,0 UV-I 0 W/m 4,7 C 5,4 C 0,0 km/h (0 Bft) 100,00 %
16.04.2016 02:55 5,5 C 95 % 1007,9 hPa 0,0 l/m 0,0 km/h (0 Bft) O-SO 121 0 min 0,000 mm 0,0 UV-I 0 W/m 4,8 C 5,5 C 0,0 km/h (0 Bft) 100,00 %
16.04.2016 02:56 5,6 C 95 % 1007,8 hPa 0,0 l/m 0,0 km/h (0 Bft) O-SO 121 0 min 0,000 mm 0,0 UV-I 0 W/m 4,9 C 5,6 C 0,0 km/h (0 Bft) 100,00 %
16.04.2016 02:57 5,6 C 95 % 1007,8 hPa 0,0 l/m 0,0 km/h (0 Bft) O-SO 121 0 min 0,000 mm 0,0 UV-I 0 W/m 4,9 C 5,6 C 0,0 km/h (0 Bft) 100,00 %
16.04.2016 02:58 5,6 C 95 % 1007,8 hPa 0,0 l/m 0,0 km/h (0 Bft) O-SO 121 0 min 0,000 mm 0,0 UV-I 0 W/m 4,9 C 5,6 C 0,0 km/h (0 Bft) 100,00 %
16.04.2016 02:59 5,6 C 95 % 1007,9 hPa 0,0 l/m 0,4 km/h (0 Bft) O-SO 121 0 min 0,000 mm 0,0 UV-I 0 W/m 4,9 C 5,6 C 1,6 km/h (1 Bft) 100,00 %
16.04.2016 03:00 5,6 C 95 % 1008,0 hPa 0,0 l/m 4,0 km/h (1 Bft) W-SW 250 0 min 0,000 mm 0,0 UV-I 0 W/m 4,9 C 5,6 C 6,4 km/h (2 Bft) 100,00 %
16.04.2016 03:01 5,6 C 94 % 1008,1 hPa 0,0 l/m 4,4 km/h (1 Bft) W 261 0 min 0,000 mm 0,0 UV-I 0 W/m 4,7 C 5,6 C 4,8 km/h (1 Bft) 100,00 %
16.04.2016 03:02 5,5 C 94 % 1008,2 hPa 0,0 l/m 2,5 km/h (1 Bft) W 261 0 min 0,000 mm 0,0 UV-I 0 W/m 4,6 C 5,5 C 3,2 km/h (1 Bft) 100,00 %
16.04.2016 03:03 5,4 C 93 % 1008,2 hPa 0,0 l/m 1,9 km/h (1 Bft) W 261 0 min 0,000 mm 0,0 UV-I 0 W/m 4,4 C 5,4 C 3,2 km/h (1 Bft) 100,00 %
16.04.2016 03:04 5,3 C 93 % 1008,2 hPa 0,0 l/m 1,0 km/h (0 Bft) W 261 0 min 0,000 mm 0,0 UV-I 0 W/m 4,3 C 5,3 C 1,6 km/h (1 Bft) 100,00 %
16.04.2016 03:05 5,3 C 94 % 1008,2 hPa 0,0 l/m 1,2 km/h (1 Bft) W 261 0 min 0,000 mm 0,0 UV-I 0 W/m 4,4 C 5,3 C 1,6 km/h (1 Bft) 100,00 %
16.04.2016 03:06 5,3 C 94 % 1008,2 hPa 0,0 l/m 1,2 km/h (1 Bft) W 261 0 min 0,000 mm 0,0 UV-I 0 W/m 4,4 C 5,3 C 1,6 km/h (1 Bft) 93,33 %
16.04.2016 03:07 5,3 C 94 % 1008,1 hPa 0,0 l/m 2,0 km/h (1 Bft) W 261 0 min 0,000 mm 0,0 UV-I 0 W/m 4,4 C 5,3 C 3,2 km/h (1 Bft) 100,00 %
16.04.2016 03:08 5,2 C 94 % 1008,3 hPa 0,0 l/m 3,1 km/h (1 Bft) SW 235 0 min 0,000 mm 0,0 UV-I 0 W/m 4,3 C 5,2 C 4,8 km/h (1 Bft) 100,00 %
16.04.2016 03:09 5,2 C 94 % 1008,3 hPa 0,0 l/m 4,0 km/h (1 Bft) SW 235 0 min 0,000 mm 0,0 UV-I 0 W/m 4,3 C 5,2 C 4,8 km/h (1 Bft) 100,00 %
16.04.2016 03:10 5,2 C 93 % 1008,4 hPa 0,0 l/m 3,7 km/h (1 Bft) SW 235 0 min 0,000 mm 0,0 UV-I 0 W/m 4,2 C 5,2 C 4,8 km/h (1 Bft) 100,00 %
16.04.2016 03:11 5,1 C 93 % 1008,4 hPa 0,0 l/m 3,7 km/h (1 Bft) SW 235 0 min 0,000 mm 0,0 UV-I 0 W/m 4,1 C 5,1 C 4,8 km/h (1 Bft) 100,00 %
16.04.2016 03:12 5,1 C 93 % 1008,3 hPa 0,0 l/m 3,8 km/h (1 Bft) SW 235 0 min 0,000 mm 0,0 UV-I 0 W/m 4,1 C 5,1 C 4,8 km/h (1 Bft) 95,83 %
16.04.2016 03:13 5,0 C 94 % 1008,3 hPa 0,0 l/m 2,4 km/h (1 Bft) SW 235 0 min 0,000 mm 0,0 UV-I 0 W/m 4,1 C 5,0 C 3,2 km/h (1 Bft) 100,00 %
16.04.2016 03:14 5,0 C 94 % 1008,2 hPa 0,0 l/m 0,9 km/h (0 Bft) SW 235 0 min 0,000 mm 0,0 UV-I 0 W/m 4,1 C 5,0 C 3,2 km/h (1 Bft) 100,00 %
16.04.2016 03:15 5,0 C 94 % 1008,2 hPa 0,0 l/m 0,7 km/h (0 Bft) SW 235 0 min 0,000 mm 0,0 UV-I 0 W/m 4,1 C 5,0 C 1,6 km/h (1 Bft) 100,00 %
16.04.2016 03:16 5,0 C 94 % 1008,1 hPa 0,0 l/m 1,3 km/h (1 Bft) SW 235 0 min 0,000 mm 0,0 UV-I 0 W/m 4,1 C 5,0 C 3,2 km/h (1 Bft) 100,00 %
16.04.2016 03:17 5,0 C 94 % 1008,1 hPa 0,0 l/m 1,2 km/h (1 Bft) SW 235 0 min 0,000 mm 0,0 UV-I 0 W/m 4,1 C 5,0 C 1,6 km/h (1 Bft) 100,00 %
16.04.2016 03:18 4,9 C 94 % 1008,2 hPa 0,0 l/m 1,0 km/h (0 Bft) SW 235 0 min 0,000 mm 0,0 UV-I 0 W/m 4,0 C 4,9 C 1,6 km/h (1 Bft) 100,00 %
16.04.2016 03:19 4,9 C 94 % 1008,2 hPa 0,0 l/m 1,4 km/h (1 Bft) SW 235 0 min 0,000 mm 0,0 UV-I 0 W/m 4,0 C 4,9 C 1,6 km/h (1 Bft) 100,00 %
16.04.2016 03:20 4,9 C 94 % 1008,1 hPa 0,0 l/m 1,1 km/h (1 Bft) SW 235 0 min 0,000 mm 0,0 UV-I 0 W/m 4,0 C 4,9 C 1,6 km/h (1 Bft) 100,00 %
16.04.2016 03:21 5,0 C 94 % 1008,1 hPa 0,0 l/m 0,6 km/h (0 Bft) SW 234 0 min 0,000 mm 0,0 UV-I 0 W/m 4,1 C 5,0 C 1,6 km/h (1 Bft) 100,00 %
16.04.2016 03:22 5,1 C 95 % 1008,1 hPa 0,0 l/m 1,0 km/h (0 Bft) SW 231 0 min 0,000 mm 0,0 UV-I 0 W/m 4,4 C 5,1 C 3,2 km/h (1 Bft) 100,00 %
16.04.2016 03:23 5,1 C 95 % 1008,0 hPa 0,0 l/m 1,4 km/h (1 Bft) SW 217 0 min 0,000 mm 0,0 UV-I 0 W/m 4,4 C 5,1 C 3,2 km/h (1 Bft) 100,00 %
16.04.2016 03:24 5,1 C 95 % 1007,9 hPa 0,0 l/m 1,7 km/h (1 Bft) SW 215 0 min 0,000 mm 0,0 UV-I 0 W/m 4,4 C 5,1 C 3,2 km/h (1 Bft) 100,00 %
16.04.2016 03:25 5,1 C 94 % 1007,9 hPa 0,0 l/m 1,4 km/h (1 Bft) SW 215 0 min 0,000 mm 0,0 UV-I 0 W/m 4,2 C 5,1 C 1,6 km/h (1 Bft) 100,00 %
16.04.2016 03:26 5,1 C 94 % 1007,9 hPa 0,0 l/m 2,1 km/h (1 Bft) SW 215 0 min 0,000 mm 0,0 UV-I 0 W/m 4,2 C 5,1 C 3,2 km/h (1 Bft) 100,00 %
16.04.2016 03:27 5,1 C 94 % 1007,9 hPa 0,0 l/m 1,0 km/h (0 Bft) SW 215 0 min 0,000 mm 0,0 UV-I 0 W/m 4,2 C 5,1 C 1,6 km/h (1 Bft) 100,00 %
16.04.2016 03:28 5,1 C 95 % 1007,9 hPa 0,0 l/m 4,5 km/h (1 Bft) SW 215 0 min 0,000 mm 0,0 UV-I 0 W/m 4,4 C 5,1 C 4,8 km/h (1 Bft) 100,00 %
16.04.2016 03:29 5,1 C 95 % 1007,9 hPa 0,0 l/m 3,6 km/h (1 Bft) SW 215 0 min 0,000 mm 0,0 UV-I 0 W/m 4,4 C 5,1 C 4,8 km/h (1 Bft) 100,00 %
16.04.2016 03:30 5,1 C 95 % 1008,0 hPa 0,0 l/m 3,5 km/h (1 Bft) SW 215 0 min 0,000 mm 0,0 UV-I 0 W/m 4,4 C 5,1 C 4,8 km/h (1 Bft) 96,15 %
16.04.2016 03:31 5,2 C 95 % 1008,0 hPa 0,0 l/m 3,3 km/h (1 Bft) SW 215 0 min 0,000 mm 0,0 UV-I 0 W/m 4,5 C 5,2 C 4,8 km/h (1 Bft) 100,00 %
16.04.2016 03:32 5,2 C 95 % 1008,0 hPa 0,0 l/m 3,2 km/h (1 Bft) SW 215 0 min 0,000 mm 0,0 UV-I 0 W/m 4,5 C 5,2 C 4,8 km/h (1 Bft) 100,00 %
16.04.2016 03:33 5,2 C 95 % 1008,0 hPa 0,0 l/m 4,5 km/h (1 Bft) SW 215 0 min 0,000 mm 0,0 UV-I 0 W/m 4,5 C 5,2 C 4,8 km/h (1 Bft) 100,00 %
16.04.2016 03:34 5,1 C 94 % 1008,0 hPa 0,0 l/m 4,0 km/h (1 Bft) SW 215 0 min 0,000 mm 0,0 UV-I 0 W/m 4,2 C 5,1 C 4,8 km/h (1 Bft) 100,00 %
16.04.2016 03:35 5,1 C 94 % 1007,9 hPa 0,0 l/m 5,2 km/h (1 Bft) SW 214 0 min 0,000 mm 0,0 UV-I 0 W/m 4,2 C 5,1 C 6,4 km/h (2 Bft) 100,00 %
16.04.2016 03:36 5,0 C 94 % 1007,9 hPa 0,0 l/m 5,2 km/h (1 Bft) S-SW 199 0 min 0,000 mm 0,0 UV-I 0 W/m 4,1 C 5,0 C 6,4 km/h (2 Bft) 95,65 %
16.04.2016 03:37 5,0 C 94 % 1007,8 hPa 0,0 l/m 4,4 km/h (1 Bft) S-SW 199 0 min 0,000 mm 0,0 UV-I 0 W/m 4,1 C 5,0 C 4,8 km/h (1 Bft) 99,07 %
16.04.2016 03:38 4,9 C 94 % 1007,7 hPa 0,0 l/m 5,1 km/h (1 Bft) S-SW 199 0 min 0,000 mm 0,0 UV-I 0 W/m 4,0 C 4,9 C 6,4 km/h (2 Bft) 100,00 %
16.04.2016 03:39 4,9 C 94 % 1007,7 hPa 0,0 l/m 2,9 km/h (1 Bft) S-SW 199 0 min 0,000 mm 0,0 UV-I 0 W/m 4,0 C 4,9 C 4,8 km/h (1 Bft) 100,00 %
16.04.2016 03:40 4,9 C 94 % 1007,8 hPa 0,0 l/m 3,1 km/h (1 Bft) S-SW 199 0 min 0,000 mm 0,0 UV-I 0 W/m 4,0 C 4,9 C 3,2 km/h (1 Bft) 96,15 %
16.04.2016 03:41 4,9 C 94 % 1007,8 hPa 0,0 l/m 2,9 km/h (1 Bft) S-SW 199 0 min 0,000 mm 0,0 UV-I 0 W/m 4,0 C 4,9 C 3,2 km/h (1 Bft) 100,00 %
16.04.2016 03:42 4,9 C 94 % 1007,8 hPa 0,0 l/m 3,8 km/h (1 Bft) S-SW 200 0 min 0,000 mm 0,0 UV-I 0 W/m 4,0 C 4,9 C 4,8 km/h (1 Bft) 91,67 %
16.04.2016 03:43 4,9 C 95 % 1007,8 hPa 0,0 l/m 3,2 km/h (1 Bft) S-SW 200 0 min 0,000 mm 0,0 UV-I 0 W/m 4,2 C 4,9 C 4,8 km/h (1 Bft) 100,00 %
16.04.2016 03:44 4,9 C 95 % 1007,8 hPa 0,0 l/m 2,5 km/h (1 Bft) S-SW 200 0 min 0,000 mm 0,0 UV-I 0 W/m 4,2 C 4,9 C 3,2 km/h (1 Bft) 95,83 %
16.04.2016 03:45 4,9 C 95 % 1007,8 hPa 0,0 l/m 3,2 km/h (1 Bft) S-SW 200 0 min 0,000 mm 0,0 UV-I 0 W/m 4,2 C 4,9 C 4,8 km/h (1 Bft) 96,15 %
16.04.2016 03:46 4,9 C 95 % 1007,7 hPa 0,0 l/m 3,3 km/h (1 Bft) S-SW 200 0 min 0,000 mm 0,0 UV-I 0 W/m 4,2 C 4,9 C 4,8 km/h (1 Bft) 100,00 %
16.04.2016 03:47 4,9 C 95 % 1007,7 hPa 0,0 l/m 1,3 km/h (1 Bft) S-SW 200 0 min 0,000 mm 0,0 UV-I 0 W/m 4,2 C 4,9 C 1,6 km/h (1 Bft) 96,15 %
16.04.2016 03:48 4,8 C 95 % 1007,7 hPa 0,0 l/m 1,7 km/h (1 Bft) S-SW 200 0 min 0,000 mm 0,0 UV-I 0 W/m 4,1 C 4,8 C 3,2 km/h (1 Bft) 100,00 %
16.04.2016 03:49 4,8 C 94 % 1007,7 hPa 0,0 l/m 0,5 km/h (0 Bft) S-SW 200 0 min 0,000 mm 0,0 UV-I 0 W/m 3,9 C 4,8 C 1,6 km/h (1 Bft) 95,65 %
16.04.2016 03:50 4,8 C 95 % 1007,7 hPa 0,0 l/m 0,8 km/h (0 Bft) S-SW 200 0 min 0,000 mm 0,0 UV-I 0 W/m 4,1 C 4,8 C 1,6 km/h (1 Bft) 95,83 %
16.04.2016 03:51 4,8 C 94 % 1007,7 hPa 0,0 l/m 2,4 km/h (1 Bft) S-SW 200 0 min 0,000 mm 0,0 UV-I 0 W/m 3,9 C 4,8 C 3,2 km/h (1 Bft) 94,12 %
16.04.2016 03:52 4,8 C 94 % 1007,7 hPa 0,0 l/m 2,3 km/h (1 Bft) S-SW 200 0 min 0,000 mm 0,0 UV-I 0 W/m 3,9 C 4,8 C 3,2 km/h (1 Bft) 100,00 %
16.04.2016 03:53 4,8 C 94 % 1007,7 hPa 0,0 l/m 1,3 km/h (1 Bft) S-SW 200 0 min 0,000 mm 0,0 UV-I 0 W/m 3,9 C 4,8 C 3,2 km/h (1 Bft) 96,15 %
16.04.2016 03:54 4,8 C 94 % 1007,7 hPa 0,0 l/m 0,9 km/h (0 Bft) S-SW 200 0 min 0,000 mm 0,0 UV-I 0 W/m 3,9 C 4,8 C 3,2 km/h (1 Bft) 100,00 %
16.04.2016 03:55 4,8 C 95 % 1007,7 hPa 0,0 l/m 1,8 km/h (1 Bft) S-SW 200 0 min 0,000 mm 0,0 UV-I 0 W/m 4,1 C 4,8 C 3,2 km/h (1 Bft) 96,88 %
16.04.2016 03:56 4,8 C 95 % 1007,6 hPa 0,0 l/m 3,2 km/h (1 Bft) S-SW 200 0 min 0,000 mm 0,0 UV-I 0 W/m 4,1 C 4,8 C 3,2 km/h (1 Bft) 95,83 %
16.04.2016 03:57 4,9 C 95 % 1007,6 hPa 0,0 l/m 3,2 km/h (1 Bft) S-SW 200 0 min 0,000 mm 0,0 UV-I 0 W/m 4,2 C 4,9 C 3,2 km/h (1 Bft) 95,65 %
16.04.2016 03:58 4,9 C 95 % 1007,6 hPa 0,0 l/m 3,4 km/h (1 Bft) S-SW 200 0 min 0,000 mm 0,0 UV-I 0 W/m 4,2 C 4,9 C 4,8 km/h (1 Bft) 95,83 %
16.04.2016 03:59 4,9 C 95 % 1007,6 hPa 0,0 l/m 3,3 km/h (1 Bft) S-SW 200 0 min 0,000 mm 0,0 UV-I 0 W/m 4,2 C 4,9 C 4,8 km/h (1 Bft) 100,00 %
16.04.2016 04:00 4,9 C 95 % 1007,6 hPa 0,0 l/m 2,5 km/h (1 Bft) S-SW 200 0 min 0,000 mm 0,0 UV-I 0 W/m 4,2 C 4,9 C 3,2 km/h (1 Bft) 95,83 %
16.04.2016 04:04 4,9 C 95 % 1007,6 hPa 0,0 l/m 3,9 km/h (1 Bft) W 263 0 min 0,000 mm 0,0 UV-I 0 W/m 4,2 C 4,9 C 4,8 km/h (1 Bft) 7,14 %
16.04.2016 04:05 4,7 C 94 % 1007,7 hPa 0,0 l/m 0,8 km/h (0 Bft) W 263 0 min 0,000 mm 0,0 UV-I 0 W/m 3,8 C 4,7 C 3,2 km/h (1 Bft) 65,00 %
16.04.2016 04:06 4,7 C 94 % 1007,7 hPa 0,0 l/m 3,1 km/h (1 Bft) W 263 0 min 0,000 mm 0,0 UV-I 0 W/m 3,8 C 4,7 C 4,8 km/h (1 Bft) 100,00 %
16.04.2016 04:07 4,7 C 94 % 1007,7 hPa 0,0 l/m 4,1 km/h (1 Bft) W 261 0 min 0,000 mm 0,0 UV-I 0 W/m 3,8 C 4,7 C 4,8 km/h (1 Bft) 100,00 %
16.04.2016 04:08 4,7 C 94 % 1007,7 hPa 0,0 l/m 4,6 km/h (1 Bft) S 190 0 min 0,000 mm 0,0 UV-I 0 W/m 3,8 C 4,7 C 6,4 km/h (2 Bft) 94,74 %
16.04.2016 04:09 4,7 C 95 % 1007,6 hPa 0,0 l/m 6,6 km/h (2 Bft) S-SO 167 0 min 0,000 mm 0,0 UV-I 0 W/m 4,0 C 4,5 C 8,0 km/h (2 Bft) 95,83 %
16.04.2016 04:10 4,7 C 95 % 1007,6 hPa 0,0 l/m 4,0 km/h (1 Bft) S-SO 165 0 min 0,000 mm 0,0 UV-I 0 W/m 4,0 C 4,7 C 8,0 km/h (2 Bft) 100,00 %
16.04.2016 04:11 4,8 C 95 % 1007,6 hPa 0,0 l/m 2,1 km/h (1 Bft) S-SO 162 0 min 0,000 mm 0,0 UV-I 0 W/m 4,1 C 4,8 C 3,2 km/h (1 Bft) 96,30 %
16.04.2016 04:12 4,8 C 95 % 1007,6 hPa 0,0 l/m 3,7 km/h (1 Bft) S-SO 148 0 min 0,000 mm 0,0 UV-I 0 W/m 4,1 C 4,8 C 6,4 km/h (2 Bft) 95,65 %
16.04.2016 04:13 4,8 C 95 % 1007,6 hPa 0,0 l/m 6,2 km/h (2 Bft) SO 134 0 min 0,000 mm 0,0 UV-I 0 W/m 4,1 C 4,8 C 8,0 km/h (2 Bft) 100,00 %
16.04.2016 04:14 4,7 C 94 % 1007,6 hPa 0,0 l/m 6,8 km/h (2 Bft) SO 130 0 min 0,000 mm 0,0 UV-I 0 W/m 3,8 C 4,4 C 8,0 km/h (2 Bft) 95,65 %
16.04.2016 04:15 4,6 C 94 % 1007,7 hPa 0,0 l/m 6,5 km/h (2 Bft) SO 126 0 min 0,000 mm 0,0 UV-I 0 W/m 3,7 C 4,5 C 8,0 km/h (2 Bft) 95,83 %
16.04.2016 04:16 4,6 C 94 % 1007,7 hPa 0,0 l/m 4,2 km/h (1 Bft) SO 126 0 min 0,000 mm 0,0 UV-I 0 W/m 3,7 C 4,6 C 6,4 km/h (2 Bft) 89,96 %
16.04.2016 04:17 4,6 C 94 % 1007,7 hPa 0,0 l/m 1,9 km/h (1 Bft) SO 126 0 min 0,000 mm 0,0 UV-I 0 W/m 3,7 C 4,6 C 3,2 km/h (1 Bft) 97,56 %
16.04.2016 04:18 4,6 C 95 % 1007,8 hPa 0,0 l/m 2,5 km/h (1 Bft) N 9 0 min 0,000 mm 0,0 UV-I 0 W/m 3,9 C 4,6 C 4,8 km/h (1 Bft) 100,00 %
16.04.2016 04:19 4,6 C 95 % 1007,8 hPa 0,0 l/m 2,9 km/h (1 Bft) N 360 0 min 0,000 mm 0,0 UV-I 0 W/m 3,9 C 4,6 C 4,8 km/h (1 Bft) 100,00 %
16.04.2016 04:20 4,6 C 95 % 1007,8 hPa 0,0 l/m 0,9 km/h (0 Bft) N 360 0 min 0,000 mm 0,0 UV-I 0 W/m 3,9 C 4,6 C 3,2 km/h (1 Bft) 93,33 %
16.04.2016 04:21 4,5 C 95 % 1007,7 hPa 0,0 l/m 0,1 km/h (0 Bft) N 360 0 min 0,000 mm 0,0 UV-I 0 W/m 3,8 C 4,5 C 1,6 km/h (1 Bft) 100,00 %
16.04.2016 04:22 4,5 C 95 % 1007,7 hPa 0,0 l/m 0,7 km/h (0 Bft) N 360 0 min 0,000 mm 0,0 UV-I 0 W/m 3,8 C 4,5 C 1,6 km/h (1 Bft) 95,83 %
16.04.2016 04:23 4,4 C 95 % 1007,7 hPa 0,0 l/m 1,6 km/h (1 Bft) N-NO 17 0 min 0,000 mm 0,0 UV-I 0 W/m 3,7 C 4,4 C 3,2 km/h (1 Bft) 100,00 %
16.04.2016 04:24 4,4 C 95 % 1007,6 hPa 0,0 l/m 3,2 km/h (1 Bft) N-NO 13 0 min 0,000 mm 0,0 UV-I 0 W/m 3,7 C 4,4 C 4,8 km/h (1 Bft) 100,00 %
16.04.2016 04:25 4,4 C 95 % 1007,6 hPa 0,0 l/m 3,3 km/h (1 Bft) N-NO 12 0 min 0,000 mm 0,0 UV-I 0 W/m 3,7 C 4,4 C 4,8 km/h (1 Bft) 100,00 %
16.04.2016 04:26 4,4 C 95 % 1007,6 hPa 0,0 l/m 2,3 km/h (1 Bft) N-NO 12 0 min 0,000 mm 0,0 UV-I 0 W/m 3,7 C 4,4 C 3,2 km/h (1 Bft) 95,83 %
16.04.2016 04:27 4,4 C 95 % 1007,6 hPa 0,0 l/m 1,2 km/h (1 Bft) N 11 0 min 0,000 mm 0,0 UV-I 0 W/m 3,7 C 4,4 C 3,2 km/h (1 Bft) 100,00 %
16.04.2016 04:28 4,4 C 95 % 1007,6 hPa 0,0 l/m 1,3 km/h (1 Bft) O-NO 63 0 min 0,000 mm 0,0 UV-I 0 W/m 3,7 C 4,4 C 3,2 km/h (1 Bft) 100,00 %
16.04.2016 04:29 4,4 C 95 % 1007,6 hPa 0,0 l/m 3,6 km/h (1 Bft) O 94 0 min 0,000 mm 0,0 UV-I 0 W/m 3,7 C 4,4 C 4,8 km/h (1 Bft) 96,15 %
16.04.2016 04:30 4,3 C 95 % 1007,6 hPa 0,0 l/m 4,2 km/h (1 Bft) O 94 0 min 0,000 mm 0,0 UV-I 0 W/m 3,6 C 4,3 C 4,8 km/h (1 Bft) 100,00 %
16.04.2016 04:31 4,3 C 94 % 1007,6 hPa 0,0 l/m 3,5 km/h (1 Bft) O 94 0 min 0,000 mm 0,0 UV-I 0 W/m 3,4 C 4,3 C 4,8 km/h (1 Bft) 100,00 %
16.04.2016 04:32 4,3 C 95 % 1007,6 hPa 0,0 l/m 2,2 km/h (1 Bft) O 94 0 min 0,000 mm 0,0 UV-I 0 W/m 3,6 C 4,3 C 3,2 km/h (1 Bft) 100,00 %
16.04.2016 04:33 4,3 C 95 % 1007,5 hPa 0,0 l/m 2,7 km/h (1 Bft) O 94 0 min 0,000 mm 0,0 UV-I 0 W/m 3,6 C 4,3 C 3,2 km/h (1 Bft) 100,00 %
16.04.2016 04:34 4,3 C 95 % 1007,5 hPa 0,0 l/m 2,9 km/h (1 Bft) O 94 0 min 0,000 mm 0,0 UV-I 0 W/m 3,6 C 4,3 C 3,2 km/h (1 Bft) 100,00 %
16.04.2016 04:35 4,3 C 95 % 1007,5 hPa 0,0 l/m 2,1 km/h (1 Bft) O 94 0 min 0,000 mm 0,0 UV-I 0 W/m 3,6 C 4,3 C 3,2 km/h (1 Bft) 100,00 %
16.04.2016 04:36 4,3 C 95 % 1007,5 hPa 0,0 l/m 1,4 km/h (1 Bft) O 94 0 min 0,000 mm 0,0 UV-I 0 W/m 3,6 C 4,3 C 3,2 km/h (1 Bft) 100,00 %
16.04.2016 04:37 4,3 C 95 % 1007,6 hPa 0,0 l/m 1,1 km/h (1 Bft) O 94 0 min 0,000 mm 0,0 UV-I 0 W/m 3,6 C 4,3 C 1,6 km/h (1 Bft) 100,00 %
16.04.2016 04:38 4,4 C 95 % 1007,6 hPa 0,0 l/m 0,1 km/h (0 Bft) O 94 0 min 0,000 mm 0,0 UV-I 0 W/m 3,7 C 4,4 C 1,6 km/h (1 Bft) 100,00 %
16.04.2016 04:39 4,4 C 95 % 1007,6 hPa 0,0 l/m 0,0 km/h (0 Bft) O 94 0 min 0,000 mm 0,0 UV-I 0 W/m 3,7 C 4,4 C 0,0 km/h (0 Bft) 100,00 %
16.04.2016 04:40 4,4 C 95 % 1007,6 hPa 0,0 l/m 0,0 km/h (0 Bft) O 94 0 min 0,000 mm 0,0 UV-I 0 W/m 3,7 C 4,4 C 0,0 km/h (0 Bft) 100,00 %
16.04.2016 04:41 4,4 C 95 % 1007,6 hPa 0,0 l/m 0,0 km/h (0 Bft) O 94 0 min 0,000 mm 0,0 UV-I 0 W/m 3,7 C 4,4 C 0,0 km/h (0 Bft) 100,00 %
16.04.2016 04:42 4,3 C 95 % 1007,6 hPa 0,0 l/m 0,0 km/h (0 Bft) O 94 0 min 0,000 mm 0,0 UV-I 0 W/m 3,6 C 4,3 C 0,0 km/h (0 Bft) 100,00 %
16.04.2016 04:43 4,3 C 95 % 1007,6 hPa 0,0 l/m 0,2 km/h (0 Bft) O 94 0 min 0,000 mm 0,0 UV-I 0 W/m 3,6 C 4,3 C 1,6 km/h (1 Bft) 100,00 %
16.04.2016 04:44 4,3 C 95 % 1007,6 hPa 0,0 l/m 0,0 km/h (0 Bft) O 94 0 min 0,000 mm 0,0 UV-I 0 W/m 3,6 C 4,3 C 0,0 km/h (0 Bft) 100,00 %
16.04.2016 04:45 4,2 C 95 % 1007,6 hPa 0,0 l/m 0,0 km/h (0 Bft) O 94 0 min 0,000 mm 0,0 UV-I 0 W/m 3,5 C 4,2 C 0,0 km/h (0 Bft) 100,00 %
16.04.2016 04:46 4,2 C 95 % 1007,6 hPa 0,0 l/m 0,2 km/h (0 Bft) O 94 0 min 0,000 mm 0,0 UV-I 0 W/m 3,5 C 4,2 C 1,6 km/h (1 Bft) 100,00 %
16.04.2016 04:47 4,2 C 95 % 1007,6 hPa 0,0 l/m 0,5 km/h (0 Bft) O 94 0 min 0,000 mm 0,0 UV-I 0 W/m 3,5 C 4,2 C 1,6 km/h (1 Bft) 100,00 %
16.04.2016 04:48 4,1 C 95 % 1007,6 hPa 0,0 l/m 0,3 km/h (0 Bft) O 94 0 min 0,000 mm 0,0 UV-I 0 W/m 3,4 C 4,1 C 1,6 km/h (1 Bft) 100,00 %
16.04.2016 04:49 4,1 C 95 % 1007,5 hPa 0,0 l/m 0,0 km/h (0 Bft) O 94 0 min 0,000 mm 0,0 UV-I 0 W/m 3,4 C 4,1 C 0,0 km/h (0 Bft) 100,00 %
16.04.2016 04:50 4,1 C 95 % 1007,5 hPa 0,0 l/m 0,0 km/h (0 Bft) O 94 0 min 0,000 mm 0,0 UV-I 0 W/m 3,4 C 4,1 C 0,0 km/h (0 Bft) 95,65 %
16.04.2016 04:51 4,1 C 95 % 1007,5 hPa 0,0 l/m 0,0 km/h (0 Bft) O 94 0 min 0,000 mm 0,0 UV-I 0 W/m 3,4 C 4,1 C 0,0 km/h (0 Bft) 100,00 %
16.04.2016 04:52 4,0 C 95 % 1007,4 hPa 0,0 l/m 0,0 km/h (0 Bft) O 94 0 min 0,000 mm 0,0 UV-I 0 W/m 3,3 C 4,0 C 0,0 km/h (0 Bft) 100,00 %
16.04.2016 04:53 3,9 C 95 % 1007,4 hPa 0,0 l/m 0,1 km/h (0 Bft) O 94 0 min 0,000 mm 0,0 UV-I 0 W/m 3,2 C 3,9 C 1,6 km/h (1 Bft) 100,00 %
16.04.2016 04:54 3,9 C 95 % 1007,4 hPa 0,0 l/m 0,1 km/h (0 Bft) O 94 0 min 0,000 mm 0,0 UV-I 0 W/m 3,2 C 3,9 C 1,6 km/h (1 Bft) 100,00 %
16.04.2016 04:55 3,9 C 95 % 1007,3 hPa 0,0 l/m 0,1 km/h (0 Bft) O 94 0 min 0,000 mm 0,0 UV-I 0 W/m 3,2 C 3,9 C 1,6 km/h (1 Bft) 100,00 %
16.04.2016 04:56 3,8 C 95 % 1007,3 hPa 0,0 l/m 0,1 km/h (0 Bft) O 94 0 min 0,000 mm 0,0 UV-I 0 W/m 3,1 C 3,8 C 1,6 km/h (1 Bft) 95,65 %
16.04.2016 04:57 3,8 C 95 % 1007,3 hPa 0,0 l/m 2,5 km/h (1 Bft) O 94 0 min 0,000 mm 0,0 UV-I 0 W/m 3,1 C 3,8 C 4,8 km/h (1 Bft) 100,00 %
16.04.2016 04:58 3,8 C 95 % 1007,2 hPa 0,0 l/m 3,8 km/h (1 Bft) O 94 0 min 0,000 mm 0,0 UV-I 0 W/m 3,1 C 3,8 C 4,8 km/h (1 Bft) 100,00 %
16.04.2016 04:59 3,8 C 95 % 1007,2 hPa 0,0 l/m 3,7 km/h (1 Bft) O 94 0 min 0,000 mm 0,0 UV-I 0 W/m 3,1 C 3,8 C 4,8 km/h (1 Bft) 100,00 %
16.04.2016 05:00 3,8 C 95 % 1007,2 hPa 0,0 l/m 3,8 km/h (1 Bft) O 94 0 min 0,000 mm 0,0 UV-I 0 W/m 3,1 C 3,8 C 4,8 km/h (1 Bft) 100,00 %
16.04.2016 05:01 3,7 C 95 % 1007,2 hPa 0,0 l/m 3,1 km/h (1 Bft) O 94 0 min 0,000 mm 0,0 UV-I 0 W/m 3,0 C 3,7 C 4,8 km/h (1 Bft) 100,00 %
16.04.2016 05:02 3,7 C 95 % 1007,2 hPa 0,0 l/m 2,7 km/h (1 Bft) O 94 0 min 0,000 mm 0,0 UV-I 0 W/m 3,0 C 3,7 C 3,2 km/h (1 Bft) 100,00 %
16.04.2016 05:03 3,7 C 95 % 1007,2 hPa 0,0 l/m 2,2 km/h (1 Bft) O 94 0 min 0,000 mm 0,0 UV-I 0 W/m 3,0 C 3,7 C 3,2 km/h (1 Bft) 95,65 %
16.04.2016 05:04 3,7 C 95 % 1007,1 hPa 0,0 l/m 2,0 km/h (1 Bft) O 94 0 min 0,000 mm 0,0 UV-I 0 W/m 3,0 C 3,7 C 3,2 km/h (1 Bft) 100,00 %
16.04.2016 05:05 3,7 C 95 % 1007,0 hPa 0,0 l/m 1,2 km/h (1 Bft) O 94 0 min 0,000 mm 0,0 UV-I 0 W/m 3,0 C 3,7 C 1,6 km/h (1 Bft) 100,00 %
16.04.2016 05:06 3,8 C 95 % 1007,0 hPa 0,0 l/m 0,6 km/h (0 Bft) O 94 0 min 0,000 mm 0,0 UV-I 0 W/m 3,1 C 3,8 C 1,6 km/h (1 Bft) 100,00 %
16.04.2016 05:07 3,8 C 96 % 1007,0 hPa 0,0 l/m 0,1 km/h (0 Bft) O 94 0 min 0,000 mm 0,0 UV-I 0 W/m 3,2 C 3,8 C 1,6 km/h (1 Bft) 100,00 %
16.04.2016 05:08 3,8 C 96 % 1007,0 hPa 0,0 l/m 0,0 km/h (0 Bft) O 94 0 min 0,000 mm 0,0 UV-I 0 W/m 3,2 C 3,8 C 0,0 km/h (0 Bft) 100,00 %
16.04.2016 05:09 3,8 C 95 % 1007,0 hPa 0,0 l/m 0,0 km/h (0 Bft) O 94 0 min 0,000 mm 0,0 UV-I 0 W/m 3,1 C 3,8 C 0,0 km/h (0 Bft) 100,00 %
16.04.2016 05:10 3,8 C 95 % 1007,0 hPa 0,0 l/m 0,0 km/h (0 Bft) O 94 0 min 0,000 mm 0,0 UV-I 0 W/m 3,1 C 3,8 C 0,0 km/h (0 Bft) 100,00 %
16.04.2016 05:11 3,9 C 95 % 1007,1 hPa 0,0 l/m 1,4 km/h (1 Bft) O 94 0 min 0,000 mm 0,0 UV-I 0 W/m 3,2 C 3,9 C 3,2 km/h (1 Bft) 100,00 %
16.04.2016 05:12 3,9 C 96 % 1007,1 hPa 0,0 l/m 1,6 km/h (1 Bft) O 94 0 min 0,000 mm 0,0 UV-I 0 W/m 3,3 C 3,9 C 3,2 km/h (1 Bft) 100,00 %
16.04.2016 05:13 4,0 C 96 % 1007,0 hPa 0,0 l/m 0,5 km/h (0 Bft) O 94 0 min 0,000 mm 0,0 UV-I 0 W/m 3,4 C 4,0 C 1,6 km/h (1 Bft) 100,00 %
16.04.2016 05:14 4,1 C 96 % 1007,0 hPa 0,0 l/m 0,1 km/h (0 Bft) O 94 0 min 0,000 mm 0,0 UV-I 0 W/m 3,5 C 4,1 C 1,6 km/h (1 Bft) 100,00 %
16.04.2016 05:15 4,1 C 96 % 1007,0 hPa 0,0 l/m 0,7 km/h (0 Bft) O 94 0 min 0,000 mm 0,0 UV-I 0 W/m 3,5 C 4,1 C 1,6 km/h (1 Bft) 100,00 %
16.04.2016 05:16 4,2 C 96 % 1007,1 hPa 0,0 l/m 0,9 km/h (0 Bft) O 94 0 min 0,000 mm 0,0 UV-I 0 W/m 3,6 C 4,2 C 1,6 km/h (1 Bft) 100,00 %
16.04.2016 05:17 4,1 C 96 % 1007,0 hPa 0,0 l/m 1,0 km/h (0 Bft) O 94 0 min 0,000 mm 0,0 UV-I 0 W/m 3,5 C 4,1 C 1,6 km/h (1 Bft) 100,00 %
16.04.2016 05:18 4,1 C 95 % 1007,0 hPa 0,0 l/m 0,6 km/h (0 Bft) O 94 0 min 0,000 mm 0,0 UV-I 0 W/m 3,4 C 4,1 C 1,6 km/h (1 Bft) 100,00 %
16.04.2016 05:19 4,0 C 95 % 1006,9 hPa 0,0 l/m 0,6 km/h (0 Bft) O 94 0 min 0,000 mm 0,0 UV-I 0 W/m 3,3 C 4,0 C 1,6 km/h (1 Bft) 100,00 %
16.04.2016 05:20 3,9 C 95 % 1006,9 hPa 0,0 l/m 0,0 km/h (0 Bft) O 94 0 min 0,000 mm 0,0 UV-I 0 W/m 3,2 C 3,9 C 0,0 km/h (0 Bft) 100,00 %
16.04.2016 05:21 3,9 C 95 % 1007,0 hPa 0,0 l/m 0,1 km/h (0 Bft) O 94 0 min 0,000 mm 0,0 UV-I 0 W/m 3,2 C 3,9 C 1,6 km/h (1 Bft) 92,59 %
16.04.2016 05:22 3,8 C 95 % 1006,9 hPa 0,0 l/m 1,1 km/h (1 Bft) O 94 0 min 0,000 mm 0,0 UV-I 0 W/m 3,1 C 3,8 C 3,2 km/h (1 Bft) 100,00 %
16.04.2016 05:23 3,8 C 95 % 1006,9 hPa 0,0 l/m 2,1 km/h (1 Bft) O 94 0 min 0,000 mm 0,0 UV-I 0 W/m 3,1 C 3,8 C 3,2 km/h (1 Bft) 100,00 %
16.04.2016 05:24 3,8 C 95 % 1007,0 hPa 0,0 l/m 2,4 km/h (1 Bft) O 94 0 min 0,000 mm 0,0 UV-I 0 W/m 3,1 C 3,8 C 3,2 km/h (1 Bft) 100,00 %
16.04.2016 05:25 3,8 C 95 % 1007,0 hPa 0,0 l/m 3,4 km/h (1 Bft) O 94 0 min 0,000 mm 0,0 UV-I 0 W/m 3,1 C 3,8 C 4,8 km/h (1 Bft) 100,00 %
16.04.2016 05:26 3,8 C 95 % 1007,0 hPa 0,0 l/m 3,0 km/h (1 Bft) O 94 0 min 0,000 mm 0,0 UV-I 0 W/m 3,1 C 3,8 C 3,2 km/h (1 Bft) 100,00 %
16.04.2016 05:27 3,8 C 95 % 1007,0 hPa 0,0 l/m 3,2 km/h (1 Bft) O 94 0 min 0,000 mm 0,0 UV-I 0 W/m 3,1 C 3,8 C 4,8 km/h (1 Bft) 100,00 %
16.04.2016 05:28 3,8 C 95 % 1006,9 hPa 0,0 l/m 2,8 km/h (1 Bft) O 94 0 min 0,000 mm 0,0 UV-I 0 W/m 3,1 C 3,8 C 3,2 km/h (1 Bft) 100,00 %
16.04.2016 05:29 3,8 C 95 % 1006,9 hPa 0,0 l/m 1,8 km/h (1 Bft) O-SO 109 0 min 0,000 mm 0,0 UV-I 0 W/m 3,1 C 3,8 C 3,2 km/h (1 Bft) 100,00 %
16.04.2016 05:30 3,8 C 95 % 1006,9 hPa 0,0 l/m 0,9 km/h (0 Bft) O-SO 114 0 min 0,000 mm 0,0 UV-I 0 W/m 3,1 C 3,8 C 1,6 km/h (1 Bft) 100,00 %
16.04.2016 05:31 3,8 C 95 % 1006,9 hPa 0,0 l/m 0,8 km/h (0 Bft) O-SO 114 0 min 0,000 mm 0,0 UV-I 0 W/m 3,1 C 3,8 C 1,6 km/h (1 Bft) 100,00 %
16.04.2016 05:32 3,8 C 95 % 1006,8 hPa 0,0 l/m 0,9 km/h (0 Bft) O-SO 114 0 min 0,000 mm 0,0 UV-I 0 W/m 3,1 C 3,8 C 1,6 km/h (1 Bft) 100,00 %
16.04.2016 05:33 3,8 C 95 % 1006,8 hPa 0,0 l/m 1,1 km/h (1 Bft) O-SO 114 0 min 0,000 mm 0,0 UV-I 0 W/m 3,1 C 3,8 C 1,6 km/h (1 Bft) 100,00 %
16.04.2016 05:34 3,8 C 95 % 1006,7 hPa 0,0 l/m 1,2 km/h (1 Bft) O-SO 119 0 min 0,000 mm 0,0 UV-I 0 W/m 3,1 C 3,8 C 1,6 km/h (1 Bft) 100,00 %
16.04.2016 05:35 3,8 C 95 % 1006,7 hPa 0,0 l/m 1,3 km/h (1 Bft) O-SO 121 0 min 0,000 mm 0,0 UV-I 0 W/m 3,1 C 3,8 C 3,2 km/h (1 Bft) 100,00 %
16.04.2016 05:36 3,9 C 96 % 1006,7 hPa 0,0 l/m 1,3 km/h (1 Bft) SO 128 0 min 0,000 mm 0,0 UV-I 0 W/m 3,3 C 3,9 C 1,6 km/h (1 Bft) 95,65 %
16.04.2016 05:37 4,1 C 96 % 1006,7 hPa 0,0 l/m 1,1 km/h (1 Bft) SO 130 0 min 0,000 mm 0,0 UV-I 0 W/m 3,5 C 4,1 C 1,6 km/h (1 Bft) 100,00 %
16.04.2016 05:38 4,2 C 96 % 1006,6 hPa 0,0 l/m 3,2 km/h (1 Bft) SO 132 0 min 0,000 mm 0,0 UV-I 0 W/m 3,6 C 4,2 C 4,8 km/h (1 Bft) 100,00 %
16.04.2016 05:39 4,2 C 96 % 1006,5 hPa 0,0 l/m 3,6 km/h (1 Bft) SO 132 0 min 0,000 mm 0,0 UV-I 0 W/m 3,6 C 4,2 C 4,8 km/h (1 Bft) 100,00 %
16.04.2016 05:40 4,2 C 96 % 1006,5 hPa 0,0 l/m 3,8 km/h (1 Bft) SO 132 0 min 0,000 mm 0,0 UV-I 0 W/m 3,6 C 4,2 C 4,8 km/h (1 Bft) 95,83 %
16.04.2016 05:41 4,1 C 96 % 1006,5 hPa 0,0 l/m 3,9 km/h (1 Bft) SO 132 0 min 0,000 mm 0,0 UV-I 0 W/m 3,5 C 4,1 C 4,8 km/h (1 Bft) 100,00 %
16.04.2016 05:42 4,1 C 95 % 1006,6 hPa 0,0 l/m 3,0 km/h (1 Bft) SO 132 0 min 0,000 mm 0,0 UV-I 0 W/m 3,4 C 4,1 C 4,8 km/h (1 Bft) 96,30 %
16.04.2016 05:43 4,1 C 95 % 1006,6 hPa 0,0 l/m 1,8 km/h (1 Bft) SO 132 0 min 0,000 mm 0,0 UV-I 0 W/m 3,4 C 4,1 C 3,2 km/h (1 Bft) 100,00 %
16.04.2016 05:44 4,1 C 95 % 1006,6 hPa 0,0 l/m 1,8 km/h (1 Bft) SO 132 0 min 0,000 mm 0,0 UV-I 0 W/m 3,4 C 4,1 C 3,2 km/h (1 Bft) 100,00 %
16.04.2016 05:45 4,1 C 95 % 1006,6 hPa 0,0 l/m 2,3 km/h (1 Bft) SO 132 0 min 0,000 mm 0,0 UV-I 0 W/m 3,4 C 4,1 C 3,2 km/h (1 Bft) 98,30 %
16.04.2016 05:46 4,1 C 95 % 1006,6 hPa 0,0 l/m 2,1 km/h (1 Bft) SO 133 0 min 0,000 mm 0,0 UV-I 0 W/m 3,4 C 4,1 C 3,2 km/h (1 Bft) 100,00 %
16.04.2016 05:47 4,1 C 96 % 1006,7 hPa 0,0 l/m 2,1 km/h (1 Bft) SO 134 0 min 0,000 mm 0,0 UV-I 0 W/m 3,5 C 4,1 C 3,2 km/h (1 Bft) 100,00 %
16.04.2016 05:48 4,0 C 95 % 1006,7 hPa 0,0 l/m 1,4 km/h (1 Bft) SO 134 0 min 0,000 mm 0,0 UV-I 0 W/m 3,3 C 4,0 C 3,2 km/h (1 Bft) 100,00 %
16.04.2016 05:49 4,0 C 95 % 1006,7 hPa 0,0 l/m 0,8 km/h (0 Bft) SO 134 0 min 0,000 mm 0,0 UV-I 0 W/m 3,3 C 4,0 C 1,6 km/h (1 Bft) 100,00 %
16.04.2016 05:50 4,0 C 95 % 1006,7 hPa 0,0 l/m 0,4 km/h (0 Bft) SO 134 0 min 0,000 mm 0,0 UV-I 0 W/m 3,3 C 4,0 C 1,6 km/h (1 Bft) 100,00 %
16.04.2016 05:51 3,9 C 95 % 1006,8 hPa 0,0 l/m 0,5 km/h (0 Bft) SO 134 0 min 0,000 mm 0,0 UV-I 0 W/m 3,2 C 3,9 C 1,6 km/h (1 Bft) 100,00 %
16.04.2016 05:52 3,9 C 95 % 1006,8 hPa 0,0 l/m 1,5 km/h (1 Bft) SO 134 0 min 0,000 mm 0,0 UV-I 0 W/m 3,2 C 3,9 C 1,6 km/h (1 Bft) 100,00 %
16.04.2016 05:53 3,8 C 95 % 1006,8 hPa 0,0 l/m 1,5 km/h (1 Bft) SO 134 0 min 0,000 mm 0,0 UV-I 0 W/m 3,1 C 3,8 C 1,6 km/h (1 Bft) 95,65 %
16.04.2016 05:54 3,8 C 95 % 1006,8 hPa 0,0 l/m 0,9 km/h (0 Bft) SO 134 0 min 0,000 mm 0,0 UV-I 0 W/m 3,1 C 3,8 C 1,6 km/h (1 Bft) 96,30 %
16.04.2016 05:55 3,7 C 95 % 1006,9 hPa 0,0 l/m 2,2 km/h (1 Bft) SO 134 0 min 0,000 mm 0,0 UV-I 0 W/m 3,0 C 3,7 C 3,2 km/h (1 Bft) 100,00 %
16.04.2016 05:56 3,7 C 95 % 1006,9 hPa 0,0 l/m 3,6 km/h (1 Bft) SO 146 0 min 0,000 mm 0,0 UV-I 0 W/m 3,0 C 3,7 C 4,8 km/h (1 Bft) 95,83 %
16.04.2016 05:57 3,6 C 95 % 1006,9 hPa 0,0 l/m 3,4 km/h (1 Bft) S-SO 149 0 min 0,000 mm 0,0 UV-I 0 W/m 2,9 C 3,6 C 4,8 km/h (1 Bft) 96,15 %
16.04.2016 05:58 3,6 C 95 % 1006,9 hPa 0,0 l/m 3,0 km/h (1 Bft) S-SO 149 0 min 0,000 mm 0,0 UV-I 0 W/m 2,9 C 3,6 C 4,8 km/h (1 Bft) 95,83 %
16.04.2016 05:59 3,6 C 95 % 1006,8 hPa 0,0 l/m 2,8 km/h (1 Bft) S-SO 149 0 min 0,000 mm 0,0 UV-I 0 W/m 2,9 C 3,6 C 3,2 km/h (1 Bft) 100,00 %
16.04.2016 06:00 3,6 C 95 % 1006,8 hPa 0,0 l/m 1,4 km/h (1 Bft) S-SO 149 0 min 0,000 mm 0,0 UV-I 0 W/m 2,9 C 3,6 C 3,2 km/h (1 Bft) 91,30 %
16.04.2016 06:01 3,6 C 95 % 1006,9 hPa 0,0 l/m 1,7 km/h (1 Bft) S-SO 149 0 min 0,000 mm 0,0 UV-I 0 W/m 2,9 C 3,6 C 3,2 km/h (1 Bft) 100,00 %
16.04.2016 06:02 3,6 C 95 % 1006,9 hPa 0,0 l/m 1,5 km/h (1 Bft) S-SO 149 0 min 0,000 mm 0,0 UV-I 0 W/m 2,9 C 3,6 C 3,2 km/h (1 Bft) 96,15 %
16.04.2016 06:03 3,6 C 95 % 1006,9 hPa 0,0 l/m 0,0 km/h (0 Bft) S-SO 149 0 min 0,000 mm 0,0 UV-I 0 W/m 2,9 C 3,6 C 0,0 km/h (0 Bft) 96,30 %
16.04.2016 06:04 3,6 C 95 % 1006,8 hPa 0,0 l/m 0,0 km/h (0 Bft) S-SO 149 0 min 0,000 mm 0,0 UV-I 0 W/m 2,9 C 3,6 C 0,0 km/h (0 Bft) 96,15 %
16.04.2016 06:05 3,6 C 96 % 1006,8 hPa 0,0 l/m 0,0 km/h (0 Bft) S-SO 149 0 min 0,000 mm 0,0 UV-I 0 W/m 3,0 C 3,6 C 0,0 km/h (0 Bft) 100,00 %
16.04.2016 06:06 3,7 C 96 % 1006,8 hPa 0,0 l/m 0,1 km/h (0 Bft) S-SO 149 0 min 0,000 mm 0,0 UV-I 0 W/m 3,1 C 3,7 C 1,6 km/h (1 Bft) 86,96 %
16.04.2016 06:07 3,7 C 96 % 1006,8 hPa 0,0 l/m 1,4 km/h (1 Bft) S-SO 149 0 min 0,000 mm 0,0 UV-I 0 W/m 3,1 C 3,7 C 1,6 km/h (1 Bft) 95,83 %
16.04.2016 06:08 3,7 C 96 % 1006,7 hPa 0,0 l/m 1,9 km/h (1 Bft) S-SO 149 0 min 0,000 mm 0,0 UV-I 0 W/m 3,1 C 3,7 C 3,2 km/h (1 Bft) 100,00 %
16.04.2016 06:09 3,8 C 96 % 1006,7 hPa 0,0 l/m 2,1 km/h (1 Bft) S-SO 149 0 min 0,000 mm 0,0 UV-I 0 W/m 3,2 C 3,8 C 3,2 km/h (1 Bft) 95,83 %
16.04.2016 06:10 3,8 C 96 % 1006,7 hPa 0,0 l/m 2,2 km/h (1 Bft) S-SO 149 0 min 0,000 mm 0,0 UV-I 0 W/m 3,2 C 3,8 C 3,2 km/h (1 Bft) 100,00 %
16.04.2016 06:11 3,9 C 96 % 1006,6 hPa 0,0 l/m 1,5 km/h (1 Bft) S-SO 149 0 min 0,000 mm 0,0 UV-I 4 W/m 3,3 C 3,9 C 3,2 km/h (1 Bft) 95,83 %
16.04.2016 06:12 3,9 C 96 % 1006,7 hPa 0,0 l/m 0,4 km/h (0 Bft) S-SO 149 0 min 0,000 mm 0,0 UV-I 5 W/m 3,3 C 3,9 C 1,6 km/h (1 Bft) 95,65 %
16.04.2016 06:13 4,0 C 96 % 1006,7 hPa 0,0 l/m 0,0 km/h (0 Bft) S-SO 149 0 min 0,000 mm 0,0 UV-I 5 W/m 3,4 C 4,0 C 0,0 km/h (0 Bft) 95,83 %
16.04.2016 06:14 4,0 C 96 % 1006,6 hPa 0,0 l/m 0,0 km/h (0 Bft) S-SO 149 0 min 0,000 mm 0,0 UV-I 5 W/m 3,4 C 4,0 C 0,0 km/h (0 Bft) 95,65 %
16.04.2016 06:15 4,0 C 96 % 1006,6 hPa 0,0 l/m 0,0 km/h (0 Bft) S-SO 149 0 min 0,000 mm 0,0 UV-I 5 W/m 3,4 C 4,0 C 0,0 km/h (0 Bft) 100,00 %
16.04.2016 06:16 4,0 C 96 % 1006,6 hPa 0,0 l/m 0,0 km/h (0 Bft) S-SO 149 0 min 0,000 mm 0,0 UV-I 5 W/m 3,4 C 4,0 C 0,0 km/h (0 Bft) 96,15 %
16.04.2016 06:17 4,0 C 96 % 1006,6 hPa 0,0 l/m 0,0 km/h (0 Bft) S-SO 149 0 min 0,000 mm 0,0 UV-I 7 W/m 3,4 C 4,0 C 0,0 km/h (0 Bft) 100,00 %
16.04.2016 06:18 4,0 C 96 % 1006,6 hPa 0,0 l/m 0,1 km/h (0 Bft) S-SO 149 0 min 0,000 mm 0,0 UV-I 7 W/m 3,4 C 4,0 C 1,6 km/h (1 Bft) 96,15 %
16.04.2016 06:19 3,9 C 95 % 1006,6 hPa 0,0 l/m 0,2 km/h (0 Bft) S-SO 149 0 min 0,000 mm 0,0 UV-I 7 W/m 3,2 C 3,9 C 1,6 km/h (1 Bft) 100,00 %
16.04.2016 06:20 3,9 C 95 % 1006,6 hPa 0,0 l/m 0,1 km/h (0 Bft) S-SO 149 0 min 0,000 mm 0,0 UV-I 7 W/m 3,2 C 3,9 C 1,6 km/h (1 Bft) 95,83 %
16.04.2016 06:21 3,8 C 95 % 1006,6 hPa 0,0 l/m 2,0 km/h (1 Bft) S-SO 149 0 min 0,000 mm 0,0 UV-I 8 W/m 3,1 C 3,8 C 3,2 km/h (1 Bft) 100,00 %
16.04.2016 06:22 3,8 C 95 % 1006,5 hPa 0,0 l/m 2,6 km/h (1 Bft) S-SO 149 1 min 0,000 mm 0,0 UV-I 9 W/m 3,1 C 3,8 C 3,2 km/h (1 Bft) 91,67 %
16.04.2016 06:23 3,7 C 95 % 1006,5 hPa 0,0 l/m 2,7 km/h (1 Bft) S-SO 149 0 min 0,000 mm 0,0 UV-I 9 W/m 3,0 C 3,7 C 3,2 km/h (1 Bft) 91,30 %
16.04.2016 06:24 3,6 C 95 % 1006,5 hPa 0,0 l/m 3,3 km/h (1 Bft) S-SO 149 0 min 0,000 mm 0,0 UV-I 9 W/m 2,9 C 3,6 C 4,8 km/h (1 Bft) 100,00 %
16.04.2016 06:25 3,6 C 95 % 1006,6 hPa 0,0 l/m 3,1 km/h (1 Bft) S-SO 149 0 min 0,000 mm 0,0 UV-I 11 W/m 2,9 C 3,6 C 3,2 km/h (1 Bft) 95,65 %
16.04.2016 06:26 3,6 C 95 % 1006,6 hPa 0,0 l/m 2,4 km/h (1 Bft) S-SO 149 0 min 0,000 mm 0,0 UV-I 11 W/m 2,9 C 3,6 C 3,2 km/h (1 Bft) 100,00 %
16.04.2016 06:27 3,6 C 95 % 1006,6 hPa 0,0 l/m 3,0 km/h (1 Bft) S-SO 149 0 min 0,000 mm 0,0 UV-I 12 W/m 2,9 C 3,6 C 3,2 km/h (1 Bft) 95,65 %
16.04.2016 06:28 3,7 C 95 % 1006,7 hPa 0,0 l/m 0,2 km/h (0 Bft) S-SO 149 0 min 0,000 mm 0,0 UV-I 12 W/m 3,0 C 3,7 C 1,6 km/h (1 Bft) 100,00 %
16.04.2016 06:29 3,7 C 96 % 1006,7 hPa 0,0 l/m 1,1 km/h (1 Bft) S-SO 149 0 min 0,000 mm 0,0 UV-I 12 W/m 3,1 C 3,7 C 3,2 km/h (1 Bft) 95,65 %
16.04.2016 06:30 3,7 C 96 % 1006,8 hPa 0,0 l/m 2,2 km/h (1 Bft) S-SO 149 0 min 0,000 mm 0,0 UV-I 12 W/m 3,1 C 3,7 C 3,2 km/h (1 Bft) 100,00 %
16.04.2016 06:31 3,7 C 96 % 1006,8 hPa 0,0 l/m 3,0 km/h (1 Bft) S-SO 149 0 min 0,000 mm 0,0 UV-I 12 W/m 3,1 C 3,7 C 3,2 km/h (1 Bft) 100,00 %
16.04.2016 06:32 3,7 C 96 % 1006,8 hPa 0,0 l/m 2,8 km/h (1 Bft) S-SO 149 0 min 0,000 mm 0,0 UV-I 14 W/m 3,1 C 3,7 C 3,2 km/h (1 Bft) 100,00 %
16.04.2016 06:33 3,7 C 95 % 1006,8 hPa 0,0 l/m 2,6 km/h (1 Bft) S-SO 149 0 min 0,000 mm 0,0 UV-I 14 W/m 3,0 C 3,7 C 3,2 km/h (1 Bft) 100,00 %
16.04.2016 06:34 3,6 C 95 % 1006,8 hPa 0,0 l/m 2,5 km/h (1 Bft) S-SO 149 0 min 0,000 mm 0,0 UV-I 14 W/m 2,9 C 3,6 C 3,2 km/h (1 Bft) 100,00 %
16.04.2016 06:35 3,6 C 95 % 1006,9 hPa 0,0 l/m 2,9 km/h (1 Bft) S-SO 149 0 min 0,000 mm 0,0 UV-I 16 W/m 2,9 C 3,6 C 3,2 km/h (1 Bft) 100,00 %
16.04.2016 06:36 3,6 C 95 % 1006,9 hPa 0,0 l/m 1,8 km/h (1 Bft) S-SO 149 0 min 0,000 mm 0,0 UV-I 16 W/m 2,9 C 3,6 C 3,2 km/h (1 Bft) 95,83 %
16.04.2016 06:37 3,5 C 95 % 1006,9 hPa 0,0 l/m 1,4 km/h (1 Bft) S-SO 149 0 min 0,000 mm 0,0 UV-I 16 W/m 2,8 C 3,5 C 3,2 km/h (1 Bft) 100,00 %
16.04.2016 06:38 3,4 C 95 % 1006,9 hPa 0,0 l/m 0,6 km/h (0 Bft) S-SO 149 0 min 0,000 mm 0,0 UV-I 17 W/m 2,7 C 3,4 C 3,2 km/h (1 Bft) 96,15 %
16.04.2016 06:39 3,4 C 95 % 1006,9 hPa 0,0 l/m 0,0 km/h (0 Bft) S-SO 149 0 min 0,000 mm 0,0 UV-I 18 W/m 2,7 C 3,4 C 0,0 km/h (0 Bft) 96,30 %
16.04.2016 06:40 3,4 C 95 % 1006,8 hPa 0,0 l/m 0,0 km/h (0 Bft) S-SO 149 0 min 0,000 mm 0,0 UV-I 18 W/m 2,7 C 3,4 C 0,0 km/h (0 Bft) 100,00 %
16.04.2016 06:41 3,4 C 96 % 1006,8 hPa 0,0 l/m 0,0 km/h (0 Bft) S-SO 149 0 min 0,000 mm 0,0 UV-I 18 W/m 2,8 C 3,4 C 0,0 km/h (0 Bft) 95,83 %
16.04.2016 06:42 3,5 C 96 % 1006,9 hPa 0,0 l/m 0,0 km/h (0 Bft) S-SO 149 0 min 0,000 mm 0,0 UV-I 18 W/m 2,9 C 3,5 C 0,0 km/h (0 Bft) 100,00 %
16.04.2016 06:43 3,6 C 96 % 1006,9 hPa 0,0 l/m 1,1 km/h (1 Bft) S-SO 149 0 min 0,000 mm 0,0 UV-I 19 W/m 3,0 C 3,6 C 1,6 km/h (1 Bft) 100,00 %
16.04.2016 06:44 3,6 C 96 % 1006,9 hPa 0,0 l/m 1,5 km/h (1 Bft) S-SO 149 0 min 0,000 mm 0,0 UV-I 19 W/m 3,0 C 3,6 C 1,6 km/h (1 Bft) 100,00 %
16.04.2016 06:45 3,7 C 96 % 1006,9 hPa 0,0 l/m 1,5 km/h (1 Bft) S-SO 149 0 min 0,000 mm 0,0 UV-I 19 W/m 3,1 C 3,7 C 3,2 km/h (1 Bft) 100,00 %
16.04.2016 06:46 3,8 C 96 % 1006,9 hPa 0,0 l/m 1,1 km/h (1 Bft) S-SO 149 0 min 0,000 mm 0,0 UV-I 19 W/m 3,2 C 3,8 C 1,6 km/h (1 Bft) 100,00 %
16.04.2016 06:47 3,8 C 96 % 1006,9 hPa 0,0 l/m 0,4 km/h (0 Bft) S-SO 149 0 min 0,000 mm 0,0 UV-I 19 W/m 3,2 C 3,8 C 1,6 km/h (1 Bft) 100,00 %
16.04.2016 06:48 3,8 C 96 % 1006,9 hPa 0,0 l/m 0,0 km/h (0 Bft) S-SO 149 0 min 0,000 mm 0,0 UV-I 20 W/m 3,2 C 3,8 C 0,0 km/h (0 Bft) 100,00 %
16.04.2016 06:49 3,8 C 96 % 1006,8 hPa 0,0 l/m 0,5 km/h (0 Bft) S-SO 149 0 min 0,000 mm 0,0 UV-I 19 W/m 3,2 C 3,8 C 1,6 km/h (1 Bft) 100,00 %
16.04.2016 06:50 3,8 C 96 % 1006,8 hPa 0,0 l/m 0,0 km/h (0 Bft) S-SO 149 0 min 0,000 mm 0,0 UV-I 19 W/m 3,2 C 3,8 C 0,0 km/h (0 Bft) 95,65 %
16.04.2016 06:51 3,7 C 96 % 1006,8 hPa 0,0 l/m 0,0 km/h (0 Bft) S-SO 149 0 min 0,000 mm 0,0 UV-I 20 W/m 3,1 C 3,7 C 0,0 km/h (0 Bft) 100,00 %
16.04.2016 06:52 3,7 C 96 % 1006,8 hPa 0,0 l/m 0,0 km/h (0 Bft) S-SO 149 0 min 0,000 mm 0,0 UV-I 21 W/m 3,1 C 3,7 C 0,0 km/h (0 Bft) 100,00 %
16.04.2016 06:53 3,7 C 96 % 1006,8 hPa 0,0 l/m 0,0 km/h (0 Bft) S-SO 149 0 min 0,000 mm 0,0 UV-I 21 W/m 3,1 C 3,7 C 0,0 km/h (0 Bft) 100,00 %
16.04.2016 06:54 3,7 C 96 % 1006,8 hPa 0,0 l/m 0,0 km/h (0 Bft) S-SO 149 0 min 0,000 mm 0,0 UV-I 21 W/m 3,1 C 3,7 C 0,0 km/h (0 Bft) 100,00 %
16.04.2016 06:55 3,7 C 96 % 1006,8 hPa 0,0 l/m 0,1 km/h (0 Bft) S-SO 149 0 min 0,000 mm 0,0 UV-I 21 W/m 3,1 C 3,7 C 1,6 km/h (1 Bft) 100,00 %
16.04.2016 06:56 3,7 C 96 % 1006,8 hPa 0,0 l/m 0,0 km/h (0 Bft) S-SO 149 0 min 0,000 mm 0,0 UV-I 21 W/m 3,1 C 3,7 C 0,0 km/h (0 Bft) 100,00 %
16.04.2016 06:57 3,8 C 96 % 1006,9 hPa 0,0 l/m 0,0 km/h (0 Bft) S-SO 149 0 min 0,000 mm 0,0 UV-I 22 W/m 3,2 C 3,8 C 0,0 km/h (0 Bft) 100,00 %
16.04.2016 06:58 3,8 C 96 % 1006,9 hPa 0,0 l/m 0,6 km/h (0 Bft) S-SO 149 0 min 0,000 mm 0,0 UV-I 23 W/m 3,2 C 3,8 C 1,6 km/h (1 Bft) 100,00 %
16.04.2016 06:59 3,8 C 96 % 1006,9 hPa 0,0 l/m 1,1 km/h (1 Bft) S-SO 149 0 min 0,000 mm 0,0 UV-I 23 W/m 3,2 C 3,8 C 1,6 km/h (1 Bft) 100,00 %
16.04.2016 07:00 3,8 C 96 % 1006,9 hPa 0,0 l/m 1,5 km/h (1 Bft) S-SO 149 0 min 0,000 mm 0,0 UV-I 23 W/m 3,2 C 3,8 C 1,6 km/h (1 Bft) 100,00 %
16.04.2016 07:01 3,8 C 96 % 1006,9 hPa 0,0 l/m 1,4 km/h (1 Bft) S-SO 149 0 min 0,000 mm 0,0 UV-I 23 W/m 3,2 C 3,8 C 1,6 km/h (1 Bft) 100,00 %
16.04.2016 07:02 3,8 C 96 % 1006,9 hPa 0,0 l/m 0,9 km/h (0 Bft) S-SO 149 0 min 0,000 mm 0,0 UV-I 23 W/m 3,2 C 3,8 C 1,6 km/h (1 Bft) 100,00 %
16.04.2016 07:03 3,9 C 96 % 1006,8 hPa 0,0 l/m 0,1 km/h (0 Bft) S-SO 149 0 min 0,000 mm 0,0 UV-I 24 W/m 3,3 C 3,9 C 1,6 km/h (1 Bft) 100,00 %
16.04.2016 07:04 3,9 C 96 % 1006,8 hPa 0,0 l/m 0,0 km/h (0 Bft) S-SO 149 0 min 0,000 mm 0,0 UV-I 26 W/m 3,3 C 3,9 C 0,0 km/h (0 Bft) 100,00 %
16.04.2016 07:05 3,9 C 96 % 1006,7 hPa 0,0 l/m 0,0 km/h (0 Bft) S-SO 149 0 min 0,000 mm 0,0 UV-I 26 W/m 3,3 C 3,9 C 0,0 km/h (0 Bft) 100,00 %
16.04.2016 07:06 3,9 C 96 % 1006,7 hPa 0,0 l/m 0,0 km/h (0 Bft) S-SO 149 0 min 0,000 mm 0,0 UV-I 27 W/m 3,3 C 3,9 C 0,0 km/h (0 Bft) 100,00 %
16.04.2016 07:07 3,9 C 96 % 1006,7 hPa 0,0 l/m 0,0 km/h (0 Bft) S-SO 149 0 min 0,000 mm 0,0 UV-I 28 W/m 3,3 C 3,9 C 0,0 km/h (0 Bft) 100,00 %
16.04.2016 07:08 4,0 C 96 % 1006,7 hPa 0,0 l/m 0,0 km/h (0 Bft) S-SO 149 0 min 0,000 mm 0,0 UV-I 28 W/m 3,4 C 4,0 C 0,0 km/h (0 Bft) 100,00 %
16.04.2016 07:09 4,0 C 96 % 1006,7 hPa 0,0 l/m 0,0 km/h (0 Bft) S-SO 149 0 min 0,000 mm 0,0 UV-I 28 W/m 3,4 C 4,0 C 0,0 km/h (0 Bft) 85,71 %
16.04.2016 07:10 4,1 C 96 % 1006,6 hPa 0,0 l/m 0,0 km/h (0 Bft) S-SO 149 0 min 0,000 mm 0,0 UV-I 37 W/m 3,5 C 4,1 C 0,0 km/h (0 Bft) 100,00 %
16.04.2016 07:11 4,2 C 96 % 1006,6 hPa 0,0 l/m 0,0 km/h (0 Bft) S-SO 149 0 min 0,000 mm 0,0 UV-I 56 W/m 3,6 C 4,2 C 0,0 km/h (0 Bft) 100,00 %
16.04.2016 07:12 4,2 C 96 % 1006,6 hPa 0,0 l/m 0,0 km/h (0 Bft) S-SO 149 0 min 0,000 mm 0,0 UV-I 79 W/m 3,6 C 4,2 C 0,0 km/h (0 Bft) 100,00 %
16.04.2016 07:13 4,3 C 96 % 1006,7 hPa 0,0 l/m 0,0 km/h (0 Bft) S-SO 149 1 min 0,000 mm 0,0 UV-I 89 W/m 3,7 C 4,3 C 0,0 km/h (0 Bft) 100,00 %
16.04.2016 07:14 4,4 C 97 % 1006,7 hPa 0,0 l/m 0,0 km/h (0 Bft) S-SO 149 1 min 0,000 mm 0,0 UV-I 92 W/m 4,0 C 4,4 C 0,0 km/h (0 Bft) 100,00 %
16.04.2016 07:15 4,4 C 96 % 1006,6 hPa 0,0 l/m 0,0 km/h (0 Bft) S-SO 149 1 min 0,000 mm 0,0 UV-I 95 W/m 3,8 C 4,4 C 0,0 km/h (0 Bft) 100,00 %
16.04.2016 07:16 4,4 C 96 % 1006,6 hPa 0,0 l/m 0,0 km/h (0 Bft) S-SO 149 1 min 0,000 mm 0,0 UV-I 98 W/m 3,8 C 4,4 C 0,0 km/h (0 Bft) 100,00 %
16.04.2016 07:17 4,5 C 96 % 1006,6 hPa 0,0 l/m 0,0 km/h (0 Bft) S-SO 149 1 min 0,000 mm 0,0 UV-I 101 W/m 3,9 C 4,5 C 0,0 km/h (0 Bft) 100,00 %
16.04.2016 07:18 4,6 C 96 % 1006,6 hPa 0,0 l/m 0,0 km/h (0 Bft) S-SO 149 1 min 0,000 mm 0,0 UV-I 104 W/m 4,0 C 4,6 C 0,0 km/h (0 Bft) 100,00 %
16.04.2016 07:19 4,6 C 96 % 1006,6 hPa 0,0 l/m 0,0 km/h (0 Bft) S-SO 149 1 min 0,000 mm 0,0 UV-I 107 W/m 4,0 C 4,6 C 0,0 km/h (0 Bft) 100,00 %
16.04.2016 07:20 4,7 C 96 % 1006,6 hPa 0,0 l/m 0,0 km/h (0 Bft) S-SO 149 1 min 0,000 mm 0,0 UV-I 110 W/m 4,1 C 4,7 C 0,0 km/h (0 Bft) 100,00 %
16.04.2016 07:21 4,7 C 96 % 1006,6 hPa 0,0 l/m 0,0 km/h (0 Bft) S-SO 149 1 min 0,000 mm 0,0 UV-I 113 W/m 4,1 C 4,7 C 0,0 km/h (0 Bft) 100,00 %
16.04.2016 07:22 4,8 C 96 % 1006,5 hPa 0,0 l/m 0,0 km/h (0 Bft) S-SO 149 1 min 0,000 mm 0,0 UV-I 114 W/m 4,2 C 4,8 C 0,0 km/h (0 Bft) 100,00 %
16.04.2016 07:23 4,8 C 96 % 1006,5 hPa 0,0 l/m 0,0 km/h (0 Bft) S-SO 149 1 min 0,000 mm 0,0 UV-I 118 W/m 4,2 C 4,8 C 0,0 km/h (0 Bft) 100,00 %
16.04.2016 07:24 4,8 C 96 % 1006,5 hPa 0,0 l/m 0,0 km/h (0 Bft) S-SO 149 1 min 0,000 mm 0,0 UV-I 121 W/m 4,2 C 4,8 C 0,0 km/h (0 Bft) 100,00 %
16.04.2016 07:25 4,8 C 96 % 1006,5 hPa 0,0 l/m 0,2 km/h (0 Bft) S-SO 149 1 min 0,000 mm 0,0 UV-I 124 W/m 4,2 C 4,8 C 1,6 km/h (1 Bft) 95,83 %
16.04.2016 07:26 4,9 C 96 % 1006,5 hPa 0,0 l/m 0,8 km/h (0 Bft) S-SO 149 1 min 0,000 mm 0,0 UV-I 127 W/m 4,3 C 4,9 C 1,6 km/h (1 Bft) 100,00 %
16.04.2016 07:27 5,1 C 96 % 1006,5 hPa 0,0 l/m 0,6 km/h (0 Bft) S-SO 149 1 min 0,000 mm 0,0 UV-I 129 W/m 4,5 C 5,1 C 1,6 km/h (1 Bft) 100,00 %
16.04.2016 07:28 5,2 C 96 % 1006,5 hPa 0,0 l/m 0,6 km/h (0 Bft) S-SO 149 1 min 0,000 mm 0,0 UV-I 132 W/m 4,6 C 5,2 C 1,6 km/h (1 Bft) 100,00 %
16.04.2016 07:29 5,3 C 96 % 1006,4 hPa 0,0 l/m 2,5 km/h (1 Bft) S-SO 149 1 min 0,000 mm 0,0 UV-I 135 W/m 4,7 C 5,3 C 3,2 km/h (1 Bft) 100,00 %
16.04.2016 07:30 5,4 C 96 % 1006,4 hPa 0,0 l/m 3,1 km/h (1 Bft) S-SO 148 1 min 0,000 mm 0,0 UV-I 138 W/m 4,8 C 5,4 C 4,8 km/h (1 Bft) 96,15 %
16.04.2016 07:31 5,5 C 96 % 1006,4 hPa 0,0 l/m 2,9 km/h (1 Bft) S-SO 148 1 min 0,000 mm 0,0 UV-I 140 W/m 4,9 C 5,5 C 4,8 km/h (1 Bft) 100,00 %
16.04.2016 07:32 5,6 C 96 % 1006,4 hPa 0,0 l/m 4,1 km/h (1 Bft) O-NO 75 1 min 0,000 mm 0,0 UV-I 141 W/m 5,0 C 5,6 C 6,4 km/h (2 Bft) 100,00 %
16.04.2016 07:33 5,7 C 96 % 1006,3 hPa 0,0 l/m 4,4 km/h (1 Bft) O-NO 72 1 min 0,000 mm 0,0 UV-I 141 W/m 5,1 C 5,7 C 6,4 km/h (2 Bft) 96,55 %
16.04.2016 07:34 5,7 C 96 % 1006,3 hPa 0,0 l/m 5,2 km/h (1 Bft) O-NO 66 1 min 0,000 mm 0,0 UV-I 142 W/m 5,1 C 5,7 C 6,4 km/h (2 Bft) 100,00 %
16.04.2016 07:35 5,8 C 96 % 1006,3 hPa 0,0 l/m 5,9 km/h (2 Bft) O-NO 66 1 min 0,000 mm 0,0 UV-I 144 W/m 5,2 C 5,8 C 8,0 km/h (2 Bft) 100,00 %
16.04.2016 07:36 5,8 C 96 % 1006,3 hPa 0,0 l/m 4,4 km/h (1 Bft) O-NO 61 1 min 0,000 mm 0,0 UV-I 144 W/m 5,2 C 5,8 C 6,4 km/h (2 Bft) 95,65 %
16.04.2016 07:37 5,9 C 96 % 1006,3 hPa 0,0 l/m 5,2 km/h (1 Bft) O-NO 60 1 min 0,000 mm 0,0 UV-I 145 W/m 5,3 C 5,9 C 8,0 km/h (2 Bft) 100,00 %
16.04.2016 07:38 6,0 C 95 % 1006,3 hPa 0,0 l/m 5,5 km/h (1 Bft) NO 55 1 min 0,000 mm 0,0 UV-I 146 W/m 5,3 C 6,0 C 6,4 km/h (2 Bft) 100,00 %
16.04.2016 07:39 6,0 C 95 % 1006,3 hPa 0,0 l/m 4,8 km/h (1 Bft) NO 55 1 min 0,000 mm 0,0 UV-I 146 W/m 5,3 C 6,0 C 6,4 km/h (2 Bft) 100,00 %
16.04.2016 07:40 6,1 C 96 % 1006,3 hPa 0,0 l/m 5,2 km/h (1 Bft) NO 55 1 min 0,000 mm 0,0 UV-I 146 W/m 5,5 C 6,1 C 6,4 km/h (2 Bft) 100,00 %
16.04.2016 07:41 6,2 C 96 % 1006,3 hPa 0,0 l/m 2,9 km/h (1 Bft) NO 55 1 min 0,000 mm 0,0 UV-I 147 W/m 5,6 C 6,2 C 4,8 km/h (1 Bft) 100,00 %
16.04.2016 07:42 6,3 C 96 % 1006,3 hPa 0,0 l/m 4,3 km/h (1 Bft) NO 47 1 min 0,000 mm 0,0 UV-I 148 W/m 5,7 C 6,3 C 4,8 km/h (1 Bft) 100,00 %
16.04.2016 07:43 6,3 C 95 % 1006,3 hPa 0,0 l/m 2,3 km/h (1 Bft) NO 47 1 min 0,000 mm 0,0 UV-I 148 W/m 5,6 C 6,3 C 3,2 km/h (1 Bft) 100,00 %
16.04.2016 07:44 6,4 C 96 % 1006,3 hPa 0,0 l/m 2,2 km/h (1 Bft) NO 47 1 min 0,000 mm 0,0 UV-I 150 W/m 5,8 C 6,4 C 3,2 km/h (1 Bft) 100,00 %
16.04.2016 07:45 6,4 C 95 % 1006,3 hPa 0,0 l/m 1,0 km/h (0 Bft) NO 47 1 min 0,000 mm 0,0 UV-I 153 W/m 5,7 C 6,4 C 3,2 km/h (1 Bft) 100,00 %
16.04.2016 07:46 6,5 C 95 % 1006,3 hPa 0,0 l/m 2,4 km/h (1 Bft) NO 47 1 min 0,000 mm 0,0 UV-I 156 W/m 5,8 C 6,5 C 4,8 km/h (1 Bft) 100,00 %
16.04.2016 07:47 6,5 C 95 % 1006,3 hPa 0,0 l/m 3,5 km/h (1 Bft) NO 46 1 min 0,000 mm 0,0 UV-I 159 W/m 5,8 C 6,5 C 4,8 km/h (1 Bft) 100,00 %
16.04.2016 07:48 6,6 C 95 % 1006,3 hPa 0,0 l/m 3,6 km/h (1 Bft) NO 46 1 min 0,000 mm 0,0 UV-I 164 W/m 5,9 C 6,6 C 4,8 km/h (1 Bft) 100,00 %
16.04.2016 07:49 6,6 C 95 % 1006,3 hPa 0,0 l/m 3,1 km/h (1 Bft) NO 46 1 min 0,000 mm 0,0 UV-I 168 W/m 5,9 C 6,6 C 3,2 km/h (1 Bft) 98,48 %
16.04.2016 07:50 6,7 C 95 % 1006,3 hPa 0,0 l/m 3,9 km/h (1 Bft) NO 46 1 min 0,000 mm 0,0 UV-I 173 W/m 6,0 C 6,7 C 4,8 km/h (1 Bft) 100,00 %
16.04.2016 07:51 6,7 C 95 % 1006,3 hPa 0,0 l/m 4,7 km/h (1 Bft) NO 46 1 min 0,000 mm 0,0 UV-I 179 W/m 6,0 C 6,7 C 4,8 km/h (1 Bft) 100,00 %
16.04.2016 07:52 6,8 C 95 % 1006,3 hPa 0,0 l/m 4,4 km/h (1 Bft) NO 47 1 min 0,000 mm 0,0 UV-I 186 W/m 6,1 C 6,8 C 4,8 km/h (1 Bft) 100,00 %
16.04.2016 07:53 6,8 C 94 % 1006,2 hPa 0,0 l/m 4,4 km/h (1 Bft) NO 46 1 min 0,000 mm 0,0 UV-I 192 W/m 5,9 C 6,8 C 6,4 km/h (2 Bft) 100,00 %
16.04.2016 07:54 6,9 C 94 % 1006,3 hPa 0,0 l/m 4,1 km/h (1 Bft) NO 46 1 min 0,000 mm 0,0 UV-I 200 W/m 6,0 C 6,9 C 6,4 km/h (2 Bft) 100,00 %
16.04.2016 07:55 6,9 C 94 % 1006,3 hPa 0,0 l/m 4,4 km/h (1 Bft) NO 47 1 min 0,000 mm 0,0 UV-I 205 W/m 6,0 C 6,9 C 4,8 km/h (1 Bft) 100,00 %
16.04.2016 07:56 7,0 C 94 % 1006,3 hPa 0,0 l/m 4,0 km/h (1 Bft) NO 46 1 min 0,000 mm 0,0 UV-I 201 W/m 6,1 C 7,0 C 4,8 km/h (1 Bft) 100,00 %
16.04.2016 07:57 7,0 C 94 % 1006,3 hPa 0,0 l/m 4,6 km/h (1 Bft) NO 46 1 min 0,000 mm 0,0 UV-I 170 W/m 6,1 C 7,0 C 4,8 km/h (1 Bft) 95,65 %
16.04.2016 07:58 7,1 C 94 % 1006,3 hPa 0,0 l/m 3,9 km/h (1 Bft) NO 46 1 min 0,000 mm 0,0 UV-I 221 W/m 6,2 C 7,1 C 4,8 km/h (1 Bft) 95,83 %
16.04.2016 07:59 7,2 C 94 % 1006,3 hPa 0,0 l/m 3,5 km/h (1 Bft) NO 46 1 min 0,000 mm 0,0 UV-I 224 W/m 6,3 C 7,2 C 4,8 km/h (1 Bft) 100,00 %
16.04.2016 08:00 7,2 C 93 % 1006,3 hPa 0,0 l/m 3,3 km/h (1 Bft) NO 46 1 min 0,000 mm 0,0 UV-I 226 W/m 6,1 C 7,2 C 4,8 km/h (1 Bft) 100,00 %
16.04.2016 08:01 7,3 C 93 % 1006,3 hPa 0,0 l/m 4,1 km/h (1 Bft) NO 46 1 min 0,051 mm 0,0 UV-I 228 W/m 6,2 C 7,3 C 4,8 km/h (1 Bft) 100,00 %
16.04.2016 08:02 7,3 C 94 % 1006,3 hPa 0,0 l/m 2,6 km/h (1 Bft) NO 46 1 min 0,000 mm 0,0 UV-I 230 W/m 6,4 C 7,3 C 3,2 km/h (1 Bft) 100,00 %
16.04.2016 08:03 7,4 C 93 % 1006,3 hPa 0,0 l/m 4,0 km/h (1 Bft) NO 46 1 min 0,000 mm 0,0 UV-I 232 W/m 6,3 C 7,4 C 6,4 km/h (2 Bft) 100,00 %
16.04.2016 08:04 7,4 C 93 % 1006,3 hPa 0,0 l/m 3,2 km/h (1 Bft) NO 44 1 min 0,000 mm 0,0 UV-I 234 W/m 6,3 C 7,4 C 6,4 km/h (2 Bft) 100,00 %
16.04.2016 08:05 7,5 C 93 % 1006,3 hPa 0,0 l/m 5,2 km/h (1 Bft) NO 49 1 min 0,000 mm 0,0 UV-I 235 W/m 6,4 C 7,5 C 6,4 km/h (2 Bft) 100,00 %
16.04.2016 08:06 7,5 C 93 % 1006,2 hPa 0,0 l/m 5,2 km/h (1 Bft) NO 44 1 min 0,000 mm 0,0 UV-I 236 W/m 6,4 C 7,5 C 6,4 km/h (2 Bft) 100,00 %
16.04.2016 08:07 7,6 C 93 % 1006,2 hPa 0,0 l/m 4,0 km/h (1 Bft) NO 44 1 min 0,000 mm 0,0 UV-I 236 W/m 6,5 C 7,6 C 4,8 km/h (1 Bft) 100,00 %
16.04.2016 08:08 7,6 C 92 % 1006,2 hPa 0,0 l/m 3,3 km/h (1 Bft) NO 44 1 min 0,000 mm 0,4 UV-I 236 W/m 6,4 C 7,6 C 4,8 km/h (1 Bft) 100,00 %
16.04.2016 08:09 7,6 C 93 % 1006,2 hPa 0,0 l/m 3,0 km/h (1 Bft) N-NO 32 1 min 0,000 mm 0,5 UV-I 237 W/m 6,5 C 7,6 C 6,4 km/h (2 Bft) 100,00 %
16.04.2016 08:10 7,7 C 93 % 1006,2 hPa 0,0 l/m 2,5 km/h (1 Bft) N-NO 24 1 min 0,000 mm 0,5 UV-I 237 W/m 6,6 C 7,7 C 4,8 km/h (1 Bft) 100,00 %
16.04.2016 08:11 7,7 C 92 % 1006,3 hPa 0,0 l/m 2,8 km/h (1 Bft) N-NO 22 1 min 0,000 mm 0,5 UV-I 237 W/m 6,5 C 7,7 C 4,8 km/h (1 Bft) 100,00 %
16.04.2016 08:12 7,7 C 92 % 1006,2 hPa 0,0 l/m 6,2 km/h (2 Bft) N-NO 28 1 min 0,000 mm 0,5 UV-I 238 W/m 6,5 C 7,7 C 8,0 km/h (2 Bft) 100,00 %
16.04.2016 08:13 7,7 C 92 % 1006,2 hPa 0,0 l/m 5,4 km/h (1 Bft) N-NO 23 1 min 0,000 mm 0,5 UV-I 239 W/m 6,5 C 7,7 C 8,0 km/h (2 Bft) 100,00 %
16.04.2016 08:14 7,7 C 92 % 1006,2 hPa 0,0 l/m 5,1 km/h (1 Bft) N-NO 32 1 min 0,000 mm 0,5 UV-I 239 W/m 6,5 C 7,7 C 6,4 km/h (2 Bft) 96,15 %
16.04.2016 08:15 7,7 C 92 % 1006,1 hPa 0,0 l/m 5,0 km/h (1 Bft) N-NO 26 1 min 0,000 mm 0,5 UV-I 237 W/m 6,5 C 7,7 C 8,0 km/h (2 Bft) 100,00 %
16.04.2016 08:16 7,8 C 92 % 1006,1 hPa 0,0 l/m 6,1 km/h (2 Bft) NO 34 1 min 0,000 mm 0,5 UV-I 234 W/m 6,6 C 7,8 C 8,0 km/h (2 Bft) 96,88 %
16.04.2016 08:17 7,8 C 92 % 1006,1 hPa 0,0 l/m 6,1 km/h (2 Bft) NO 42 1 min 0,000 mm 0,5 UV-I 231 W/m 6,6 C 7,8 C 8,0 km/h (2 Bft) 100,00 %
16.04.2016 08:18 7,8 C 92 % 1006,1 hPa 0,0 l/m 6,0 km/h (2 Bft) NO 45 1 min 0,000 mm 0,5 UV-I 226 W/m 6,6 C 7,8 C 8,0 km/h (2 Bft) 98,58 %
16.04.2016 08:19 7,8 C 92 % 1006,1 hPa 0,0 l/m 6,2 km/h (2 Bft) NO 48 1 min 0,000 mm 0,6 UV-I 220 W/m 6,6 C 7,8 C 6,4 km/h (2 Bft) 97,37 %
16.04.2016 08:20 7,9 C 92 % 1006,1 hPa 0,0 l/m 6,0 km/h (2 Bft) NO 47 1 min 0,000 mm 0,6 UV-I 214 W/m 6,7 C 7,9 C 6,4 km/h (2 Bft) 96,30 %
16.04.2016 08:21 7,9 C 92 % 1006,1 hPa 0,0 l/m 5,7 km/h (1 Bft) NO 39 1 min 0,000 mm 0,6 UV-I 209 W/m 6,7 C 7,9 C 8,0 km/h (2 Bft) 100,00 %
16.04.2016 08:22 7,9 C 92 % 1006,0 hPa 0,0 l/m 5,6 km/h (1 Bft) NO 42 1 min 0,000 mm 0,6 UV-I 205 W/m 6,7 C 7,9 C 6,4 km/h (2 Bft) 95,83 %
16.04.2016 08:23 8,0 C 92 % 1006,0 hPa 0,0 l/m 6,8 km/h (2 Bft) NO 46 1 min 0,000 mm 0,6 UV-I 200 W/m 6,8 C 7,7 C 8,0 km/h (2 Bft) 96,55 %
16.04.2016 08:24 8,1 C 92 % 1005,9 hPa 0,0 l/m 6,0 km/h (2 Bft) N-NO 33 0 min 0,000 mm 0,6 UV-I 196 W/m 6,9 C 8,1 C 8,0 km/h (2 Bft) 100,00 %
16.04.2016 08:25 8,1 C 91 % 1006,0 hPa 0,0 l/m 6,1 km/h (2 Bft) NO 54 0 min 0,000 mm 0,6 UV-I 189 W/m 6,7 C 8,1 C 8,0 km/h (2 Bft) 96,15 %
16.04.2016 08:26 8,1 C 91 % 1005,9 hPa 0,0 l/m 4,5 km/h (1 Bft) N-NO 32 0 min 0,000 mm 0,6 UV-I 188 W/m 6,7 C 8,1 C 6,4 km/h (2 Bft) 100,00 %
16.04.2016 08:27 8,2 C 91 % 1005,9 hPa 0,0 l/m 4,7 km/h (1 Bft) N-NO 30 0 min 0,000 mm 0,6 UV-I 188 W/m 6,8 C 8,2 C 8,0 km/h (2 Bft) 95,65 %
16.04.2016 08:28 8,2 C 91 % 1005,9 hPa 0,0 l/m 5,8 km/h (2 Bft) N-NO 25 0 min 0,000 mm 0,7 UV-I 189 W/m 6,8 C 8,2 C 9,7 km/h (2 Bft) 100,00 %
16.04.2016 08:29 8,3 C 91 % 1005,9 hPa 0,0 l/m 7,6 km/h (2 Bft) NO 44 0 min 0,000 mm 0,7 UV-I 194 W/m 6,9 C 7,4 C 8,0 km/h (2 Bft) 92,86 %
16.04.2016 08:30 8,3 C 92 % 1005,9 hPa 0,0 l/m 6,5 km/h (2 Bft) O-NO 73 0 min 0,000 mm 0,7 UV-I 198 W/m 7,1 C 8,2 C 8,0 km/h (2 Bft) 100,00 %
16.04.2016 08:31 8,4 C 90 % 1005,8 hPa 0,0 l/m 6,8 km/h (2 Bft) O-NO 70 0 min 0,000 mm 0,7 UV-I 203 W/m 6,9 C 8,1 C 9,7 km/h (2 Bft) 96,55 %
16.04.2016 08:32 8,3 C 89 % 1005,8 hPa 0,0 l/m 8,0 km/h (2 Bft) O-NO 59 1 min 0,000 mm 0,7 UV-I 209 W/m 6,6 C 7,1 C 9,7 km/h (2 Bft) 100,00 %
16.04.2016 08:33 8,3 C 89 % 1005,8 hPa 0,0 l/m 7,3 km/h (2 Bft) O-NO 70 1 min 0,000 mm 0,7 UV-I 217 W/m 6,6 C 7,6 C 12,9 km/h (3 Bft) 95,65 %
16.04.2016 08:34 8,3 C 89 % 1005,9 hPa 0,0 l/m 7,8 km/h (2 Bft) O-NO 70 1 min 0,000 mm 0,7 UV-I 225 W/m 6,6 C 7,2 C 9,7 km/h (2 Bft) 96,30 %
16.04.2016 08:35 8,3 C 88 % 1005,9 hPa 0,0 l/m 8,7 km/h (2 Bft) O-NO 69 1 min 0,000 mm 0,7 UV-I 233 W/m 6,4 C 6,6 C 11,3 km/h (2 Bft) 100,00 %
16.04.2016 08:36 8,3 C 88 % 1005,9 hPa 0,0 l/m 8,4 km/h (2 Bft) O-NO 72 1 min 0,000 mm 0,7 UV-I 241 W/m 6,4 C 6,8 C 9,7 km/h (2 Bft) 93,33 %
16.04.2016 08:37 8,3 C 89 % 1005,9 hPa 0,0 l/m 6,8 km/h (2 Bft) NO 51 1 min 0,000 mm 0,8 UV-I 249 W/m 6,6 C 8,0 C 8,0 km/h (2 Bft) 96,55 %
16.04.2016 08:38 8,4 C 88 % 1005,9 hPa 0,0 l/m 7,1 km/h (2 Bft) O-NO 75 1 min 0,000 mm 0,8 UV-I 258 W/m 6,5 C 7,9 C 9,7 km/h (2 Bft) 91,67 %
16.04.2016 08:39 8,4 C 89 % 1005,9 hPa 0,0 l/m 6,3 km/h (2 Bft) O-NO 76 1 min 0,000 mm 0,8 UV-I 265 W/m 6,7 C 8,4 C 8,0 km/h (2 Bft) 96,30 %
16.04.2016 08:40 8,4 C 88 % 1005,9 hPa 0,0 l/m 8,0 km/h (2 Bft) O-NO 63 1 min 0,000 mm 0,8 UV-I 275 W/m 6,5 C 7,2 C 11,3 km/h (2 Bft) 96,55 %
16.04.2016 08:41 8,5 C 88 % 1005,9 hPa 0,0 l/m 6,3 km/h (2 Bft) O-NO 67 1 min 0,000 mm 0,8 UV-I 282 W/m 6,6 C 8,5 C 8,0 km/h (2 Bft) 95,83 %
16.04.2016 08:42 8,5 C 88 % 1005,9 hPa 0,0 l/m 5,2 km/h (1 Bft) O-NO 71 1 min 0,000 mm 0,8 UV-I 290 W/m 6,6 C 8,5 C 8,0 km/h (2 Bft) 96,55 %
16.04.2016 08:43 8,6 C 88 % 1005,8 hPa 0,0 l/m 8,2 km/h (2 Bft) O-NO 64 1 min 0,000 mm 0,8 UV-I 298 W/m 6,7 C 7,2 C 11,3 km/h (2 Bft) 93,33 %
16.04.2016 08:44 8,7 C 88 % 1005,8 hPa 0,0 l/m 6,8 km/h (2 Bft) O 80 1 min 0,000 mm 0,8 UV-I 302 W/m 6,8 C 8,4 C 11,3 km/h (2 Bft) 100,00 %
16.04.2016 08:45 8,7 C 88 % 1005,8 hPa 0,0 l/m 6,0 km/h (2 Bft) N-NO 26 1 min 0,000 mm 0,9 UV-I 310 W/m 6,8 C 8,7 C 11,3 km/h (2 Bft) 100,00 %
16.04.2016 08:46 8,7 C 88 % 1005,8 hPa 0,0 l/m 4,9 km/h (1 Bft) NO 55 1 min 0,000 mm 0,9 UV-I 315 W/m 6,8 C 8,7 C 6,4 km/h (2 Bft) 100,00 %
16.04.2016 08:47 8,8 C 88 % 1005,8 hPa 0,0 l/m 4,4 km/h (1 Bft) NO 48 1 min 0,000 mm 0,9 UV-I 320 W/m 6,9 C 8,8 C 8,0 km/h (2 Bft) 96,67 %
16.04.2016 08:48 8,9 C 87 % 1005,8 hPa 0,0 l/m 5,9 km/h (2 Bft) NO 50 1 min 0,000 mm 0,9 UV-I 328 W/m 6,9 C 8,9 C 11,3 km/h (2 Bft) 100,00 %
16.04.2016 08:49 8,9 C 87 % 1005,8 hPa 0,0 l/m 7,4 km/h (2 Bft) NO 46 1 min 0,000 mm 0,9 UV-I 333 W/m 6,9 C 8,1 C 9,7 km/h (2 Bft) 100,00 %
16.04.2016 08:50 9,0 C 86 % 1005,8 hPa 0,0 l/m 6,5 km/h (2 Bft) NO 54 1 min 0,000 mm 0,9 UV-I 340 W/m 6,8 C 9,0 C 8,0 km/h (2 Bft) 96,15 %
16.04.2016 08:51 9,1 C 86 % 1005,8 hPa 0,0 l/m 4,0 km/h (1 Bft) O-NO 62 1 min 0,000 mm 0,9 UV-I 343 W/m 6,9 C 9,1 C 6,4 km/h (2 Bft) 100,00 %
16.04.2016 08:52 9,1 C 87 % 1005,9 hPa 0,0 l/m 6,1 km/h (2 Bft) O 92 1 min 0,000 mm 0,9 UV-I 340 W/m 7,1 C 9,1 C 9,7 km/h (2 Bft) 96,15 %
16.04.2016 08:53 9,2 C 86 % 1005,8 hPa 0,0 l/m 7,8 km/h (2 Bft) O-NO 72 1 min 0,000 mm 0,9 UV-I 351 W/m 7,0 C 8,2 C 11,3 km/h (2 Bft) 100,00 %
16.04.2016 08:54 9,2 C 85 % 1005,8 hPa 0,0 l/m 6,3 km/h (2 Bft) O-NO 64 1 min 0,000 mm 1,0 UV-I 354 W/m 6,8 C 9,2 C 8,0 km/h (2 Bft) 100,00 %
16.04.2016 08:55 9,2 C 85 % 1005,8 hPa 0,0 l/m 4,3 km/h (1 Bft) O-NO 59 1 min 0,000 mm 1,0 UV-I 361 W/m 6,8 C 9,2 C 6,4 km/h (2 Bft) 100,00 %
16.04.2016 08:56 9,2 C 86 % 1005,8 hPa 0,0 l/m 5,9 km/h (2 Bft) O-NO 57 1 min 0,000 mm 1,0 UV-I 367 W/m 7,0 C 9,2 C 8,0 km/h (2 Bft) 100,00 %
16.04.2016 08:57 9,3 C 86 % 1005,7 hPa 0,0 l/m 5,8 km/h (2 Bft) NO 53 1 min 0,000 mm 1,0 UV-I 379 W/m 7,1 C 9,3 C 8,0 km/h (2 Bft) 96,55 %
16.04.2016 08:58 9,3 C 86 % 1005,8 hPa 0,0 l/m 4,4 km/h (1 Bft) NO 53 1 min 0,000 mm 1,0 UV-I 381 W/m 7,1 C 9,3 C 6,4 km/h (2 Bft) 100,00 %
16.04.2016 08:59 9,4 C 86 % 1005,7 hPa 0,0 l/m 3,4 km/h (1 Bft) NO 49 1 min 0,000 mm 1,0 UV-I 385 W/m 7,2 C 9,4 C 4,8 km/h (1 Bft) 100,00 %
16.04.2016 09:00 9,4 C 86 % 1005,7 hPa 0,0 l/m 6,0 km/h (2 Bft) O 88 1 min 0,127 mm 1,1 UV-I 390 W/m 7,2 C 9,4 C 9,7 km/h (2 Bft) 100,00 %
16.04.2016 09:01 9,5 C 86 % 1005,7 hPa 0,0 l/m 6,1 km/h (2 Bft) NO 45 1 min 0,000 mm 1,1 UV-I 392 W/m 7,3 C 9,5 C 8,0 km/h (2 Bft) 100,00 %
16.04.2016 09:02 9,6 C 86 % 1005,6 hPa 0,0 l/m 3,4 km/h (1 Bft) NO 37 1 min 0,000 mm 1,1 UV-I 396 W/m 7,4 C 9,6 C 6,4 km/h (2 Bft) 100,00 %
16.04.2016 09:03 9,6 C 87 % 1005,6 hPa 0,0 l/m 1,1 km/h (1 Bft) N-NO 28 1 min 0,000 mm 1,1 UV-I 398 W/m 7,5 C 9,6 C 1,6 km/h (1 Bft) 100,00 %
16.04.2016 09:04 9,7 C 86 % 1005,6 hPa 0,0 l/m 4,4 km/h (1 Bft) N-NO 14 1 min 0,000 mm 1,1 UV-I 401 W/m 7,5 C 9,7 C 6,4 km/h (2 Bft) 100,00 %
16.04.2016 09:05 9,7 C 87 % 1005,6 hPa 0,0 l/m 5,3 km/h (1 Bft) N-NO 24 1 min 0,000 mm 1,1 UV-I 403 W/m 7,6 C 9,7 C 8,0 km/h (2 Bft) 100,00 %
16.04.2016 09:06 9,7 C 87 % 1005,6 hPa 0,0 l/m 4,9 km/h (1 Bft) N-NO 28 1 min 0,000 mm 1,1 UV-I 406 W/m 7,6 C 9,7 C 6,4 km/h (2 Bft) 96,30 %
16.04.2016 09:07 9,7 C 88 % 1005,6 hPa 0,0 l/m 3,1 km/h (1 Bft) N-NO 28 1 min 0,000 mm 1,2 UV-I 409 W/m 7,8 C 9,7 C 4,8 km/h (1 Bft) 100,00 %
16.04.2016 09:08 9,7 C 86 % 1005,5 hPa 0,0 l/m 2,8 km/h (1 Bft) N-NO 15 1 min 0,000 mm 1,2 UV-I 410 W/m 7,5 C 9,7 C 4,8 km/h (1 Bft) 100,00 %
16.04.2016 09:09 9,7 C 85 % 1005,5 hPa 0,0 l/m 3,9 km/h (1 Bft) NO 56 1 min 0,000 mm 1,2 UV-I 414 W/m 7,3 C 9,7 C 6,4 km/h (2 Bft) 95,65 %
16.04.2016 09:10 9,7 C 86 % 1005,5 hPa 0,0 l/m 4,8 km/h (1 Bft) O-NO 61 1 min 0,000 mm 1,2 UV-I 416 W/m 7,5 C 9,7 C 6,4 km/h (2 Bft) 100,00 %
16.04.2016 09:11 9,7 C 86 % 1005,5 hPa 0,0 l/m 6,3 km/h (2 Bft) NO 37 1 min 0,000 mm 1,2 UV-I 419 W/m 7,5 C 9,7 C 9,7 km/h (2 Bft) 100,00 %
16.04.2016 09:12 9,8 C 86 % 1005,5 hPa 0,0 l/m 5,1 km/h (1 Bft) NO 34 1 min 0,000 mm 1,2 UV-I 420 W/m 7,6 C 9,8 C 8,0 km/h (2 Bft) 100,00 %
16.04.2016 09:13 9,8 C 86 % 1005,4 hPa 0,0 l/m 5,2 km/h (1 Bft) NO 50 1 min 0,000 mm 1,2 UV-I 424 W/m 7,6 C 9,8 C 6,4 km/h (2 Bft) 100,00 %
16.04.2016 09:14 9,9 C 86 % 1005,4 hPa 0,0 l/m 4,0 km/h (1 Bft) NO 50 1 min 0,000 mm 1,3 UV-I 427 W/m 7,7 C 9,9 C 4,8 km/h (1 Bft) 100,00 %
16.04.2016 09:15 9,9 C 87 % 1005,5 hPa 0,0 l/m 4,6 km/h (1 Bft) NO 53 1 min 0,000 mm 1,3 UV-I 430 W/m 7,8 C 9,9 C 6,4 km/h (2 Bft) 95,65 %
16.04.2016 09:16 10,0 C 86 % 1005,5 hPa 0,0 l/m 6,4 km/h (2 Bft) NO 54 1 min 0,000 mm 1,3 UV-I 431 W/m 7,8 C 10,0 C 8,0 km/h (2 Bft) 96,30 %
16.04.2016 09:17 10,1 C 86 % 1005,4 hPa 0,0 l/m 7,2 km/h (2 Bft) NO 39 1 min 0,000 mm 1,3 UV-I 434 W/m 7,9 C 9,5 C 8,0 km/h (2 Bft) 100,00 %
16.04.2016 09:18 10,2 C 87 % 1005,5 hPa 0,0 l/m 5,8 km/h (2 Bft) N-NO 33 1 min 0,000 mm 1,3 UV-I 436 W/m 8,1 C 10,2 C 8,0 km/h (2 Bft) 100,00 %
16.04.2016 09:19 10,2 C 87 % 1005,4 hPa 0,0 l/m 2,2 km/h (1 Bft) N-NO 33 1 min 0,000 mm 1,3 UV-I 441 W/m 8,1 C 10,2 C 4,8 km/h (1 Bft) 100,00 %
16.04.2016 09:20 10,3 C 86 % 1005,4 hPa 0,0 l/m 3,4 km/h (1 Bft) N-NO 33 1 min 0,000 mm 1,3 UV-I 443 W/m 8,1 C 10,3 C 4,8 km/h (1 Bft) 100,00 %
16.04.2016 09:21 10,3 C 87 % 1005,4 hPa 0,0 l/m 4,3 km/h (1 Bft) O-NO 60 1 min 0,000 mm 1,4 UV-I 445 W/m 8,2 C 10,3 C 6,4 km/h (2 Bft) 100,00 %
16.04.2016 09:22 10,4 C 85 % 1005,4 hPa 0,0 l/m 5,0 km/h (1 Bft) NO 54 1 min 0,000 mm 1,4 UV-I 447 W/m 8,0 C 10,4 C 6,4 km/h (2 Bft) 95,65 %
16.04.2016 09:23 10,4 C 84 % 1005,4 hPa 0,0 l/m 3,5 km/h (1 Bft) NO 40 1 min 0,000 mm 1,4 UV-I 449 W/m 7,8 C 10,4 C 6,4 km/h (2 Bft) 100,00 %
16.04.2016 09:24 10,4 C 85 % 1005,4 hPa 0,0 l/m 2,0 km/h (1 Bft) NO 40 1 min 0,000 mm 1,4 UV-I 453 W/m 8,0 C 10,4 C 3,2 km/h (1 Bft) 100,00 %
16.04.2016 09:25 10,4 C 84 % 1005,4 hPa 0,0 l/m 4,2 km/h (1 Bft) NO 53 1 min 0,000 mm 1,4 UV-I 457 W/m 7,8 C 10,4 C 6,4 km/h (2 Bft) 100,00 %
16.04.2016 09:26 10,4 C 85 % 1005,4 hPa 0,0 l/m 4,8 km/h (1 Bft) NO 44 1 min 0,000 mm 1,4 UV-I 457 W/m 8,0 C 10,4 C 6,4 km/h (2 Bft) 100,00 %
16.04.2016 09:27 10,4 C 85 % 1005,3 hPa 0,0 l/m 3,4 km/h (1 Bft) NO 44 1 min 0,000 mm 1,4 UV-I 460 W/m 8,0 C 10,4 C 4,8 km/h (1 Bft) 100,00 %
16.04.2016 09:28 10,4 C 86 % 1005,3 hPa 0,0 l/m 4,8 km/h (1 Bft) N-NO 29 1 min 0,000 mm 1,5 UV-I 462 W/m 8,2 C 10,4 C 6,4 km/h (2 Bft) 100,00 %
16.04.2016 09:29 10,5 C 86 % 1005,3 hPa 0,0 l/m 1,3 km/h (1 Bft) N 5 1 min 0,000 mm 1,5 UV-I 467 W/m 8,3 C 10,5 C 3,2 km/h (1 Bft) 100,00 %
16.04.2016 09:30 10,4 C 85 % 1005,2 hPa 0,0 l/m 0,9 km/h (0 Bft) N-NW 343 1 min 0,000 mm 1,5 UV-I 469 W/m 8,0 C 10,4 C 1,6 km/h (1 Bft) 100,00 %
16.04.2016 09:31 10,5 C 86 % 1005,2 hPa 0,0 l/m 0,9 km/h (0 Bft) N-NW 341 1 min 0,000 mm 1,5 UV-I 473 W/m 8,3 C 10,5 C 1,6 km/h (1 Bft) 100,00 %
16.04.2016 09:32 10,6 C 87 % 1005,2 hPa 0,0 l/m 4,7 km/h (1 Bft) NO 41 1 min 0,000 mm 1,5 UV-I 476 W/m 8,5 C 10,6 C 8,0 km/h (2 Bft) 100,00 %
16.04.2016 09:33 10,6 C 86 % 1005,2 hPa 0,0 l/m 2,6 km/h (1 Bft) NO 40 1 min 0,000 mm 1,6 UV-I 479 W/m 8,4 C 10,6 C 4,8 km/h (1 Bft) 100,00 %
16.04.2016 09:34 10,6 C 86 % 1005,3 hPa 0,0 l/m 2,4 km/h (1 Bft) N-NO 31 1 min 0,000 mm 1,6 UV-I 481 W/m 8,4 C 10,6 C 6,4 km/h (2 Bft) 100,00 %
16.04.2016 09:35 10,7 C 85 % 1005,2 hPa 0,0 l/m 3,7 km/h (1 Bft) NO 36 1 min 0,000 mm 1,6 UV-I 483 W/m 8,3 C 10,7 C 4,8 km/h (1 Bft) 100,00 %
16.04.2016 09:36 10,7 C 85 % 1005,3 hPa 0,0 l/m 3,1 km/h (1 Bft) NO 37 1 min 0,000 mm 1,6 UV-I 486 W/m 8,3 C 10,7 C 6,4 km/h (2 Bft) 100,00 %
16.04.2016 09:37 10,8 C 87 % 1005,3 hPa 0,0 l/m 1,9 km/h (1 Bft) N-NO 19 1 min 0,000 mm 1,6 UV-I 489 W/m 8,7 C 10,8 C 4,8 km/h (1 Bft) 100,00 %
16.04.2016 09:38 10,9 C 86 % 1005,2 hPa 0,0 l/m 4,2 km/h (1 Bft) NO 52 1 min 0,000 mm 1,6 UV-I 493 W/m 8,7 C 10,9 C 8,0 km/h (2 Bft) 100,00 %
16.04.2016 09:39 11,0 C 87 % 1005,2 hPa 0,0 l/m 8,4 km/h (2 Bft) NO 46 1 min 0,000 mm 1,7 UV-I 494 W/m 8,9 C 9,6 C 9,7 km/h (2 Bft) 100,00 %
16.04.2016 09:40 11,1 C 83 % 1005,2 hPa 0,0 l/m 6,9 km/h (2 Bft) O-NO 63 1 min 0,000 mm 1,7 UV-I 496 W/m 8,3 C 10,8 C 11,3 km/h (2 Bft) 100,00 %
16.04.2016 09:41 11,2 C 82 % 1005,2 hPa 0,0 l/m 5,4 km/h (1 Bft) N-NO 28 1 min 0,000 mm 1,7 UV-I 498 W/m 8,2 C 11,2 C 8,0 km/h (2 Bft) 100,00 %
16.04.2016 09:42 11,3 C 83 % 1005,2 hPa 0,0 l/m 5,4 km/h (1 Bft) NO 53 1 min 0,000 mm 1,7 UV-I 503 W/m 8,5 C 11,3 C 6,4 km/h (2 Bft) 100,00 %
16.04.2016 09:43 11,4 C 83 % 1005,2 hPa 0,0 l/m 5,9 km/h (2 Bft) N-NO 19 1 min 0,000 mm 1,7 UV-I 504 W/m 8,6 C 11,4 C 8,0 km/h (2 Bft) 96,55 %
16.04.2016 09:44 11,5 C 82 % 1005,1 hPa 0,0 l/m 4,0 km/h (1 Bft) O-NO 60 1 min 0,000 mm 1,7 UV-I 506 W/m 8,5 C 11,5 C 6,4 km/h (2 Bft) 100,00 %
16.04.2016 09:45 11,6 C 81 % 1005,1 hPa 0,0 l/m 8,5 km/h (2 Bft) NO 40 1 min 0,000 mm 1,8 UV-I 509 W/m 8,5 C 10,2 C 12,9 km/h (3 Bft) 100,00 %
16.04.2016 09:46 11,6 C 81 % 1005,2 hPa 0,0 l/m 8,4 km/h (2 Bft) O-NO 62 1 min 0,000 mm 1,8 UV-I 514 W/m 8,5 C 10,3 C 14,5 km/h (3 Bft) 100,00 %
16.04.2016 09:47 11,7 C 80 % 1005,1 hPa 0,0 l/m 11,6 km/h (2 Bft) O-NO 61 1 min 0,000 mm 1,8 UV-I 517 W/m 8,4 C 8,7 C 14,5 km/h (3 Bft) 100,00 %
16.04.2016 09:48 11,7 C 79 % 1005,1 hPa 0,0 l/m 5,9 km/h (2 Bft) NO 44 1 min 0,000 mm 1,8 UV-I 519 W/m 8,2 C 11,7 C 9,7 km/h (2 Bft) 100,00 %
16.04.2016 09:49 11,7 C 80 % 1005,1 hPa 0,0 l/m 9,8 km/h (2 Bft) O-NO 63 1 min 0,000 mm 1,8 UV-I 520 W/m 8,4 C 9,6 C 14,5 km/h (3 Bft) 100,00 %
16.04.2016 09:50 11,8 C 80 % 1005,2 hPa 0,0 l/m 10,6 km/h (2 Bft) O-NO 66 1 min 0,000 mm 1,8 UV-I 524 W/m 8,5 C 9,3 C 14,5 km/h (3 Bft) 100,00 %
16.04.2016 09:51 11,8 C 79 % 1005,2 hPa 0,0 l/m 5,8 km/h (2 Bft) NO 52 1 min 0,000 mm 1,8 UV-I 526 W/m 8,3 C 11,8 C 8,0 km/h (2 Bft) 100,00 %
16.04.2016 09:52 11,8 C 80 % 1005,2 hPa 0,0 l/m 4,4 km/h (1 Bft) N-NO 20 1 min 0,000 mm 1,9 UV-I 527 W/m 8,5 C 11,8 C 6,4 km/h (2 Bft) 100,00 %
16.04.2016 09:53 11,8 C 81 % 1005,2 hPa 0,0 l/m 5,8 km/h (2 Bft) N-NO 17 1 min 0,000 mm 1,9 UV-I 530 W/m 8,6 C 11,8 C 11,3 km/h (2 Bft) 100,00 %
16.04.2016 09:54 11,8 C 82 % 1005,2 hPa 0,0 l/m 9,4 km/h (2 Bft) NO 53 1 min 0,000 mm 1,9 UV-I 533 W/m 8,8 C 9,9 C 14,5 km/h (3 Bft) 96,30 %
16.04.2016 09:55 11,9 C 82 % 1005,2 hPa 0,0 l/m 10,4 km/h (2 Bft) N-NO 28 1 min 0,000 mm 1,9 UV-I 534 W/m 8,9 C 9,5 C 14,5 km/h (3 Bft) 100,00 %
16.04.2016 09:56 11,9 C 81 % 1005,2 hPa 0,0 l/m 10,7 km/h (2 Bft) N-NO 13 1 min 0,000 mm 1,9 UV-I 535 W/m 8,7 C 9,3 C 14,5 km/h (3 Bft) 100,00 %
16.04.2016 09:57 11,9 C 81 % 1005,2 hPa 0,0 l/m 6,5 km/h (2 Bft) N-NO 27 1 min 0,000 mm 1,9 UV-I 538 W/m 8,7 C 11,9 C 11,3 km/h (2 Bft) 100,00 %
16.04.2016 09:58 11,9 C 81 % 1005,2 hPa 0,0 l/m 6,9 km/h (2 Bft) NO 40 1 min 0,000 mm 2,0 UV-I 541 W/m 8,7 C 11,6 C 11,3 km/h (2 Bft) 100,00 %
16.04.2016 09:59 11,9 C 81 % 1005,2 hPa 0,0 l/m 6,8 km/h (2 Bft) NO 45 1 min 0,000 mm 2,0 UV-I 544 W/m 8,7 C 11,6 C 14,5 km/h (3 Bft) 100,00 %
16.04.2016 10:00 12,0 C 81 % 1005,2 hPa 0,0 l/m 6,1 km/h (2 Bft) NO 41 1 min 0,228 mm 2,0 UV-I 547 W/m 8,8 C 12,0 C 9,7 km/h (2 Bft) 100,00 %
16.04.2016 10:02 12,1 C 80 % 1005,2 hPa 0,0 l/m 4,5 km/h (1 Bft) N-NO 12 2 min 0,000 mm 2,0 UV-I 551 W/m 8,8 C 12,1 C 12,9 km/h (3 Bft) 100,00 %
16.04.2016 10:03 12,1 C 81 % 1005,3 hPa 0,0 l/m 10,3 km/h (2 Bft) N-NO 13 1 min 0,000 mm 2,1 UV-I 553 W/m 8,9 C 9,8 C 14,5 km/h (3 Bft) 100,00 %
16.04.2016 10:04 12,1 C 81 % 1005,2 hPa 0,0 l/m 4,7 km/h (1 Bft) N-NO 23 1 min 0,000 mm 2,1 UV-I 556 W/m 8,9 C 12,1 C 8,0 km/h (2 Bft) 96,15 %
16.04.2016 10:05 12,1 C 81 % 1005,2 hPa 0,0 l/m 8,2 km/h (2 Bft) N-NO 26 1 min 0,000 mm 2,1 UV-I 559 W/m 8,9 C 10,9 C 14,5 km/h (3 Bft) 100,00 %
16.04.2016 10:06 12,1 C 82 % 1005,2 hPa 0,0 l/m 8,3 km/h (2 Bft) N-NO 14 1 min 0,000 mm 2,1 UV-I 563 W/m 9,1 C 10,9 C 12,9 km/h (3 Bft) 96,15 %
16.04.2016 10:07 12,2 C 81 % 1005,2 hPa 0,0 l/m 9,1 km/h (2 Bft) N 9 1 min 0,000 mm 2,1 UV-I 564 W/m 9,0 C 10,5 C 12,9 km/h (3 Bft) 100,00 %
16.04.2016 10:08 12,2 C 80 % 1005,2 hPa 0,0 l/m 4,5 km/h (1 Bft) N-NW 345 1 min 0,000 mm 2,1 UV-I 565 W/m 8,9 C 12,2 C 11,3 km/h (2 Bft) 93,10 %
16.04.2016 10:09 12,2 C 81 % 1005,1 hPa 0,0 l/m 3,5 km/h (1 Bft) O 84 1 min 0,000 mm 2,2 UV-I 567 W/m 9,0 C 12,2 C 11,3 km/h (2 Bft) 93,33 %
16.04.2016 10:10 12,2 C 81 % 1005,0 hPa 0,0 l/m 3,5 km/h (1 Bft) N 5 1 min 0,000 mm 2,2 UV-I 570 W/m 9,0 C 12,2 C 4,8 km/h (1 Bft) 96,15 %
16.04.2016 10:11 12,2 C 80 % 1005,0 hPa 0,0 l/m 9,9 km/h (2 Bft) NO 41 1 min 0,000 mm 2,2 UV-I 571 W/m 8,9 C 10,1 C 12,9 km/h (3 Bft) 96,30 %
16.04.2016 10:12 12,2 C 79 % 1005,0 hPa 0,0 l/m 7,8 km/h (2 Bft) N-NO 20 1 min 0,000 mm 2,2 UV-I 575 W/m 8,7 C 11,3 C 12,9 km/h (3 Bft) 100,00 %
16.04.2016 10:13 12,2 C 79 % 1005,0 hPa 0,0 l/m 7,2 km/h (2 Bft) NO 36 1 min 0,000 mm 2,2 UV-I 575 W/m 8,7 C 11,7 C 11,3 km/h (2 Bft) 93,33 %
16.04.2016 10:14 12,2 C 80 % 1005,0 hPa 0,0 l/m 5,4 km/h (1 Bft) N 11 1 min 0,000 mm 2,2 UV-I 576 W/m 8,9 C 12,2 C 11,3 km/h (2 Bft) 100,00 %
16.04.2016 10:15 12,2 C 80 % 1005,0 hPa 0,0 l/m 7,0 km/h (2 Bft) N 5 1 min 0,000 mm 2,2 UV-I 580 W/m 8,9 C 11,8 C 12,9 km/h (3 Bft) 97,56 %
16.04.2016 10:16 12,3 C 83 % 1005,0 hPa 0,0 l/m 4,4 km/h (1 Bft) N-NO 17 1 min 0,000 mm 2,3 UV-I 582 W/m 9,5 C 12,3 C 8,0 km/h (2 Bft) 96,15 %
16.04.2016 10:17 12,5 C 83 % 1005,0 hPa 0,0 l/m 8,4 km/h (2 Bft) N-NO 30 1 min 0,000 mm 2,3 UV-I 584 W/m 9,7 C 11,2 C 12,9 km/h (3 Bft) 100,00 %
16.04.2016 10:18 12,7 C 81 % 1005,1 hPa 0,0 l/m 6,7 km/h (2 Bft) NO 52 1 min 0,000 mm 2,3 UV-I 588 W/m 9,5 C 12,5 C 8,0 km/h (2 Bft) 96,30 %
16.04.2016 10:19 12,8 C 81 % 1005,0 hPa 0,0 l/m 7,5 km/h (2 Bft) NO 44 1 min 0,000 mm 2,3 UV-I 591 W/m 9,6 C 12,1 C 9,7 km/h (2 Bft) 100,00 %
16.04.2016 10:20 12,8 C 78 % 1005,0 hPa 0,0 l/m 5,7 km/h (1 Bft) O-NO 66 1 min 0,000 mm 2,4 UV-I 592 W/m 9,1 C 12,8 C 8,0 km/h (2 Bft) 95,83 %
16.04.2016 10:21 12,8 C 76 % 1005,0 hPa 0,0 l/m 5,7 km/h (1 Bft) O-NO 78 1 min 0,000 mm 2,4 UV-I 594 W/m 8,7 C 12,8 C 8,0 km/h (2 Bft) 100,00 %
16.04.2016 10:22 12,8 C 76 % 1005,0 hPa 0,0 l/m 6,1 km/h (2 Bft) O 82 1 min 0,000 mm 2,4 UV-I 597 W/m 8,7 C 12,8 C 9,7 km/h (2 Bft) 95,83 %
16.04.2016 10:23 12,9 C 76 % 1005,0 hPa 0,0 l/m 7,8 km/h (2 Bft) O-NO 59 1 min 0,000 mm 2,4 UV-I 599 W/m 8,8 C 12,0 C 11,3 km/h (2 Bft) 100,00 %
16.04.2016 10:24 12,9 C 76 % 1004,9 hPa 0,0 l/m 7,5 km/h (2 Bft) O-NO 65 1 min 0,000 mm 2,4 UV-I 603 W/m 8,8 C 12,2 C 8,0 km/h (2 Bft) 96,30 %
16.04.2016 10:25 12,9 C 77 % 1004,9 hPa 0,0 l/m 8,7 km/h (2 Bft) NO 55 1 min 0,000 mm 2,4 UV-I 605 W/m 9,0 C 11,5 C 14,5 km/h (3 Bft) 96,15 %
16.04.2016 10:26 13,1 C 79 % 1004,9 hPa 0,0 l/m 5,1 km/h (1 Bft) NO 51 1 min 0,000 mm 2,5 UV-I 607 W/m 9,5 C 13,1 C 8,0 km/h (2 Bft) 100,00 %
16.04.2016 10:27 13,1 C 78 % 1004,9 hPa 0,0 l/m 5,6 km/h (1 Bft) NO 40 1 min 0,000 mm 2,5 UV-I 609 W/m 9,4 C 13,1 C 8,0 km/h (2 Bft) 96,15 %
16.04.2016 10:28 13,2 C 78 % 1004,9 hPa 0,0 l/m 8,1 km/h (2 Bft) N-NO 16 1 min 0,000 mm 2,5 UV-I 610 W/m 9,4 C 12,2 C 12,9 km/h (3 Bft) 100,00 %
16.04.2016 10:29 13,3 C 82 % 1004,9 hPa 0,0 l/m 6,4 km/h (2 Bft) N-NO 24 1 min 0,000 mm 2,5 UV-I 610 W/m 10,3 C 13,3 C 9,7 km/h (2 Bft) 94,12 %
16.04.2016 10:30 13,3 C 78 % 1004,9 hPa 0,0 l/m 4,1 km/h (1 Bft) NO 41 1 min 0,000 mm 2,5 UV-I 615 W/m 9,5 C 13,3 C 6,4 km/h (2 Bft) 100,00 %
16.04.2016 10:31 13,3 C 78 % 1004,9 hPa 0,0 l/m 7,6 km/h (2 Bft) NO 51 1 min 0,000 mm 2,6 UV-I 617 W/m 9,5 C 12,6 C 8,0 km/h (2 Bft) 96,55 %
16.04.2016 10:32 13,4 C 79 % 1004,9 hPa 0,0 l/m 8,0 km/h (2 Bft) NO 52 1 min 0,000 mm 2,6 UV-I 620 W/m 9,8 C 12,4 C 11,3 km/h (2 Bft) 91,67 %
16.04.2016 10:33 13,5 C 78 % 1004,9 hPa 0,0 l/m 9,9 km/h (2 Bft) O-NO 65 1 min 0,000 mm 2,6 UV-I 623 W/m 9,7 C 11,5 C 14,5 km/h (3 Bft) 100,00 %
16.04.2016 10:34 13,5 C 74 % 1004,9 hPa 0,0 l/m 8,9 km/h (2 Bft) O-NO 60 1 min 0,000 mm 2,7 UV-I 624 W/m 9,0 C 12,0 C 14,5 km/h (3 Bft) 100,00 %
16.04.2016 10:35 13,6 C 74 % 1004,9 hPa 0,0 l/m 11,3 km/h (2 Bft) O 80 1 min 0,000 mm 2,7 UV-I 628 W/m 9,1 C 11,0 C 14,5 km/h (3 Bft) 100,00 %
16.04.2016 10:36 13,6 C 72 % 1004,9 hPa 0,0 l/m 13,7 km/h (3 Bft) O-NO 65 1 min 0,000 mm 2,7 UV-I 629 W/m 8,6 C 10,0 C 16,1 km/h (3 Bft) 100,00 %
16.04.2016 10:37 13,6 C 73 % 1004,9 hPa 0,0 l/m 9,0 km/h (2 Bft) O-NO 76 1 min 0,000 mm 2,7 UV-I 632 W/m 8,9 C 12,1 C 14,5 km/h (3 Bft) 100,00 %
16.04.2016 10:38 13,6 C 73 % 1004,9 hPa 0,0 l/m 7,7 km/h (2 Bft) O 79 1 min 0,000 mm 2,7 UV-I 634 W/m 8,9 C 12,8 C 11,3 km/h (2 Bft) 91,30 %
16.04.2016 10:39 13,6 C 74 % 1004,8 hPa 0,0 l/m 9,5 km/h (2 Bft) O-NO 62 1 min 0,000 mm 2,7 UV-I 637 W/m 9,1 C 11,8 C 12,9 km/h (3 Bft) 96,30 %
16.04.2016 10:40 13,6 C 75 % 1004,8 hPa 0,0 l/m 12,6 km/h (3 Bft) NO 53 1 min 0,000 mm 2,7 UV-I 641 W/m 9,3 C 10,4 C 17,7 km/h (3 Bft) 90,91 %
16.04.2016 10:41 13,6 C 72 % 1004,8 hPa 0,0 l/m 11,6 km/h (2 Bft) NO 44 1 min 0,000 mm 2,7 UV-I 645 W/m 8,6 C 10,8 C 16,1 km/h (3 Bft) 100,00 %
16.04.2016 10:42 13,6 C 72 % 1004,8 hPa 0,0 l/m 13,1 km/h (3 Bft) O-NO 71 1 min 0,000 mm 2,8 UV-I 650 W/m 8,6 C 10,2 C 17,7 km/h (3 Bft) 100,00 %
16.04.2016 10:43 13,6 C 72 % 1004,8 hPa 0,0 l/m 12,2 km/h (2 Bft) O-NO 61 1 min 0,000 mm 2,8 UV-I 654 W/m 8,6 C 10,6 C 17,7 km/h (3 Bft) 93,33 %
16.04.2016 10:44 13,6 C 72 % 1004,8 hPa 0,0 l/m 12,6 km/h (3 Bft) NO 49 1 min 0,000 mm 2,8 UV-I 657 W/m 8,6 C 10,4 C 16,1 km/h (3 Bft) 100,00 %
16.04.2016 10:45 13,7 C 73 % 1004,8 hPa 0,0 l/m 11,3 km/h (2 Bft) NO 55 1 min 0,000 mm 2,8 UV-I 663 W/m 8,9 C 11,1 C 16,1 km/h (3 Bft) 100,00 %
16.04.2016 10:46 13,7 C 74 % 1004,8 hPa 0,0 l/m 9,7 km/h (2 Bft) NO 34 1 min 0,000 mm 2,7 UV-I 664 W/m 9,2 C 11,8 C 14,5 km/h (3 Bft) 96,55 %
16.04.2016 10:47 13,7 C 73 % 1004,8 hPa 0,0 l/m 9,9 km/h (2 Bft) NO 52 1 min 0,000 mm 2,8 UV-I 664 W/m 8,9 C 11,7 C 14,5 km/h (3 Bft) 100,00 %
16.04.2016 10:48 13,7 C 74 % 1004,8 hPa 0,0 l/m 11,3 km/h (2 Bft) NO 49 1 min 0,000 mm 2,8 UV-I 663 W/m 9,2 C 11,1 C 14,5 km/h (3 Bft) 100,00 %
16.04.2016 10:49 13,8 C 72 % 1004,7 hPa 0,0 l/m 10,1 km/h (2 Bft) NO 44 1 min 0,000 mm 2,8 UV-I 663 W/m 8,8 C 11,7 C 16,1 km/h (3 Bft) 95,83 %
16.04.2016 10:50 13,8 C 72 % 1004,8 hPa 0,0 l/m 11,7 km/h (2 Bft) O-NO 59 1 min 0,000 mm 2,9 UV-I 670 W/m 8,8 C 11,0 C 19,3 km/h (3 Bft) 95,83 %
16.04.2016 10:51 13,8 C 70 % 1004,8 hPa 0,0 l/m 17,3 km/h (3 Bft) O-NO 70 1 min 0,000 mm 2,9 UV-I 673 W/m 8,4 C 9,0 C 20,9 km/h (4 Bft) 100,00 %
16.04.2016 10:52 13,8 C 70 % 1004,8 hPa 0,0 l/m 16,3 km/h (3 Bft) NO 55 1 min 0,000 mm 2,9 UV-I 678 W/m 8,4 C 9,3 C 19,3 km/h (3 Bft) 100,00 %
16.04.2016 10:53 13,8 C 72 % 1004,7 hPa 0,0 l/m 12,4 km/h (3 Bft) O-NO 58 1 min 0,000 mm 2,9 UV-I 681 W/m 8,8 C 10,7 C 16,1 km/h (3 Bft) 100,00 %
16.04.2016 10:54 13,8 C 71 % 1004,8 hPa 0,0 l/m 12,3 km/h (3 Bft) NO 47 1 min 0,000 mm 3,0 UV-I 685 W/m 8,6 C 10,8 C 16,1 km/h (3 Bft) 98,52 %
16.04.2016 10:55 13,8 C 73 % 1004,8 hPa 0,0 l/m 12,1 km/h (2 Bft) O 80 1 min 0,000 mm 3,0 UV-I 691 W/m 9,0 C 10,8 C 16,1 km/h (3 Bft) 100,00 %
16.04.2016 10:56 13,8 C 72 % 1004,7 hPa 0,0 l/m 12,2 km/h (2 Bft) NO 54 1 min 0,000 mm 3,0 UV-I 693 W/m 8,8 C 10,8 C 16,1 km/h (3 Bft) 100,00 %
16.04.2016 10:57 13,8 C 73 % 1004,7 hPa 0,0 l/m 7,7 km/h (2 Bft) NO 40 1 min 0,000 mm 3,1 UV-I 704 W/m 9,0 C 13,0 C 12,9 km/h (3 Bft) 94,44 %
16.04.2016 10:58 13,9 C 73 % 1004,7 hPa 0,0 l/m 8,8 km/h (2 Bft) NO 49 1 min 0,000 mm 3,1 UV-I 719 W/m 9,1 C 12,5 C 14,5 km/h (3 Bft) 96,30 %
16.04.2016 10:59 14,0 C 75 % 1004,7 hPa 0,0 l/m 4,8 km/h (1 Bft) O-NO 57 1 min 0,000 mm 3,1 UV-I 713 W/m 9,6 C 14,0 C 9,7 km/h (2 Bft) 100,00 %
16.04.2016 11:00 14,1 C 74 % 1004,7 hPa 0,0 l/m 4,2 km/h (1 Bft) O-SO 117 1 min 0,331 mm 3,1 UV-I 721 W/m 9,5 C 14,1 C 4,8 km/h (1 Bft) 100,00 %
16.04.2016 11:01 14,1 C 73 % 1004,7 hPa 0,0 l/m 5,2 km/h (1 Bft) O-NO 65 1 min 0,000 mm 3,1 UV-I 717 W/m 9,3 C 14,1 C 12,9 km/h (3 Bft) 100,00 %
16.04.2016 11:02 14,2 C 74 % 1004,7 hPa 0,0 l/m 8,8 km/h (2 Bft) NO 42 1 min 0,000 mm 3,1 UV-I 701 W/m 9,6 C 12,8 C 14,5 km/h (3 Bft) 100,00 %
16.04.2016 11:03 14,2 C 74 % 1004,6 hPa 0,0 l/m 8,4 km/h (2 Bft) O-NO 72 1 min 0,000 mm 3,0 UV-I 695 W/m 9,6 C 13,0 C 11,3 km/h (2 Bft) 95,65 %
16.04.2016 11:04 14,2 C 72 % 1004,6 hPa 0,0 l/m 7,7 km/h (2 Bft) NO 42 1 min 0,000 mm 3,0 UV-I 672 W/m 9,2 C 13,4 C 11,3 km/h (2 Bft) 100,00 %
16.04.2016 11:05 14,4 C 76 % 1004,6 hPa 0,0 l/m 9,5 km/h (2 Bft) O-SO 107 1 min 0,000 mm 2,9 UV-I 640 W/m 10,2 C 12,7 C 14,5 km/h (3 Bft) 100,00 %
16.04.2016 11:06 14,4 C 73 % 1004,6 hPa 0,0 l/m 13,2 km/h (3 Bft) O-NO 73 1 min 0,000 mm 2,6 UV-I 608 W/m 9,6 C 11,1 C 19,3 km/h (3 Bft) 100,00 %
16.04.2016 11:07 14,4 C 71 % 1004,6 hPa 0,0 l/m 12,6 km/h (3 Bft) O-SO 104 1 min 0,000 mm 2,8 UV-I 548 W/m 9,2 C 11,3 C 14,5 km/h (3 Bft) 100,00 %
16.04.2016 11:08 14,3 C 70 % 1004,5 hPa 0,0 l/m 7,7 km/h (2 Bft) O-NO 71 1 min 0,000 mm 2,9 UV-I 576 W/m 8,9 C 13,5 C 11,3 km/h (2 Bft) 100,00 %
16.04.2016 11:09 14,3 C 71 % 1004,5 hPa 0,0 l/m 12,4 km/h (3 Bft) O 82 1 min 0,000 mm 2,9 UV-I 597 W/m 9,1 C 11,3 C 19,3 km/h (3 Bft) 100,00 %
16.04.2016 11:10 14,3 C 71 % 1004,4 hPa 0,0 l/m 11,4 km/h (2 Bft) O-SO 117 1 min 0,000 mm 2,9 UV-I 597 W/m 9,1 C 11,7 C 16,1 km/h (3 Bft) 100,00 %
16.04.2016 11:11 14,3 C 71 % 1004,4 hPa 0,0 l/m 10,3 km/h (2 Bft) O-SO 123 1 min 0,000 mm 2,7 UV-I 610 W/m 9,1 C 12,2 C 12,9 km/h (3 Bft) 100,00 %
16.04.2016 11:12 14,3 C 72 % 1004,4 hPa 0,0 l/m 12,0 km/h (2 Bft) O 87 1 min 0,000 mm 2,9 UV-I 585 W/m 9,3 C 11,5 C 14,5 km/h (3 Bft) 100,00 %
16.04.2016 11:13 14,3 C 72 % 1004,3 hPa 0,0 l/m 16,1 km/h (3 Bft) O-NO 76 1 min 0,000 mm 3,0 UV-I 591 W/m 9,3 C 10,0 C 17,7 km/h (3 Bft) 100,00 %
16.04.2016 11:14 14,3 C 71 % 1004,3 hPa 0,0 l/m 15,4 km/h (3 Bft) O-NO 76 1 min 0,000 mm 2,8 UV-I 579 W/m 9,1 C 10,2 C 20,9 km/h (4 Bft) 100,00 %
16.04.2016 11:15 14,3 C 71 % 1004,3 hPa 0,0 l/m 18,7 km/h (3 Bft) O-NO 76 1 min 0,000 mm 2,7 UV-I 526 W/m 9,1 C 9,2 C 20,9 km/h (4 Bft) 100,00 %
16.04.2016 11:16 14,3 C 70 % 1004,3 hPa 0,0 l/m 15,0 km/h (3 Bft) O-NO 69 1 min 0,000 mm 2,6 UV-I 501 W/m 8,9 C 10,3 C 17,7 km/h (3 Bft) 95,83 %
16.04.2016 11:17 14,3 C 70 % 1004,2 hPa 0,0 l/m 12,2 km/h (2 Bft) O-NO 66 1 min 0,000 mm 2,5 UV-I 415 W/m 8,9 C 11,4 C 14,5 km/h (3 Bft) 100,00 %
16.04.2016 11:18 14,3 C 70 % 1004,2 hPa 0,0 l/m 12,3 km/h (3 Bft) O-NO 62 1 min 0,000 mm 2,9 UV-I 459 W/m 8,9 C 11,3 C 16,1 km/h (3 Bft) 100,00 %
16.04.2016 11:19 14,4 C 72 % 1004,2 hPa 0,0 l/m 6,2 km/h (2 Bft) SO 143 1 min 0,000 mm 3,3 UV-I 508 W/m 9,4 C 14,4 C 16,1 km/h (3 Bft) 97,78 %
16.04.2016 11:20 14,5 C 72 % 1004,1 hPa 0,0 l/m 10,6 km/h (2 Bft) NO 39 1 min 0,000 mm 3,5 UV-I 704 W/m 9,5 C 12,3 C 16,1 km/h (3 Bft) 100,00 %
16.04.2016 11:21 14,6 C 73 % 1004,1 hPa 0,0 l/m 14,7 km/h (3 Bft) NO 45 1 min 0,000 mm 3,5 UV-I 827 W/m 9,8 C 10,8 C 19,3 km/h (3 Bft) 100,00 %
16.04.2016 11:22 14,7 C 72 % 1004,1 hPa 0,0 l/m 13,4 km/h (3 Bft) NO 52 1 min 0,000 mm 3,6 UV-I 832 W/m 9,7 C 11,4 C 19,3 km/h (3 Bft) 97,73 %
16.04.2016 11:23 14,8 C 71 % 1004,1 hPa 0,0 l/m 14,3 km/h (3 Bft) O-NO 74 1 min 0,000 mm 3,5 UV-I 760 W/m 9,6 C 11,2 C 17,7 km/h (3 Bft) 91,67 %
16.04.2016 11:24 14,9 C 71 % 1004,0 hPa 0,0 l/m 11,4 km/h (2 Bft) O 86 1 min 0,000 mm 3,5 UV-I 793 W/m 9,7 C 12,4 C 17,7 km/h (3 Bft) 100,00 %
16.04.2016 11:25 15,0 C 71 % 1004,0 hPa 0,0 l/m 10,7 km/h (2 Bft) O-NO 63 1 min 0,000 mm 3,3 UV-I 789 W/m 9,8 C 12,8 C 17,7 km/h (3 Bft) 100,00 %
16.04.2016 11:26 15,1 C 70 % 1004,0 hPa 0,0 l/m 15,0 km/h (3 Bft) NO 40 1 min 0,000 mm 3,2 UV-I 748 W/m 9,7 C 11,3 C 20,9 km/h (4 Bft) 100,00 %
16.04.2016 11:27 15,1 C 70 % 1003,9 hPa 0,0 l/m 16,9 km/h (3 Bft) O-NO 65 1 min 0,000 mm 3,2 UV-I 722 W/m 9,7 C 10,7 C 20,9 km/h (4 Bft) 100,00 %
16.04.2016 11:28 15,1 C 69 % 1003,9 hPa 0,0 l/m 14,5 km/h (3 Bft) O-NO 62 1 min 0,000 mm 3,0 UV-I 608 W/m 9,5 C 11,5 C 20,9 km/h (4 Bft) 100,00 %
16.04.2016 11:29 15,1 C 69 % 1003,9 hPa 0,0 l/m 11,4 km/h (2 Bft) O-NO 78 1 min 0,000 mm 3,1 UV-I 680 W/m 9,5 C 12,6 C 16,1 km/h (3 Bft) 100,00 %
16.04.2016 11:30 15,2 C 71 % 1003,9 hPa 0,0 l/m 14,8 km/h (3 Bft) O-NO 67 1 min 0,000 mm 3,3 UV-I 747 W/m 10,0 C 11,5 C 17,7 km/h (3 Bft) 100,00 %
16.04.2016 11:31 15,2 C 71 % 1003,9 hPa 0,0 l/m 15,5 km/h (3 Bft) O-NO 63 1 min 0,000 mm 3,2 UV-I 662 W/m 10,0 C 11,3 C 19,3 km/h (3 Bft) 100,00 %
16.04.2016 11:32 15,2 C 70 % 1003,8 hPa 0,0 l/m 11,6 km/h (2 Bft) NO 51 1 min 0,000 mm 3,3 UV-I 584 W/m 9,8 C 12,7 C 16,1 km/h (3 Bft) 100,00 %
16.04.2016 11:33 15,3 C 72 % 1003,8 hPa 0,0 l/m 14,1 km/h (3 Bft) O 88 1 min 0,000 mm 3,5 UV-I 753 W/m 10,3 C 11,9 C 20,9 km/h (4 Bft) 100,00 %
16.04.2016 11:34 15,4 C 73 % 1003,8 hPa 0,0 l/m 10,7 km/h (2 Bft) O-NO 76 1 min 0,000 mm 3,4 UV-I 748 W/m 10,6 C 13,3 C 19,3 km/h (3 Bft) 100,00 %
16.04.2016 11:35 15,4 C 69 % 1003,8 hPa 0,0 l/m 13,4 km/h (3 Bft) O-NO 63 1 min 0,000 mm 3,1 UV-I 720 W/m 9,7 C 12,2 C 19,3 km/h (3 Bft) 100,00 %
16.04.2016 11:36 15,4 C 68 % 1003,8 hPa 0,0 l/m 9,4 km/h (2 Bft) SO 141 1 min 0,000 mm 3,1 UV-I 640 W/m 9,5 C 13,8 C 14,5 km/h (3 Bft) 100,00 %
16.04.2016 11:37 15,4 C 70 % 1003,8 hPa 0,0 l/m 7,9 km/h (2 Bft) O 90 1 min 0,000 mm 2,7 UV-I 617 W/m 10,0 C 14,6 C 16,1 km/h (3 Bft) 100,00 %
16.04.2016 11:38 15,4 C 70 % 1003,8 hPa 0,0 l/m 15,4 km/h (3 Bft) O 91 1 min 0,000 mm 3,1 UV-I 688 W/m 10,0 C 11,5 C 19,3 km/h (3 Bft) 100,00 %
16.04.2016 11:39 15,6 C 71 % 1003,8 hPa 0,0 l/m 10,2 km/h (2 Bft) O-NO 61 1 min 0,000 mm 3,4 UV-I 668 W/m 10,4 C 13,7 C 16,1 km/h (3 Bft) 100,00 %
16.04.2016 11:40 15,6 C 71 % 1003,8 hPa 0,0 l/m 9,5 km/h (2 Bft) O 98 1 min 0,000 mm 3,2 UV-I 659 W/m 10,4 C 14,0 C 12,9 km/h (3 Bft) 95,83 %
16.04.2016 11:41 15,7 C 74 % 1003,8 hPa 0,0 l/m 11,9 km/h (2 Bft) O-SO 113 1 min 0,000 mm 3,1 UV-I 605 W/m 11,1 C 13,1 C 20,9 km/h (4 Bft) 100,00 %
16.04.2016 11:42 15,7 C 70 % 1003,7 hPa 0,0 l/m 9,2 km/h (2 Bft) O-NO 67 1 min 0,000 mm 3,3 UV-I 654 W/m 10,2 C 14,3 C 16,1 km/h (3 Bft) 100,00 %
16.04.2016 11:43 15,8 C 71 % 1003,7 hPa 0,0 l/m 12,2 km/h (2 Bft) O-SO 107 1 min 0,000 mm 3,3 UV-I 626 W/m 10,6 C 13,1 C 20,9 km/h (4 Bft) 100,00 %
16.04.2016 11:44 15,9 C 68 % 1003,7 hPa 0,0 l/m 13,4 km/h (3 Bft) NO 53 1 min 0,000 mm 3,5 UV-I 592 W/m 10,0 C 12,8 C 22,5 km/h (4 Bft) 100,00 %
16.04.2016 11:45 15,9 C 69 % 1003,7 hPa 0,0 l/m 11,4 km/h (2 Bft) O-NO 72 1 min 0,000 mm 3,5 UV-I 702 W/m 10,2 C 13,5 C 16,1 km/h (3 Bft) 100,00 %
16.04.2016 11:46 15,9 C 69 % 1003,7 hPa 0,0 l/m 16,1 km/h (3 Bft) O-NO 69 1 min 0,000 mm 3,3 UV-I 664 W/m 10,2 C 11,9 C 20,9 km/h (4 Bft) 100,00 %
16.04.2016 11:47 15,9 C 68 % 1003,7 hPa 0,0 l/m 12,9 km/h (3 Bft) NO 55 1 min 0,000 mm 3,2 UV-I 629 W/m 10,0 C 13,0 C 17,7 km/h (3 Bft) 100,00 %
16.04.2016 11:48 15,9 C 69 % 1003,6 hPa 0,0 l/m 9,7 km/h (2 Bft) O-NO 68 1 min 0,000 mm 3,3 UV-I 647 W/m 10,2 C 14,2 C 14,5 km/h (3 Bft) 100,00 %
16.04.2016 11:49 16,0 C 70 % 1003,6 hPa 0,0 l/m 13,8 km/h (3 Bft) NO 39 1 min 0,000 mm 3,3 UV-I 638 W/m 10,5 C 12,8 C 17,7 km/h (3 Bft) 100,00 %
16.04.2016 11:50 16,1 C 70 % 1003,6 hPa 0,0 l/m 16,6 km/h (3 Bft) O 86 1 min 0,000 mm 3,3 UV-I 641 W/m 10,6 C 12,1 C 19,3 km/h (3 Bft) 95,83 %
16.04.2016 11:51 16,2 C 68 % 1003,6 hPa 0,0 l/m 10,9 km/h (2 Bft) O-SO 102 1 min 0,000 mm 3,2 UV-I 624 W/m 10,3 C 14,1 C 14,5 km/h (3 Bft) 96,15 %
16.04.2016 11:52 16,2 C 70 % 1003,6 hPa 0,0 l/m 10,9 km/h (2 Bft) O-NO 67 1 min 0,000 mm 3,2 UV-I 635 W/m 10,7 C 14,1 C 24,1 km/h (4 Bft) 100,00 %
16.04.2016 11:53 16,2 C 69 % 1003,7 hPa 0,0 l/m 18,9 km/h (3 Bft) O 93 1 min 0,000 mm 3,3 UV-I 643 W/m 10,5 C 11,6 C 25,7 km/h (4 Bft) 100,00 %
16.04.2016 11:54 16,2 C 67 % 1003,7 hPa 0,0 l/m 16,3 km/h (3 Bft) O-NO 72 1 min 0,000 mm 3,2 UV-I 636 W/m 10,1 C 12,3 C 24,1 km/h (4 Bft) 96,88 %
16.04.2016 11:55 16,2 C 66 % 1003,7 hPa 0,0 l/m 15,9 km/h (3 Bft) NO 53 1 min 0,000 mm 2,9 UV-I 585 W/m 9,8 C 12,4 C 19,3 km/h (3 Bft) 96,30 %
16.04.2016 11:56 16,2 C 66 % 1003,7 hPa 0,0 l/m 13,5 km/h (3 Bft) O-NO 78 1 min 0,000 mm 2,9 UV-I 553 W/m 9,8 C 13,1 C 19,3 km/h (3 Bft) 96,15 %
16.04.2016 11:57 16,1 C 67 % 1003,7 hPa 0,0 l/m 13,6 km/h (3 Bft) O-NO 63 1 min 0,000 mm 2,8 UV-I 535 W/m 10,0 C 13,0 C 17,7 km/h (3 Bft) 93,33 %
16.04.2016 11:58 16,1 C 67 % 1003,7 hPa 0,0 l/m 11,4 km/h (2 Bft) O-NO 66 1 min 0,000 mm 2,7 UV-I 518 W/m 10,0 C 13,8 C 14,5 km/h (3 Bft) 100,00 %
16.04.2016 11:59 16,1 C 67 % 1003,8 hPa 0,0 l/m 6,8 km/h (2 Bft) O-NO 69 1 min 0,000 mm 2,7 UV-I 525 W/m 10,0 C 15,9 C 9,7 km/h (2 Bft) 96,30 %
16.04.2016 12:00 16,1 C 68 % 1003,8 hPa 0,0 l/m 8,9 km/h (2 Bft) NO 55 1 min 0,381 mm 2,6 UV-I 512 W/m 10,2 C 14,8 C 12,9 km/h (3 Bft) 96,15 %
16.04.2016 12:01 16,1 C 68 % 1003,8 hPa 0,0 l/m 10,1 km/h (2 Bft) NO 51 1 min 0,000 mm 2,6 UV-I 502 W/m 10,2 C 14,3 C 17,7 km/h (3 Bft) 100,00 %
16.04.2016 12:02 16,1 C 67 % 1003,8 hPa 0,0 l/m 11,8 km/h (2 Bft) O-NO 65 1 min 0,000 mm 2,5 UV-I 495 W/m 10,0 C 13,6 C 16,1 km/h (3 Bft) 95,65 %
16.04.2016 12:03 16,1 C 67 % 1003,8 hPa 0,0 l/m 7,2 km/h (2 Bft) O-NO 76 1 min 0,000 mm 2,4 UV-I 475 W/m 10,0 C 15,7 C 11,3 km/h (2 Bft) 100,00 %
16.04.2016 12:04 16,1 C 67 % 1003,8 hPa 0,0 l/m 8,5 km/h (2 Bft) NO 54 1 min 0,000 mm 2,4 UV-I 454 W/m 10,0 C 15,0 C 14,5 km/h (3 Bft) 90,91 %
16.04.2016 12:05 16,1 C 67 % 1003,9 hPa 0,0 l/m 8,9 km/h (2 Bft) NO 40 1 min 0,000 mm 2,3 UV-I 442 W/m 10,0 C 14,8 C 11,3 km/h (2 Bft) 100,00 %
16.04.2016 12:06 16,1 C 68 % 1003,9 hPa 0,0 l/m 5,7 km/h (1 Bft) NO 44 1 min 0,000 mm 2,3 UV-I 444 W/m 10,2 C 16,1 C 9,7 km/h (2 Bft) 96,15 %
16.04.2016 12:07 16,1 C 72 % 1003,9 hPa 0,0 l/m 11,6 km/h (2 Bft) N-NO 28 1 min 0,000 mm 2,2 UV-I 430 W/m 11,0 C 13,7 C 16,1 km/h (3 Bft) 100,00 %
16.04.2016 12:08 16,2 C 71 % 1003,9 hPa 0,0 l/m 9,7 km/h (2 Bft) N-NO 13 1 min 0,000 mm 2,2 UV-I 436 W/m 10,9 C 14,6 C 12,9 km/h (3 Bft) 91,30 %
16.04.2016 12:09 16,3 C 73 % 1003,9 hPa 0,0 l/m 7,4 km/h (2 Bft) NO 44 0 min 0,000 mm 2,1 UV-I 421 W/m 11,4 C 15,8 C 11,3 km/h (2 Bft) 96,30 %
16.04.2016 12:10 16,3 C 72 % 1003,9 hPa 0,0 l/m 11,6 km/h (2 Bft) NO 42 0 min 0,000 mm 1,9 UV-I 360 W/m 11,2 C 13,9 C 16,1 km/h (3 Bft) 100,00 %
16.04.2016 12:11 16,2 C 72 % 1003,9 hPa 0,0 l/m 8,6 km/h (2 Bft) NO 42 0 min 0,000 mm 1,7 UV-I 320 W/m 11,1 C 15,1 C 12,9 km/h (3 Bft) 96,30 %
16.04.2016 12:12 16,2 C 72 % 1003,9 hPa 0,0 l/m 4,5 km/h (1 Bft) NO 41 0 min 0,000 mm 1,7 UV-I 302 W/m 11,1 C 16,2 C 8,0 km/h (2 Bft) 100,00 %
16.04.2016 12:13 16,2 C 72 % 1003,9 hPa 0,0 l/m 12,8 km/h (3 Bft) NO 42 0 min 0,000 mm 1,6 UV-I 283 W/m 11,1 C 13,4 C 17,7 km/h (3 Bft) 96,55 %
16.04.2016 12:14 16,1 C 69 % 1003,9 hPa 0,0 l/m 12,2 km/h (2 Bft) NO 54 0 min 0,000 mm 1,5 UV-I 268 W/m 10,4 C 13,5 C 16,1 km/h (3 Bft) 100,00 %
16.04.2016 12:15 16,1 C 67 % 1004,0 hPa 0,0 l/m 8,0 km/h (2 Bft) N-NO 25 0 min 0,000 mm 1,4 UV-I 255 W/m 10,0 C 15,3 C 11,3 km/h (2 Bft) 96,55 %
16.04.2016 12:16 16,0 C 69 % 1004,0 hPa 0,0 l/m 10,1 km/h (2 Bft) NO 46 0 min 0,000 mm 1,3 UV-I 249 W/m 10,3 C 14,2 C 14,5 km/h (3 Bft) 100,00 %
16.04.2016 12:17 15,9 C 71 % 1004,0 hPa 0,0 l/m 9,4 km/h (2 Bft) NO 44 0 min 0,000 mm 1,3 UV-I 245 W/m 10,6 C 14,4 C 12,9 km/h (3 Bft) 95,65 %
16.04.2016 12:18 15,9 C 71 % 1004,0 hPa 0,0 l/m 10,1 km/h (2 Bft) NO 37 0 min 0,000 mm 1,3 UV-I 244 W/m 10,6 C 14,1 C 12,9 km/h (3 Bft) 96,30 %
16.04.2016 12:19 15,8 C 71 % 1004,1 hPa 0,0 l/m 8,1 km/h (2 Bft) N 9 0 min 0,000 mm 1,3 UV-I 245 W/m 10,6 C 14,9 C 11,3 km/h (2 Bft) 100,00 %
16.04.2016 12:20 15,8 C 69 % 1004,1 hPa 0,0 l/m 3,8 km/h (1 Bft) N-NO 32 0 min 0,000 mm 1,4 UV-I 248 W/m 10,1 C 15,8 C 6,4 km/h (2 Bft) 100,00 %
16.04.2016 12:21 15,8 C 72 % 1004,2 hPa 0,0 l/m 1,0 km/h (0 Bft) N-NO 32 0 min 0,000 mm 1,4 UV-I 252 W/m 10,8 C 15,8 C 3,2 km/h (1 Bft) 96,55 %
16.04.2016 12:22 15,7 C 73 % 1004,2 hPa 0,0 l/m 1,9 km/h (1 Bft) NO 36 0 min 0,000 mm 1,4 UV-I 257 W/m 10,9 C 15,7 C 4,8 km/h (1 Bft) 96,30 %
16.04.2016 12:23 15,7 C 73 % 1004,3 hPa 0,0 l/m 1,6 km/h (1 Bft) NO 34 0 min 0,000 mm 1,4 UV-I 264 W/m 10,9 C 15,7 C 3,2 km/h (1 Bft) 100,00 %
16.04.2016 12:24 15,7 C 72 % 1004,3 hPa 0,0 l/m 0,3 km/h (0 Bft) N-NO 15 0 min 0,000 mm 1,5 UV-I 271 W/m 10,7 C 15,7 C 1,6 km/h (1 Bft) 100,00 %
16.04.2016 12:25 15,7 C 71 % 1004,3 hPa 0,0 l/m 2,4 km/h (1 Bft) N-NO 16 0 min 0,000 mm 1,5 UV-I 276 W/m 10,5 C 15,7 C 4,8 km/h (1 Bft) 96,88 %
16.04.2016 12:26 15,7 C 72 % 1004,2 hPa 0,0 l/m 2,7 km/h (1 Bft) N-NO 33 0 min 0,000 mm 1,5 UV-I 284 W/m 10,7 C 15,7 C 4,8 km/h (1 Bft) 100,00 %
16.04.2016 12:27 15,7 C 71 % 1004,2 hPa 0,0 l/m 4,8 km/h (1 Bft) O-NO 71 0 min 0,000 mm 1,6 UV-I 293 W/m 10,5 C 15,7 C 6,4 km/h (2 Bft) 100,00 %
16.04.2016 12:28 15,8 C 69 % 1004,2 hPa 0,0 l/m 6,5 km/h (2 Bft) NO 48 0 min 0,000 mm 1,6 UV-I 297 W/m 10,1 C 15,8 C 9,7 km/h (2 Bft) 100,00 %
16.04.2016 12:29 15,9 C 69 % 1004,1 hPa 0,0 l/m 3,8 km/h (1 Bft) N 9 0 min 0,000 mm 1,6 UV-I 303 W/m 10,2 C 15,9 C 8,0 km/h (2 Bft) 100,00 %
16.04.2016 12:30 15,9 C 72 % 1004,1 hPa 0,0 l/m 4,7 km/h (1 Bft) NO 46 0 min 0,000 mm 1,6 UV-I 303 W/m 10,9 C 15,9 C 9,7 km/h (2 Bft) 95,83 %
16.04.2016 12:31 15,9 C 72 % 1004,1 hPa 0,0 l/m 7,2 km/h (2 Bft) N 9 0 min 0,000 mm 1,6 UV-I 301 W/m 10,9 C 15,5 C 11,3 km/h (2 Bft) 100,00 %
16.04.2016 12:32 16,0 C 72 % 1004,1 hPa 0,0 l/m 7,3 km/h (2 Bft) N-NO 16 0 min 0,000 mm 1,6 UV-I 296 W/m 11,0 C 15,5 C 8,0 km/h (2 Bft) 100,00 %
16.04.2016 12:33 16,0 C 71 % 1004,1 hPa 0,0 l/m 7,0 km/h (2 Bft) O-NO 57 0 min 0,000 mm 1,5 UV-I 285 W/m 10,7 C 15,7 C 9,7 km/h (2 Bft) 100,00 %
16.04.2016 12:34 16,0 C 72 % 1004,1 hPa 0,0 l/m 11,0 km/h (2 Bft) NO 41 0 min 0,000 mm 1,5 UV-I 272 W/m 11,0 C 13,8 C 14,5 km/h (3 Bft) 100,00 %
16.04.2016 12:35 15,9 C 71 % 1004,1 hPa 0,0 l/m 9,0 km/h (2 Bft) N-NO 32 0 min 0,000 mm 1,4 UV-I 261 W/m 10,6 C 14,6 C 14,5 km/h (3 Bft) 100,00 %
16.04.2016 12:36 15,9 C 71 % 1004,0 hPa 0,0 l/m 8,7 km/h (2 Bft) N-NO 15 0 min 0,000 mm 1,4 UV-I 253 W/m 10,6 C 14,7 C 11,3 km/h (2 Bft) 100,00 %
16.04.2016 12:37 15,9 C 70 % 1004,0 hPa 0,0 l/m 8,3 km/h (2 Bft) N-NO 32 0 min 0,000 mm 1,4 UV-I 252 W/m 10,4 C 14,9 C 14,5 km/h (3 Bft) 100,00 %
16.04.2016 12:38 15,9 C 70 % 1004,0 hPa 0,0 l/m 7,2 km/h (2 Bft) N-NO 27 0 min 0,000 mm 1,4 UV-I 258 W/m 10,4 C 15,5 C 9,7 km/h (2 Bft) 100,00 %
16.04.2016 12:39 15,8 C 71 % 1004,0 hPa 0,0 l/m 6,1 km/h (2 Bft) N-NO 24 0 min 0,000 mm 1,5 UV-I 268 W/m 10,6 C 15,8 C 8,0 km/h (2 Bft) 100,00 %
16.04.2016 12:40 15,9 C 71 % 1004,0 hPa 0,0 l/m 5,1 km/h (1 Bft) NO 34 0 min 0,000 mm 1,5 UV-I 281 W/m 10,6 C 15,9 C 8,0 km/h (2 Bft) 100,00 %
16.04.2016 12:41 15,9 C 73 % 1004,0 hPa 0,0 l/m 5,7 km/h (1 Bft) N-NO 16 0 min 0,000 mm 1,6 UV-I 291 W/m 11,1 C 15,9 C 8,0 km/h (2 Bft) 100,00 %
16.04.2016 12:42 15,9 C 73 % 1003,9 hPa 0,0 l/m 7,8 km/h (2 Bft) NO 38 0 min 0,000 mm 1,6 UV-I 299 W/m 11,1 C 15,1 C 9,7 km/h (2 Bft) 100,00 %
16.04.2016 12:43 15,9 C 70 % 1003,9 hPa 0,0 l/m 7,3 km/h (2 Bft) N-NO 18 0 min 0,000 mm 1,7 UV-I 307 W/m 10,4 C 15,4 C 11,3 km/h (2 Bft) 100,00 %
16.04.2016 12:44 15,9 C 71 % 1003,9 hPa 0,0 l/m 6,5 km/h (2 Bft) N-NO 33 0 min 0,000 mm 1,8 UV-I 318 W/m 10,6 C 15,9 C 11,3 km/h (2 Bft) 100,00 %
16.04.2016 12:45 16,0 C 73 % 1003,9 hPa 0,0 l/m 4,0 km/h (1 Bft) NO 34 0 min 0,000 mm 1,8 UV-I 331 W/m 11,2 C 16,0 C 8,0 km/h (2 Bft) 100,00 %
16.04.2016 12:46 16,0 C 73 % 1004,0 hPa 0,0 l/m 3,9 km/h (1 Bft) N-NO 26 0 min 0,000 mm 1,8 UV-I 336 W/m 11,2 C 16,0 C 8,0 km/h (2 Bft) 100,00 %
16.04.2016 12:47 16,0 C 72 % 1004,0 hPa 0,0 l/m 4,2 km/h (1 Bft) N-NO 16 0 min 0,000 mm 1,8 UV-I 333 W/m 11,0 C 16,0 C 6,4 km/h (2 Bft) 100,00 %
16.04.2016 12:48 16,0 C 71 % 1004,1 hPa 0,0 l/m 6,3 km/h (2 Bft) N-NO 15 0 min 0,000 mm 1,8 UV-I 321 W/m 10,7 C 16,0 C 11,3 km/h (2 Bft) 100,00 %
16.04.2016 12:49 16,0 C 71 % 1004,1 hPa 0,0 l/m 1,6 km/h (1 Bft) N 5 0 min 0,000 mm 1,7 UV-I 312 W/m 10,7 C 16,0 C 3,2 km/h (1 Bft) 100,00 %
16.04.2016 12:50 16,1 C 73 % 1004,0 hPa 0,0 l/m 2,7 km/h (1 Bft) N-NO 13 0 min 0,000 mm 1,7 UV-I 306 W/m 11,3 C 16,1 C 6,4 km/h (2 Bft) 100,00 %
16.04.2016 12:51 16,1 C 72 % 1004,0 hPa 0,0 l/m 6,6 km/h (2 Bft) N-NO 31 0 min 0,000 mm 1,7 UV-I 300 W/m 11,0 C 16,0 C 8,0 km/h (2 Bft) 100,00 %
16.04.2016 12:52 16,1 C 72 % 1004,0 hPa 0,0 l/m 4,7 km/h (1 Bft) N-NO 32 0 min 0,000 mm 1,7 UV-I 296 W/m 11,0 C 16,1 C 8,0 km/h (2 Bft) 100,00 %
16.04.2016 12:53 16,1 C 71 % 1004,0 hPa 0,0 l/m 5,7 km/h (1 Bft) NO 36 0 min 0,000 mm 1,6 UV-I 292 W/m 10,8 C 16,1 C 9,7 km/h (2 Bft) 100,00 %
16.04.2016 12:54 16,1 C 72 % 1004,0 hPa 0,0 l/m 6,2 km/h (2 Bft) NO 37 0 min 0,000 mm 1,6 UV-I 288 W/m 11,0 C 16,1 C 8,0 km/h (2 Bft) 100,00 %
16.04.2016 12:55 16,1 C 72 % 1003,9 hPa 0,0 l/m 6,7 km/h (2 Bft) NO 42 0 min 0,000 mm 1,6 UV-I 282 W/m 11,0 C 16,0 C 8,0 km/h (2 Bft) 100,00 %
16.04.2016 12:56 16,2 C 71 % 1004,0 hPa 0,0 l/m 4,6 km/h (1 Bft) N 355 0 min 0,000 mm 1,5 UV-I 276 W/m 10,9 C 16,2 C 9,7 km/h (2 Bft) 100,00 %
16.04.2016 12:57 16,2 C 72 % 1004,1 hPa 0,0 l/m 1,9 km/h (1 Bft) NO 38 0 min 0,000 mm 1,5 UV-I 270 W/m 11,1 C 16,2 C 3,2 km/h (1 Bft) 100,00 %
16.04.2016 12:58 16,2 C 72 % 1004,1 hPa 0,0 l/m 2,3 km/h (1 Bft) N-NO 33 0 min 0,000 mm 1,5 UV-I 266 W/m 11,1 C 16,2 C 4,8 km/h (1 Bft) 100,00 %
16.04.2016 12:59 16,2 C 72 % 1004,1 hPa 0,0 l/m 4,8 km/h (1 Bft) NO 44 0 min 0,000 mm 1,5 UV-I 264 W/m 11,1 C 16,2 C 8,0 km/h (2 Bft) 100,00 %
16.04.2016 13:00 16,1 C 72 % 1004,1 hPa 0,0 l/m 2,2 km/h (1 Bft) N 10 0 min 0,000 mm 1,4 UV-I 263 W/m 11,0 C 16,1 C 4,8 km/h (1 Bft) 100,00 %
16.04.2016 13:01 16,1 C 69 % 1004,2 hPa 0,0 l/m 1,8 km/h (1 Bft) N-NW 342 0 min 0,177 mm 1,4 UV-I 262 W/m 10,4 C 16,1 C 3,2 km/h (1 Bft) 100,00 %
16.04.2016 13:02 16,1 C 70 % 1004,1 hPa 0,0 l/m 2,7 km/h (1 Bft) N-NO 20 0 min 0,000 mm 1,4 UV-I 262 W/m 10,6 C 16,1 C 8,0 km/h (2 Bft) 100,00 %
16.04.2016 13:03 16,1 C 71 % 1004,2 hPa 0,0 l/m 4,8 km/h (1 Bft) N-NO 32 0 min 0,000 mm 1,4 UV-I 262 W/m 10,8 C 16,1 C 6,4 km/h (2 Bft) 100,00 %
16.04.2016 13:04 16,1 C 70 % 1004,1 hPa 0,0 l/m 5,6 km/h (1 Bft) N-NO 32 0 min 0,000 mm 1,4 UV-I 261 W/m 10,6 C 16,1 C 8,0 km/h (2 Bft) 100,00 %
16.04.2016 13:05 16,1 C 71 % 1004,2 hPa 0,0 l/m 2,0 km/h (1 Bft) N 11 0 min 0,000 mm 1,4 UV-I 260 W/m 10,8 C 16,1 C 4,8 km/h (1 Bft) 100,00 %
16.04.2016 13:06 16,1 C 73 % 1004,2 hPa 0,0 l/m 0,9 km/h (0 Bft) NW 325 0 min 0,000 mm 1,4 UV-I 259 W/m 11,3 C 16,1 C 1,6 km/h (1 Bft) 100,00 %
16.04.2016 13:07 16,1 C 72 % 1004,3 hPa 0,0 l/m 2,0 km/h (1 Bft) N 11 0 min 0,000 mm 1,4 UV-I 257 W/m 11,0 C 16,1 C 4,8 km/h (1 Bft) 100,00 %
16.04.2016 13:08 16,1 C 69 % 1004,3 hPa 0,0 l/m 1,0 km/h (0 Bft) N-NW 346 0 min 0,000 mm 1,4 UV-I 257 W/m 10,4 C 16,1 C 3,2 km/h (1 Bft) 100,00 %
16.04.2016 13:09 16,0 C 68 % 1004,4 hPa 0,0 l/m 2,8 km/h (1 Bft) NW 313 0 min 0,000 mm 1,4 UV-I 257 W/m 10,1 C 16,0 C 4,8 km/h (1 Bft) 100,00 %
16.04.2016 13:10 16,1 C 69 % 1004,4 hPa 0,0 l/m 1,8 km/h (1 Bft) N 360 0 min 0,000 mm 1,4 UV-I 258 W/m 10,4 C 16,1 C 3,2 km/h (1 Bft) 100,00 %
16.04.2016 13:11 16,1 C 70 % 1004,4 hPa 0,0 l/m 0,9 km/h (0 Bft) N-NW 339 0 min 0,000 mm 1,4 UV-I 264 W/m 10,6 C 16,1 C 1,6 km/h (1 Bft) 100,00 %
16.04.2016 13:12 16,1 C 70 % 1004,4 hPa 0,0 l/m 2,0 km/h (1 Bft) N-NW 344 0 min 0,000 mm 1,5 UV-I 271 W/m 10,6 C 16,1 C 3,2 km/h (1 Bft) 100,00 %
16.04.2016 13:13 16,1 C 69 % 1004,4 hPa 0,0 l/m 1,6 km/h (1 Bft) NW 319 0 min 0,000 mm 1,6 UV-I 280 W/m 10,4 C 16,1 C 3,2 km/h (1 Bft) 100,00 %
16.04.2016 13:14 16,1 C 71 % 1004,4 hPa 0,0 l/m 0,6 km/h (0 Bft) NW 319 0 min 0,000 mm 1,6 UV-I 292 W/m 10,8 C 16,1 C 1,6 km/h (1 Bft) 95,65 %
16.04.2016 13:15 16,1 C 71 % 1004,4 hPa 0,0 l/m 1,0 km/h (0 Bft) N 355 0 min 0,000 mm 1,7 UV-I 304 W/m 10,8 C 16,1 C 3,2 km/h (1 Bft) 100,00 %
16.04.2016 13:16 16,1 C 71 % 1004,4 hPa 0,0 l/m 0,6 km/h (0 Bft) N 355 0 min 0,000 mm 1,7 UV-I 314 W/m 10,8 C 16,1 C 1,6 km/h (1 Bft) 100,00 %
16.04.2016 13:17 16,2 C 68 % 1004,5 hPa 0,0 l/m 1,2 km/h (1 Bft) N 349 0 min 0,000 mm 1,8 UV-I 325 W/m 10,3 C 16,2 C 3,2 km/h (1 Bft) 100,00 %
16.04.2016 13:18 16,2 C 68 % 1004,5 hPa 0,0 l/m 2,0 km/h (1 Bft) N 349 0 min 0,000 mm 1,9 UV-I 340 W/m 10,3 C 16,2 C 3,2 km/h (1 Bft) 96,15 %
16.04.2016 13:19 16,2 C 68 % 1004,5 hPa 0,0 l/m 0,6 km/h (0 Bft) N 349 0 min 0,000 mm 2,0 UV-I 363 W/m 10,3 C 16,2 C 1,6 km/h (1 Bft) 100,00 %
16.04.2016 13:20 16,3 C 70 % 1004,5 hPa 0,0 l/m 0,4 km/h (0 Bft) N 349 0 min 0,000 mm 2,1 UV-I 386 W/m 10,8 C 16,3 C 1,6 km/h (1 Bft) 100,00 %
16.04.2016 13:21 16,3 C 74 % 1004,6 hPa 0,0 l/m 0,1 km/h (0 Bft) N 349 0 min 0,000 mm 2,2 UV-I 408 W/m 11,7 C 16,3 C 1,6 km/h (1 Bft) 100,00 %
16.04.2016 13:22 16,4 C 74 % 1004,5 hPa 0,0 l/m 2,0 km/h (1 Bft) N-NO 24 0 min 0,000 mm 2,3 UV-I 426 W/m 11,8 C 16,4 C 4,8 km/h (1 Bft) 100,00 %
16.04.2016 13:23 16,5 C 71 % 1004,5 hPa 0,0 l/m 1,2 km/h (1 Bft) N-NW 336 1 min 0,000 mm 2,3 UV-I 434 W/m 11,2 C 16,5 C 3,2 km/h (1 Bft) 100,00 %
16.04.2016 13:24 16,6 C 70 % 1004,5 hPa 0,0 l/m 2,5 km/h (1 Bft) N-NW 329 1 min 0,000 mm 2,4 UV-I 432 W/m 11,1 C 16,6 C 3,2 km/h (1 Bft) 100,00 %
16.04.2016 13:25 16,6 C 70 % 1004,5 hPa 0,0 l/m 3,9 km/h (1 Bft) N-NW 333 1 min 0,000 mm 2,5 UV-I 448 W/m 11,1 C 16,6 C 4,8 km/h (1 Bft) 100,00 %
16.04.2016 13:26 16,7 C 69 % 1004,6 hPa 0,0 l/m 5,6 km/h (1 Bft) NW 304 1 min 0,000 mm 2,6 UV-I 490 W/m 11,0 C 16,7 C 11,3 km/h (2 Bft) 96,15 %
16.04.2016 13:27 16,7 C 68 % 1004,8 hPa 0,0 l/m 3,8 km/h (1 Bft) W-SW 254 1 min 0,000 mm 2,6 UV-I 475 W/m 10,8 C 16,7 C 6,4 km/h (2 Bft) 96,30 %
16.04.2016 13:28 16,8 C 68 % 1004,8 hPa 0,0 l/m 4,8 km/h (1 Bft) W-SW 257 0 min 0,000 mm 2,5 UV-I 414 W/m 10,9 C 16,8 C 6,4 km/h (2 Bft) 100,00 %
16.04.2016 13:29 16,8 C 67 % 1004,8 hPa 0,0 l/m 5,5 km/h (1 Bft) W 267 0 min 0,000 mm 2,4 UV-I 397 W/m 10,6 C 16,8 C 8,0 km/h (2 Bft) 100,00 %
16.04.2016 13:30 16,8 C 68 % 1004,9 hPa 0,0 l/m 3,6 km/h (1 Bft) W 274 0 min 0,000 mm 2,3 UV-I 407 W/m 10,9 C 16,8 C 4,8 km/h (1 Bft) 100,00 %
16.04.2016 13:31 16,8 C 68 % 1004,9 hPa 0,0 l/m 2,6 km/h (1 Bft) W 274 0 min 0,000 mm 2,2 UV-I 382 W/m 10,9 C 16,8 C 3,2 km/h (1 Bft) 100,00 %
16.04.2016 13:32 16,8 C 66 % 1005,0 hPa 0,0 l/m 3,7 km/h (1 Bft) W-SW 257 0 min 0,000 mm 2,2 UV-I 368 W/m 10,4 C 16,8 C 6,4 km/h (2 Bft) 100,00 %
16.04.2016 13:33 16,9 C 68 % 1005,0 hPa 0,0 l/m 4,1 km/h (1 Bft) W 264 0 min 0,000 mm 2,1 UV-I 357 W/m 11,0 C 16,9 C 6,4 km/h (2 Bft) 100,00 %
16.04.2016 13:34 16,9 C 68 % 1005,1 hPa 0,0 l/m 5,6 km/h (1 Bft) W 273 0 min 0,000 mm 2,1 UV-I 347 W/m 11,0 C 16,9 C 9,7 km/h (2 Bft) 100,00 %
16.04.2016 13:35 16,8 C 68 % 1005,1 hPa 0,0 l/m 8,0 km/h (2 Bft) NW 309 0 min 0,000 mm 2,0 UV-I 338 W/m 10,9 C 16,0 C 16,1 km/h (3 Bft) 100,00 %
16.04.2016 13:36 16,8 C 67 % 1005,1 hPa 0,0 l/m 6,5 km/h (2 Bft) W 277 0 min 0,000 mm 1,9 UV-I 326 W/m 10,6 C 16,8 C 12,9 km/h (3 Bft) 100,00 %
16.04.2016 13:37 16,8 C 66 % 1005,1 hPa 0,0 l/m 6,1 km/h (2 Bft) W-SW 254 0 min 0,000 mm 1,8 UV-I 308 W/m 10,4 C 16,8 C 12,9 km/h (3 Bft) 100,00 %
16.04.2016 13:38 16,8 C 66 % 1005,1 hPa 0,0 l/m 6,9 km/h (2 Bft) W 265 0 min 0,000 mm 1,7 UV-I 298 W/m 10,4 C 16,5 C 11,3 km/h (2 Bft) 100,00 %
16.04.2016 13:39 16,7 C 67 % 1005,2 hPa 0,0 l/m 7,0 km/h (2 Bft) N-NW 327 0 min 0,000 mm 1,7 UV-I 292 W/m 10,5 C 16,4 C 9,7 km/h (2 Bft) 100,00 %
16.04.2016 13:40 16,7 C 66 % 1005,2 hPa 0,0 l/m 5,5 km/h (1 Bft) W 268 0 min 0,000 mm 1,6 UV-I 288 W/m 10,3 C 16,7 C 9,7 km/h (2 Bft) 100,00 %
16.04.2016 13:41 16,7 C 66 % 1005,3 hPa 0,0 l/m 4,9 km/h (1 Bft) W-NW 288 0 min 0,000 mm 1,6 UV-I 288 W/m 10,3 C 16,7 C 11,3 km/h (2 Bft) 96,15 %
16.04.2016 13:42 16,7 C 68 % 1005,3 hPa 0,0 l/m 4,7 km/h (1 Bft) W-SW 250 0 min 0,000 mm 1,6 UV-I 288 W/m 10,8 C 16,7 C 6,4 km/h (2 Bft) 100,00 %
16.04.2016 13:43 16,7 C 68 % 1005,5 hPa 0,0 l/m 8,3 km/h (2 Bft) W-SW 244 0 min 0,000 mm 1,6 UV-I 288 W/m 10,8 C 15,7 C 11,3 km/h (2 Bft) 100,00 %
16.04.2016 13:44 16,7 C 67 % 1005,6 hPa 0,0 l/m 6,0 km/h (2 Bft) W-NW 296 0 min 0,000 mm 1,6 UV-I 287 W/m 10,5 C 16,7 C 11,3 km/h (2 Bft) 100,00 %
16.04.2016 13:45 16,6 C 68 % 1005,6 hPa 0,0 l/m 5,2 km/h (1 Bft) W 259 0 min 0,000 mm 1,6 UV-I 284 W/m 10,7 C 16,6 C 6,4 km/h (2 Bft) 100,00 %
16.04.2016 13:46 16,6 C 67 % 1005,6 hPa 0,0 l/m 6,8 km/h (2 Bft) NW 319 0 min 0,000 mm 1,6 UV-I 283 W/m 10,4 C 16,4 C 12,9 km/h (3 Bft) 95,83 %
16.04.2016 13:47 16,6 C 69 % 1005,6 hPa 0,0 l/m 4,0 km/h (1 Bft) W-SW 247 0 min 0,000 mm 1,6 UV-I 287 W/m 10,9 C 16,6 C 6,4 km/h (2 Bft) 100,00 %
16.04.2016 13:48 16,6 C 67 % 1005,6 hPa 0,0 l/m 4,4 km/h (1 Bft) W-NW 288 0 min 0,000 mm 1,6 UV-I 288 W/m 10,4 C 16,6 C 6,4 km/h (2 Bft) 96,30 %
16.04.2016 13:49 16,6 C 67 % 1005,6 hPa 0,0 l/m 5,1 km/h (1 Bft) W 261 0 min 0,000 mm 1,6 UV-I 287 W/m 10,4 C 16,6 C 9,7 km/h (2 Bft) 96,15 %
16.04.2016 13:50 16,5 C 67 % 1005,6 hPa 0,0 l/m 5,3 km/h (1 Bft) W 265 0 min 0,000 mm 1,5 UV-I 282 W/m 10,4 C 16,5 C 6,4 km/h (2 Bft) 100,00 %
16.04.2016 13:51 16,5 C 67 % 1005,7 hPa 0,0 l/m 5,4 km/h (1 Bft) W-SW 243 0 min 0,000 mm 1,5 UV-I 277 W/m 10,4 C 16,5 C 11,3 km/h (2 Bft) 100,00 %
16.04.2016 13:52 16,4 C 68 % 1005,7 hPa 0,0 l/m 6,9 km/h (2 Bft) W-SW 248 0 min 0,000 mm 1,5 UV-I 274 W/m 10,5 C 16,1 C 12,9 km/h (3 Bft) 96,88 %
16.04.2016 13:53 16,4 C 69 % 1005,7 hPa 0,0 l/m 5,6 km/h (1 Bft) W-SW 246 0 min 0,000 mm 1,5 UV-I 271 W/m 10,7 C 16,4 C 11,3 km/h (2 Bft) 100,00 %
16.04.2016 13:54 16,4 C 68 % 1005,7 hPa 0,0 l/m 9,5 km/h (2 Bft) W-SW 253 0 min 0,000 mm 1,5 UV-I 269 W/m 10,5 C 14,9 C 12,9 km/h (3 Bft) 92,86 %
16.04.2016 13:55 16,4 C 68 % 1005,7 hPa 0,0 l/m 9,3 km/h (2 Bft) W-SW 246 0 min 0,000 mm 1,4 UV-I 262 W/m 10,5 C 15,0 C 12,9 km/h (3 Bft) 97,62 %
16.04.2016 13:56 16,3 C 67 % 1005,7 hPa 0,0 l/m 9,9 km/h (2 Bft) W-SW 247 0 min 0,000 mm 1,4 UV-I 254 W/m 10,2 C 14,6 C 12,9 km/h (3 Bft) 100,00 %
16.04.2016 13:57 16,3 C 67 % 1005,8 hPa 0,0 l/m 10,6 km/h (2 Bft) W 261 0 min 0,000 mm 1,4 UV-I 250 W/m 10,2 C 14,3 C 16,1 km/h (3 Bft) 92,59 %
16.04.2016 13:58 16,3 C 68 % 1005,8 hPa 0,0 l/m 6,4 km/h (2 Bft) W 270 0 min 0,000 mm 1,4 UV-I 254 W/m 10,4 C 16,3 C 12,9 km/h (3 Bft) 92,31 %
16.04.2016 13:59 16,2 C 68 % 1005,8 hPa 0,0 l/m 4,6 km/h (1 Bft) W 268 0 min 0,000 mm 1,4 UV-I 266 W/m 10,3 C 16,2 C 14,5 km/h (3 Bft) 91,67 %
16.04.2016 14:00 16,2 C 69 % 1005,8 hPa 0,0 l/m 2,8 km/h (1 Bft) S-SW 205 0 min 0,178 mm 1,6 UV-I 286 W/m 10,5 C 16,2 C 4,8 km/h (1 Bft) 96,15 %
16.04.2016 14:01 16,2 C 69 % 1005,8 hPa 0,0 l/m 4,8 km/h (1 Bft) W 261 0 min 0,000 mm 1,7 UV-I 309 W/m 10,5 C 16,2 C 6,4 km/h (2 Bft) 100,00 %
16.04.2016 14:02 16,2 C 69 % 1005,8 hPa 0,0 l/m 5,2 km/h (1 Bft) W 263 0 min 0,000 mm 1,8 UV-I 333 W/m 10,5 C 16,2 C 6,4 km/h (2 Bft) 95,65 %
16.04.2016 14:03 16,2 C 68 % 1005,8 hPa 0,0 l/m 4,4 km/h (1 Bft) W-SW 244 0 min 0,000 mm 2,0 UV-I 350 W/m 10,3 C 16,2 C 8,0 km/h (2 Bft) 93,33 %
16.04.2016 14:04 16,2 C 68 % 1005,9 hPa 0,0 l/m 8,4 km/h (2 Bft) W 281 0 min 0,000 mm 2,3 UV-I 350 W/m 10,3 C 15,2 C 14,5 km/h (3 Bft) 96,15 %
16.04.2016 14:05 16,3 C 69 % 1005,9 hPa 0,0 l/m 6,1 km/h (2 Bft) W-SW 250 1 min 0,000 mm 2,6 UV-I 483 W/m 10,6 C 16,3 C 11,3 km/h (2 Bft) 100,00 %
16.04.2016 14:06 16,3 C 67 % 1005,9 hPa 0,0 l/m 3,5 km/h (1 Bft) W 271 1 min 0,000 mm 2,8 UV-I 541 W/m 10,2 C 16,3 C 6,4 km/h (2 Bft) 96,15 %
16.04.2016 14:07 16,4 C 68 % 1006,0 hPa 0,0 l/m 6,8 km/h (2 Bft) W-SW 258 1 min 0,000 mm 2,8 UV-I 548 W/m 10,5 C 16,2 C 12,9 km/h (3 Bft) 100,00 %
16.04.2016 14:08 16,4 C 66 % 1006,0 hPa 0,0 l/m 7,3 km/h (2 Bft) W 261 1 min 0,000 mm 2,6 UV-I 482 W/m 10,0 C 15,9 C 14,5 km/h (3 Bft) 96,15 %
16.04.2016 14:09 16,5 C 66 % 1006,1 hPa 0,0 l/m 11,5 km/h (2 Bft) W 277 0 min 0,000 mm 2,4 UV-I 408 W/m 10,1 C 14,2 C 16,1 km/h (3 Bft) 95,83 %
16.04.2016 14:10 16,6 C 65 % 1006,1 hPa 0,0 l/m 9,5 km/h (2 Bft) W 280 0 min 0,000 mm 2,3 UV-I 384 W/m 10,0 C 15,1 C 16,1 km/h (3 Bft) 100,00 %
16.04.2016 14:11 16,6 C 65 % 1006,1 hPa 0,0 l/m 4,7 km/h (1 Bft) NW 316 0 min 0,000 mm 2,1 UV-I 362 W/m 10,0 C 16,6 C 11,3 km/h (2 Bft) 96,30 %
16.04.2016 14:12 16,6 C 65 % 1006,1 hPa 0,0 l/m 5,7 km/h (1 Bft) W-SW 251 0 min 0,000 mm 2,0 UV-I 333 W/m 10,0 C 16,6 C 11,3 km/h (2 Bft) 100,00 %
16.04.2016 14:13 16,6 C 65 % 1006,1 hPa 0,0 l/m 7,1 km/h (2 Bft) W-SW 242 0 min 0,000 mm 1,9 UV-I 315 W/m 10,0 C 16,2 C 9,7 km/h (2 Bft) 95,83 %
16.04.2016 14:14 16,6 C 66 % 1006,1 hPa 0,0 l/m 11,7 km/h (2 Bft) SW 226 0 min 0,000 mm 1,9 UV-I 303 W/m 10,2 C 14,2 C 17,7 km/h (3 Bft) 100,00 %
16.04.2016 14:15 16,7 C 66 % 1006,2 hPa 0,0 l/m 17,1 km/h (3 Bft) W-SW 244 0 min 0,000 mm 1,8 UV-I 292 W/m 10,3 C 12,7 C 24,1 km/h (4 Bft) 95,65 %
16.04.2016 14:16 16,6 C 65 % 1006,2 hPa 0,0 l/m 11,8 km/h (2 Bft) W-SW 246 0 min 0,000 mm 1,7 UV-I 284 W/m 10,0 C 14,2 C 16,1 km/h (3 Bft) 100,00 %
16.04.2016 14:17 16,6 C 65 % 1006,1 hPa 0,0 l/m 13,5 km/h (3 Bft) W-SW 246 0 min 0,000 mm 1,7 UV-I 278 W/m 10,0 C 13,6 C 20,9 km/h (4 Bft) 96,15 %
16.04.2016 14:18 16,5 C 65 % 1006,1 hPa 0,0 l/m 8,2 km/h (2 Bft) W-SW 242 0 min 0,000 mm 1,6 UV-I 276 W/m 9,9 C 15,6 C 12,9 km/h (3 Bft) 96,30 %
16.04.2016 14:19 16,4 C 66 % 1006,1 hPa 0,0 l/m 10,9 km/h (2 Bft) W-SW 237 0 min 0,000 mm 1,6 UV-I 280 W/m 10,0 C 14,3 C 14,5 km/h (3 Bft) 96,55 %
16.04.2016 14:20 16,4 C 64 % 1006,0 hPa 0,0 l/m 10,2 km/h (2 Bft) W-SW 254 0 min 0,000 mm 1,7 UV-I 287 W/m 9,6 C 14,6 C 16,1 km/h (3 Bft) 100,00 %
16.04.2016 14:21 16,4 C 66 % 1006,0 hPa 0,0 l/m 11,5 km/h (2 Bft) W 265 0 min 0,000 mm 1,7 UV-I 296 W/m 10,0 C 14,1 C 17,7 km/h (3 Bft) 96,15 %
16.04.2016 14:22 16,4 C 67 % 1006,0 hPa 0,0 l/m 5,3 km/h (1 Bft) W 267 0 min 0,000 mm 1,7 UV-I 309 W/m 10,3 C 16,4 C 9,7 km/h (2 Bft) 96,67 %
16.04.2016 14:23 16,4 C 67 % 1006,1 hPa 0,0 l/m 5,5 km/h (1 Bft) W-SW 251 0 min 0,000 mm 1,8 UV-I 320 W/m 10,3 C 16,4 C 8,0 km/h (2 Bft) 100,00 %
16.04.2016 14:24 16,4 C 68 % 1006,1 hPa 0,0 l/m 6,2 km/h (2 Bft) W 273 0 min 0,000 mm 1,8 UV-I 330 W/m 10,5 C 16,4 C 9,7 km/h (2 Bft) 100,00 %
16.04.2016 14:25 16,4 C 67 % 1006,1 hPa 0,0 l/m 6,5 km/h (2 Bft) W-SW 256 0 min 0,000 mm 1,8 UV-I 332 W/m 10,3 C 16,4 C 11,3 km/h (2 Bft) 100,00 %
16.04.2016 14:26 16,5 C 68 % 1006,1 hPa 0,0 l/m 9,4 km/h (2 Bft) W 271 0 min 0,000 mm 1,8 UV-I 330 W/m 10,6 C 15,0 C 16,1 km/h (3 Bft) 100,00 %
16.04.2016 14:27 16,6 C 65 % 1006,1 hPa 0,0 l/m 12,7 km/h (3 Bft) W 275 0 min 0,000 mm 1,8 UV-I 324 W/m 10,0 C 13,9 C 19,3 km/h (3 Bft) 100,00 %
16.04.2016 14:28 16,6 C 66 % 1006,1 hPa 0,0 l/m 9,0 km/h (2 Bft) W 264 0 min 0,000 mm 1,8 UV-I 327 W/m 10,2 C 15,3 C 11,3 km/h (2 Bft) 100,00 %
16.04.2016 14:29 16,6 C 64 % 1006,1 hPa 0,0 l/m 11,3 km/h (2 Bft) W 266 0 min 0,000 mm 1,8 UV-I 345 W/m 9,8 C 14,4 C 16,1 km/h (3 Bft) 96,55 %
16.04.2016 14:30 16,6 C 66 % 1006,1 hPa 0,0 l/m 4,8 km/h (1 Bft) NW 306 0 min 0,000 mm 2,0 UV-I 381 W/m 10,2 C 16,6 C 9,7 km/h (2 Bft) 100,00 %
16.04.2016 14:31 16,7 C 67 % 1006,1 hPa 0,0 l/m 8,4 km/h (2 Bft) W 265 0 min 0,000 mm 2,1 UV-I 406 W/m 10,5 C 15,7 C 17,7 km/h (3 Bft) 93,33 %
16.04.2016 14:32 16,7 C 65 % 1006,1 hPa 0,0 l/m 8,8 km/h (2 Bft) W-SW 245 1 min 0,000 mm 2,3 UV-I 459 W/m 10,1 C 15,5 C 14,5 km/h (3 Bft) 100,00 %
16.04.2016 14:33 16,7 C 65 % 1006,1 hPa 0,0 l/m 6,1 km/h (2 Bft) W 267 1 min 0,000 mm 2,4 UV-I 462 W/m 10,1 C 16,7 C 9,7 km/h (2 Bft) 100,00 %
16.04.2016 14:34 16,8 C 65 % 1006,1 hPa 0,0 l/m 5,6 km/h (1 Bft) W-NW 299 1 min 0,000 mm 2,3 UV-I 462 W/m 10,2 C 16,8 C 6,4 km/h (2 Bft) 100,00 %
16.04.2016 14:35 16,8 C 66 % 1006,1 hPa 0,0 l/m 9,3 km/h (2 Bft) W-SW 258 1 min 0,000 mm 2,2 UV-I 411 W/m 10,4 C 15,4 C 16,1 km/h (3 Bft) 100,00 %
16.04.2016 14:36 16,9 C 64 % 1006,1 hPa 0,0 l/m 12,6 km/h (3 Bft) W-SW 242 0 min 0,000 mm 2,1 UV-I 374 W/m 10,0 C 14,3 C 17,7 km/h (3 Bft) 96,15 %
16.04.2016 14:37 16,9 C 64 % 1006,1 hPa 0,0 l/m 9,1 km/h (2 Bft) W 269 0 min 0,000 mm 2,1 UV-I 355 W/m 10,0 C 15,6 C 12,9 km/h (3 Bft) 100,00 %
16.04.2016 14:38 16,9 C 64 % 1006,2 hPa 0,0 l/m 7,5 km/h (2 Bft) W-SW 242 0 min 0,000 mm 2,0 UV-I 330 W/m 10,0 C 16,3 C 14,5 km/h (3 Bft) 100,00 %
16.04.2016 14:39 16,9 C 63 % 1006,2 hPa 0,0 l/m 14,2 km/h (3 Bft) W-SW 257 0 min 0,000 mm 1,8 UV-I 310 W/m 9,8 C 13,7 C 17,7 km/h (3 Bft) 100,00 %
16.04.2016 14:40 16,8 C 62 % 1006,2 hPa 0,0 l/m 11,9 km/h (2 Bft) W-NW 282 0 min 0,000 mm 1,7 UV-I 303 W/m 9,5 C 14,4 C 14,5 km/h (3 Bft) 100,00 %
16.04.2016 14:41 16,8 C 62 % 1006,3 hPa 0,0 l/m 6,0 km/h (2 Bft) W 263 0 min 0,000 mm 1,7 UV-I 325 W/m 9,5 C 16,8 C 12,9 km/h (3 Bft) 100,00 %
16.04.2016 14:42 16,8 C 62 % 1006,3 hPa 0,0 l/m 14,4 km/h (3 Bft) W-SW 237 0 min 0,000 mm 1,7 UV-I 312 W/m 9,5 C 13,6 C 24,1 km/h (4 Bft) 85,71 %
16.04.2016 14:43 16,7 C 62 % 1006,3 hPa 0,0 l/m 14,8 km/h (3 Bft) SW 217 0 min 0,000 mm 1,7 UV-I 307 W/m 9,4 C 13,3 C 19,3 km/h (3 Bft) 100,00 %
16.04.2016 14:44 16,7 C 62 % 1006,4 hPa 0,0 l/m 15,5 km/h (3 Bft) W 260 0 min 0,000 mm 1,7 UV-I 309 W/m 9,4 C 13,1 C 19,3 km/h (3 Bft) 100,00 %
16.04.2016 14:45 16,7 C 62 % 1006,4 hPa 0,0 l/m 15,5 km/h (3 Bft) W-SW 252 0 min 0,000 mm 1,7 UV-I 307 W/m 9,4 C 13,1 C 17,7 km/h (3 Bft) 100,00 %
16.04.2016 14:46 16,7 C 62 % 1006,4 hPa 0,0 l/m 17,0 km/h (3 Bft) W 269 0 min 0,000 mm 1,6 UV-I 302 W/m 9,4 C 12,7 C 19,3 km/h (3 Bft) 100,00 %
16.04.2016 14:47 16,6 C 62 % 1006,4 hPa 0,0 l/m 19,8 km/h (3 Bft) W 275 0 min 0,000 mm 1,5 UV-I 288 W/m 9,3 C 11,9 C 25,7 km/h (4 Bft) 100,00 %
16.04.2016 14:48 16,6 C 62 % 1006,5 hPa 0,0 l/m 12,4 km/h (3 Bft) W-SW 248 0 min 0,000 mm 1,5 UV-I 273 W/m 9,3 C 14,0 C 16,1 km/h (3 Bft) 100,00 %
16.04.2016 14:49 16,6 C 63 % 1006,5 hPa 0,0 l/m 9,9 km/h (2 Bft) W 275 0 min 0,000 mm 1,4 UV-I 260 W/m 9,5 C 14,9 C 14,5 km/h (3 Bft) 100,00 %
16.04.2016 14:50 16,6 C 63 % 1006,4 hPa 0,0 l/m 13,9 km/h (3 Bft) W-SW 252 0 min 0,000 mm 1,4 UV-I 250 W/m 9,5 C 13,5 C 17,7 km/h (3 Bft) 100,00 %
16.04.2016 14:51 16,5 C 64 % 1006,5 hPa 0,0 l/m 12,1 km/h (2 Bft) W-SW 244 0 min 0,000 mm 1,3 UV-I 245 W/m 9,7 C 14,0 C 19,3 km/h (3 Bft) 100,00 %
16.04.2016 14:52 16,5 C 63 % 1006,5 hPa 0,0 l/m 14,4 km/h (3 Bft) W 263 0 min 0,000 mm 1,3 UV-I 242 W/m 9,4 C 13,2 C 19,3 km/h (3 Bft) 100,00 %
16.04.2016 14:53 16,4 C 63 % 1006,5 hPa 0,0 l/m 16,9 km/h (3 Bft) W-SW 248 0 min 0,000 mm 1,3 UV-I 239 W/m 9,3 C 12,3 C 24,1 km/h (4 Bft) 100,00 %
16.04.2016 14:54 16,4 C 63 % 1006,6 hPa 0,0 l/m 16,7 km/h (3 Bft) W 274 0 min 0,000 mm 1,3 UV-I 234 W/m 9,3 C 12,4 C 19,3 km/h (3 Bft) 100,00 %
16.04.2016 14:55 16,4 C 63 % 1006,6 hPa 0,0 l/m 11,3 km/h (2 Bft) NW 313 0 min 0,000 mm 1,2 UV-I 229 W/m 9,3 C 14,1 C 17,7 km/h (3 Bft) 100,00 %
16.04.2016 14:56 16,4 C 64 % 1006,6 hPa 0,0 l/m 13,3 km/h (3 Bft) W-SW 252 0 min 0,000 mm 1,2 UV-I 221 W/m 9,6 C 13,4 C 19,3 km/h (3 Bft) 100,00 %
16.04.2016 14:57 16,4 C 64 % 1006,6 hPa 0,0 l/m 10,4 km/h (2 Bft) W-SW 246 0 min 0,000 mm 1,1 UV-I 215 W/m 9,6 C 14,5 C 17,7 km/h (3 Bft) 100,00 %
16.04.2016 14:58 16,4 C 65 % 1006,7 hPa 0,0 l/m 12,6 km/h (3 Bft) W 260 0 min 0,000 mm 1,1 UV-I 208 W/m 9,8 C 13,7 C 17,7 km/h (3 Bft) 100,00 %
16.04.2016 14:59 16,3 C 65 % 1006,7 hPa 0,0 l/m 9,9 km/h (2 Bft) W-SW 254 0 min 0,000 mm 1,0 UV-I 202 W/m 9,7 C 14,6 C 12,9 km/h (3 Bft) 100,00 %
16.04.2016 15:00 16,3 C 65 % 1006,7 hPa 0,0 l/m 9,1 km/h (2 Bft) W 279 0 min 0,229 mm 1,0 UV-I 199 W/m 9,7 C 14,9 C 14,5 km/h (3 Bft) 100,00 %
16.04.2016 15:01 16,3 C 64 % 1006,8 hPa 0,0 l/m 11,8 km/h (2 Bft) W 261 0 min 0,000 mm 1,0 UV-I 200 W/m 9,5 C 13,8 C 14,5 km/h (3 Bft) 100,00 %
16.04.2016 15:02 16,3 C 65 % 1006,7 hPa 0,0 l/m 11,1 km/h (2 Bft) W 276 0 min 0,000 mm 1,0 UV-I 209 W/m 9,7 C 14,1 C 12,9 km/h (3 Bft) 100,00 %
16.04.2016 15:03 16,3 C 65 % 1006,7 hPa 0,0 l/m 11,9 km/h (2 Bft) W 273 0 min 0,000 mm 1,1 UV-I 224 W/m 9,7 C 13,8 C 16,1 km/h (3 Bft) 100,00 %
16.04.2016 15:04 16,3 C 65 % 1006,8 hPa 0,0 l/m 10,0 km/h (2 Bft) W-SW 249 0 min 0,000 mm 1,2 UV-I 243 W/m 9,7 C 14,6 C 16,1 km/h (3 Bft) 100,00 %
16.04.2016 15:05 16,3 C 65 % 1006,8 hPa 0,0 l/m 7,2 km/h (2 Bft) W 260 0 min 0,000 mm 1,3 UV-I 267 W/m 9,7 C 15,9 C 12,9 km/h (3 Bft) 100,00 %
16.04.2016 15:06 16,3 C 66 % 1006,8 hPa 0,0 l/m 7,6 km/h (2 Bft) W 259 0 min 0,000 mm 1,3 UV-I 285 W/m 9,9 C 15,7 C 11,3 km/h (2 Bft) 100,00 %
16.04.2016 15:07 16,4 C 66 % 1006,8 hPa 0,0 l/m 10,7 km/h (2 Bft) W 271 0 min 0,000 mm 1,4 UV-I 296 W/m 10,0 C 14,4 C 20,9 km/h (4 Bft) 100,00 %
16.04.2016 15:08 16,4 C 65 % 1006,7 hPa 0,0 l/m 10,0 km/h (2 Bft) W 265 0 min 0,000 mm 1,5 UV-I 305 W/m 9,8 C 14,7 C 16,1 km/h (3 Bft) 100,00 %
16.04.2016 15:09 16,4 C 65 % 1006,7 hPa 0,0 l/m 14,5 km/h (3 Bft) W 270 0 min 0,000 mm 1,5 UV-I 315 W/m 9,8 C 13,0 C 17,7 km/h (3 Bft) 100,00 %
16.04.2016 15:10 16,4 C 64 % 1006,7 hPa 0,0 l/m 9,3 km/h (2 Bft) SW 232 0 min 0,000 mm 1,6 UV-I 325 W/m 9,6 C 15,0 C 14,5 km/h (3 Bft) 100,00 %
16.04.2016 15:11 16,4 C 65 % 1006,7 hPa 0,0 l/m 6,5 km/h (2 Bft) W 270 0 min 0,000 mm 1,6 UV-I 340 W/m 9,8 C 16,4 C 11,3 km/h (2 Bft) 100,00 %
16.04.2016 15:12 16,5 C 65 % 1006,8 hPa 0,0 l/m 5,2 km/h (1 Bft) W 267 0 min 0,000 mm 1,7 UV-I 349 W/m 9,9 C 16,5 C 11,3 km/h (2 Bft) 100,00 %
16.04.2016 15:13 16,6 C 65 % 1006,8 hPa 0,0 l/m 10,1 km/h (2 Bft) W 259 0 min 0,000 mm 1,7 UV-I 369 W/m 10,0 C 14,8 C 12,9 km/h (3 Bft) 100,00 %
16.04.2016 15:14 16,6 C 65 % 1006,9 hPa 0,0 l/m 6,8 km/h (2 Bft) W-SW 250 1 min 0,000 mm 1,8 UV-I 405 W/m 10,0 C 16,4 C 11,3 km/h (2 Bft) 100,00 %
16.04.2016 15:15 16,7 C 67 % 1006,9 hPa 0,0 l/m 6,9 km/h (2 Bft) W-NW 286 1 min 0,000 mm 2,0 UV-I 445 W/m 10,5 C 16,4 C 11,3 km/h (2 Bft) 100,00 %
16.04.2016 15:16 16,8 C 66 % 1006,9 hPa 0,0 l/m 10,1 km/h (2 Bft) W 281 1 min 0,000 mm 2,2 UV-I 487 W/m 10,4 C 15,1 C 16,1 km/h (3 Bft) 100,00 %
16.04.2016 15:17 16,8 C 66 % 1007,0 hPa 0,0 l/m 10,7 km/h (2 Bft) W-SW 250 1 min 0,000 mm 2,2 UV-I 475 W/m 10,4 C 14,8 C 14,5 km/h (3 Bft) 100,00 %
16.04.2016 15:18 16,9 C 65 % 1006,9 hPa 0,0 l/m 8,6 km/h (2 Bft) W-SW 258 1 min 0,000 mm 2,2 UV-I 455 W/m 10,3 C 15,8 C 12,9 km/h (3 Bft) 100,00 %
16.04.2016 15:19 17,1 C 65 % 1007,0 hPa 0,0 l/m 9,7 km/h (2 Bft) W-SW 250 1 min 0,000 mm 2,5 UV-I 455 W/m 10,5 C 15,6 C 12,9 km/h (3 Bft) 96,30 %
16.04.2016 15:20 17,2 C 66 % 1007,0 hPa 0,0 l/m 11,4 km/h (2 Bft) W 268 1 min 0,000 mm 2,4 UV-I 588 W/m 10,8 C 15,0 C 16,1 km/h (3 Bft) 96,15 %
16.04.2016 15:21 17,2 C 64 % 1007,0 hPa 0,0 l/m 7,8 km/h (2 Bft) W-NW 285 1 min 0,000 mm 2,7 UV-I 734 W/m 10,3 C 16,5 C 12,9 km/h (3 Bft) 100,00 %
16.04.2016 15:22 17,3 C 65 % 1006,9 hPa 0,0 l/m 11,5 km/h (2 Bft) W-NW 286 1 min 0,000 mm 2,7 UV-I 676 W/m 10,7 C 15,1 C 17,7 km/h (3 Bft) 100,00 %
16.04.2016 15:23 17,4 C 64 % 1006,9 hPa 0,0 l/m 10,2 km/h (2 Bft) N 355 1 min 0,000 mm 2,7 UV-I 659 W/m 10,5 C 15,7 C 14,5 km/h (3 Bft) 100,00 %
16.04.2016 15:24 17,4 C 63 % 1006,9 hPa 0,0 l/m 6,3 km/h (2 Bft) W-NW 290 1 min 0,000 mm 2,5 UV-I 618 W/m 10,3 C 17,4 C 11,3 km/h (2 Bft) 96,55 %
16.04.2016 15:25 17,5 C 63 % 1006,9 hPa 0,0 l/m 10,1 km/h (2 Bft) W-SW 252 1 min 0,000 mm 1,9 UV-I 638 W/m 10,4 C 15,8 C 14,5 km/h (3 Bft) 100,00 %
16.04.2016 15:26 17,4 C 62 % 1006,8 hPa 0,0 l/m 10,5 km/h (2 Bft) W 259 1 min 0,000 mm 1,8 UV-I 420 W/m 10,0 C 15,6 C 16,1 km/h (3 Bft) 100,00 %
16.04.2016 15:27 17,3 C 62 % 1006,8 hPa 0,0 l/m 9,5 km/h (2 Bft) NW 318 0 min 0,000 mm 1,8 UV-I 331 W/m 9,9 C 15,9 C 14,5 km/h (3 Bft) 100,00 %
16.04.2016 15:28 17,3 C 65 % 1006,9 hPa 0,0 l/m 8,9 km/h (2 Bft) W 263 0 min 0,000 mm 1,7 UV-I 284 W/m 10,7 C 16,1 C 14,5 km/h (3 Bft) 100,00 %
16.04.2016 15:29 17,3 C 61 % 1006,8 hPa 0,0 l/m 8,6 km/h (2 Bft) W-NW 297 0 min 0,000 mm 1,6 UV-I 271 W/m 9,7 C 16,2 C 12,9 km/h (3 Bft) 100,00 %
16.04.2016 15:30 17,2 C 62 % 1006,9 hPa 0,0 l/m 5,7 km/h (1 Bft) W-SW 246 0 min 0,000 mm 1,5 UV-I 266 W/m 9,9 C 17,2 C 12,9 km/h (3 Bft) 100,00 %
16.04.2016 15:31 17,1 C 63 % 1007,0 hPa 0,0 l/m 13,4 km/h (3 Bft) W-SW 239 0 min 0,000 mm 1,5 UV-I 260 W/m 10,0 C 14,2 C 17,7 km/h (3 Bft) 100,00 %
16.04.2016 15:32 17,1 C 62 % 1007,0 hPa 0,0 l/m 9,8 km/h (2 Bft) W 265 0 min 0,000 mm 1,4 UV-I 258 W/m 9,8 C 15,5 C 12,9 km/h (3 Bft) 100,00 %
16.04.2016 15:33 17,1 C 64 % 1007,0 hPa 0,0 l/m 8,6 km/h (2 Bft) W-SW 246 0 min 0,000 mm 1,3 UV-I 253 W/m 10,2 C 16,0 C 12,9 km/h (3 Bft) 100,00 %
16.04.2016 15:34 17,0 C 63 % 1006,8 hPa 0,0 l/m 13,0 km/h (3 Bft) W-SW 254 0 min 0,000 mm 1,3 UV-I 242 W/m 9,9 C 14,2 C 22,5 km/h (4 Bft) 100,00 %
16.04.2016 15:35 16,9 C 61 % 1006,8 hPa 0,0 l/m 16,1 km/h (3 Bft) W-SW 258 0 min 0,000 mm 1,2 UV-I 231 W/m 9,3 C 13,2 C 22,5 km/h (4 Bft) 100,00 %
16.04.2016 15:36 16,9 C 62 % 1006,8 hPa 0,0 l/m 8,0 km/h (2 Bft) NW 313 0 min 0,000 mm 1,2 UV-I 218 W/m 9,6 C 16,1 C 12,9 km/h (3 Bft) 93,33 %
16.04.2016 15:37 16,9 C 62 % 1006,9 hPa 0,0 l/m 7,2 km/h (2 Bft) W-SW 250 0 min 0,000 mm 1,1 UV-I 208 W/m 9,6 C 16,5 C 11,3 km/h (2 Bft) 96,15 %
16.04.2016 15:38 16,8 C 62 % 1006,8 hPa 0,0 l/m 13,4 km/h (3 Bft) W 261 0 min 0,000 mm 1,0 UV-I 198 W/m 9,5 C 13,9 C 17,7 km/h (3 Bft) 100,00 %
16.04.2016 15:39 16,8 C 61 % 1006,8 hPa 0,0 l/m 9,6 km/h (2 Bft) NW 313 0 min 0,000 mm 0,9 UV-I 189 W/m 9,2 C 15,3 C 16,1 km/h (3 Bft) 100,00 %
16.04.2016 15:40 16,8 C 62 % 1006,9 hPa 0,0 l/m 6,8 km/h (2 Bft) W 265 0 min 0,000 mm 0,9 UV-I 178 W/m 9,5 C 16,6 C 11,3 km/h (2 Bft) 100,00 %
16.04.2016 15:41 16,7 C 62 % 1006,9 hPa 0,0 l/m 12,3 km/h (3 Bft) W-SW 254 0 min 0,000 mm 0,8 UV-I 171 W/m 9,4 C 14,1 C 20,9 km/h (4 Bft) 100,00 %
16.04.2016 15:42 16,7 C 62 % 1006,8 hPa 0,0 l/m 10,7 km/h (2 Bft) W 278 0 min 0,000 mm 0,8 UV-I 165 W/m 9,4 C 14,7 C 17,7 km/h (3 Bft) 95,83 %
16.04.2016 15:43 16,7 C 63 % 1006,8 hPa 0,0 l/m 6,9 km/h (2 Bft) W-SW 254 0 min 0,000 mm 0,8 UV-I 160 W/m 9,6 C 16,4 C 11,3 km/h (2 Bft) 100,00 %
16.04.2016 15:44 16,6 C 63 % 1006,9 hPa 0,0 l/m 5,6 km/h (1 Bft) W-NW 292 0 min 0,000 mm 0,7 UV-I 156 W/m 9,5 C 16,6 C 9,7 km/h (2 Bft) 96,30 %
16.04.2016 15:45 16,6 C 63 % 1006,9 hPa 0,0 l/m 3,2 km/h (1 Bft) W 279 0 min 0,000 mm 0,7 UV-I 152 W/m 9,5 C 16,6 C 6,4 km/h (2 Bft) 100,00 %
16.04.2016 15:46 16,6 C 64 % 1006,9 hPa 0,0 l/m 2,1 km/h (1 Bft) W 279 0 min 0,000 mm 0,7 UV-I 149 W/m 9,8 C 16,6 C 4,8 km/h (1 Bft) 96,30 %
16.04.2016 15:47 16,5 C 64 % 1006,9 hPa 0,0 l/m 3,6 km/h (1 Bft) NO 42 0 min 0,000 mm 0,7 UV-I 147 W/m 9,7 C 16,5 C 6,4 km/h (2 Bft) 100,00 %
16.04.2016 15:48 16,5 C 63 % 1006,9 hPa 0,0 l/m 4,2 km/h (1 Bft) W 263 0 min 0,000 mm 0,7 UV-I 145 W/m 9,4 C 16,5 C 6,4 km/h (2 Bft) 91,30 %
16.04.2016 15:49 16,4 C 64 % 1006,9 hPa 0,0 l/m 6,2 km/h (2 Bft) SW 234 0 min 0,000 mm 0,6 UV-I 142 W/m 9,6 C 16,4 C 9,7 km/h (2 Bft) 100,00 %
16.04.2016 15:50 16,4 C 64 % 1006,8 hPa 0,0 l/m 6,6 km/h (2 Bft) W 276 0 min 0,000 mm 0,6 UV-I 141 W/m 9,6 C 16,3 C 9,7 km/h (2 Bft) 95,65 %
16.04.2016 15:51 16,4 C 64 % 1006,8 hPa 0,0 l/m 4,6 km/h (1 Bft) W 269 0 min 0,000 mm 0,6 UV-I 142 W/m 9,6 C 16,4 C 6,4 km/h (2 Bft) 100,00 %
16.04.2016 15:52 16,4 C 65 % 1006,7 hPa 0,0 l/m 4,4 km/h (1 Bft) W-NW 286 0 min 0,000 mm 0,6 UV-I 144 W/m 9,8 C 16,4 C 12,9 km/h (3 Bft) 95,65 %
16.04.2016 15:53 16,4 C 64 % 1006,7 hPa 0,0 l/m 7,5 km/h (2 Bft) W 267 0 min 0,000 mm 0,6 UV-I 149 W/m 9,6 C 15,8 C 9,7 km/h (2 Bft) 100,00 %
16.04.2016 15:54 16,4 C 64 % 1006,7 hPa 0,0 l/m 3,2 km/h (1 Bft) W-NW 298 0 min 0,000 mm 0,6 UV-I 159 W/m 9,6 C 16,4 C 6,4 km/h (2 Bft) 92,31 %
16.04.2016 15:55 16,3 C 64 % 1006,6 hPa 0,0 l/m 1,5 km/h (1 Bft) W-NW 298 0 min 0,000 mm 0,7 UV-I 173 W/m 9,5 C 16,3 C 3,2 km/h (1 Bft) 95,83 %
16.04.2016 15:56 16,3 C 66 % 1006,6 hPa 0,0 l/m 2,0 km/h (1 Bft) N-NO 19 0 min 0,000 mm 0,7 UV-I 193 W/m 9,9 C 16,3 C 4,8 km/h (1 Bft) 100,00 %
16.04.2016 15:57 16,3 C 63 % 1006,5 hPa 0,0 l/m 4,0 km/h (1 Bft) N-NW 337 0 min 0,000 mm 0,9 UV-I 232 W/m 9,2 C 16,3 C 8,0 km/h (2 Bft) 100,00 %
16.04.2016 15:58 16,4 C 64 % 1006,4 hPa 0,0 l/m 4,4 km/h (1 Bft) NW 315 0 min 0,000 mm 1,1 UV-I 301 W/m 9,6 C 16,4 C 8,0 km/h (2 Bft) 96,55 %
16.04.2016 15:59 16,4 C 63 % 1006,3 hPa 0,0 l/m 3,4 km/h (1 Bft) W-NW 300 1 min 0,000 mm 1,3 UV-I 378 W/m 9,3 C 16,4 C 6,4 km/h (2 Bft) 96,30 %
16.04.2016 16:00 16,5 C 67 % 1006,3 hPa 0,0 l/m 2,7 km/h (1 Bft) W-NW 300 1 min 0,203 mm 1,5 UV-I 451 W/m 10,4 C 16,5 C 6,4 km/h (2 Bft) 93,10 %
16.04.2016 16:01 16,6 C 64 % 1006,2 hPa 0,0 l/m 4,2 km/h (1 Bft) W-NW 286 1 min 0,000 mm 1,7 UV-I 473 W/m 9,8 C 16,6 C 8,0 km/h (2 Bft) 96,30 %
16.04.2016 16:02 16,7 C 64 % 1006,2 hPa 0,0 l/m 3,2 km/h (1 Bft) NW 323 1 min 0,000 mm 1,7 UV-I 473 W/m 9,9 C 16,7 C 4,8 km/h (1 Bft) 100,00 %
16.04.2016 16:03 16,8 C 63 % 1006,3 hPa 0,0 l/m 1,6 km/h (1 Bft) N-NW 330 1 min 0,000 mm 1,8 UV-I 474 W/m 9,7 C 16,8 C 6,4 km/h (2 Bft) 96,30 %
16.04.2016 16:04 16,8 C 63 % 1006,2 hPa 0,0 l/m 3,1 km/h (1 Bft) W 263 1 min 0,000 mm 1,6 UV-I 496 W/m 9,7 C 16,8 C 4,8 km/h (1 Bft) 96,15 %
16.04.2016 16:05 16,9 C 62 % 1006,1 hPa 0,0 l/m 2,3 km/h (1 Bft) W-NW 295 1 min 0,000 mm 1,5 UV-I 393 W/m 9,6 C 16,9 C 3,2 km/h (1 Bft) 100,00 %
16.04.2016 16:06 16,9 C 62 % 1006,1 hPa 0,0 l/m 1,9 km/h (1 Bft) W-NW 296 0 min 0,000 mm 1,4 UV-I 277 W/m 9,6 C 16,9 C 3,2 km/h (1 Bft) 96,15 %
16.04.2016 16:07 16,9 C 61 % 1006,2 hPa 0,0 l/m 2,5 km/h (1 Bft) W 263 0 min 0,000 mm 1,3 UV-I 256 W/m 9,3 C 16,9 C 9,7 km/h (2 Bft) 100,00 %
16.04.2016 16:08 16,9 C 62 % 1006,3 hPa 0,0 l/m 5,6 km/h (1 Bft) W-NW 283 0 min 0,000 mm 1,2 UV-I 248 W/m 9,6 C 16,9 C 9,7 km/h (2 Bft) 91,67 %
16.04.2016 16:09 16,9 C 62 % 1006,4 hPa 0,0 l/m 5,5 km/h (1 Bft) W 269 0 min 0,000 mm 1,3 UV-I 319 W/m 9,6 C 16,9 C 8,0 km/h (2 Bft) 97,56 %
16.04.2016 16:10 16,9 C 61 % 1006,4 hPa 0,0 l/m 5,3 km/h (1 Bft) W 281 0 min 0,000 mm 1,3 UV-I 279 W/m 9,3 C 16,9 C 8,0 km/h (2 Bft) 100,00 %
16.04.2016 16:11 16,9 C 62 % 1006,4 hPa 0,0 l/m 3,5 km/h (1 Bft) W 263 0 min 0,000 mm 1,4 UV-I 303 W/m 9,6 C 16,9 C 4,8 km/h (1 Bft) 96,15 %
16.04.2016 16:12 16,9 C 62 % 1006,5 hPa 0,0 l/m 2,5 km/h (1 Bft) W 263 1 min 0,000 mm 1,9 UV-I 402 W/m 9,6 C 16,9 C 4,8 km/h (1 Bft) 100,00 %
16.04.2016 16:13 17,0 C 62 % 1006,5 hPa 0,0 l/m 3,2 km/h (1 Bft) W 262 1 min 0,000 mm 2,1 UV-I 448 W/m 9,7 C 17,0 C 4,8 km/h (1 Bft) 95,65 %
16.04.2016 16:14 17,1 C 61 % 1006,6 hPa 0,0 l/m 3,1 km/h (1 Bft) S-SW 202 1 min 0,000 mm 2,2 UV-I 448 W/m 9,5 C 17,1 C 4,8 km/h (1 Bft) 100,00 %
16.04.2016 16:15 17,2 C 60 % 1006,5 hPa 0,0 l/m 2,7 km/h (1 Bft) S-SW 200 1 min 0,000 mm 1,8 UV-I 448 W/m 9,4 C 17,2 C 4,8 km/h (1 Bft) 100,00 %
16.04.2016 16:16 17,2 C 59 % 1006,5 hPa 0,0 l/m 2,1 km/h (1 Bft) W 265 1 min 0,000 mm 1,9 UV-I 479 W/m 9,1 C 17,2 C 4,8 km/h (1 Bft) 100,00 %
16.04.2016 16:17 17,3 C 61 % 1006,5 hPa 0,0 l/m 4,2 km/h (1 Bft) W 274 1 min 0,000 mm 1,8 UV-I 518 W/m 9,7 C 17,3 C 6,4 km/h (2 Bft) 100,00 %
16.04.2016 16:18 17,3 C 61 % 1006,5 hPa 0,0 l/m 4,7 km/h (1 Bft) W-NW 285 1 min 0,000 mm 1,6 UV-I 473 W/m 9,7 C 17,3 C 6,4 km/h (2 Bft) 96,30 %
16.04.2016 16:19 17,4 C 59 % 1006,6 hPa 0,0 l/m 2,5 km/h (1 Bft) W-NW 287 1 min 0,000 mm 1,6 UV-I 355 W/m 9,3 C 17,4 C 4,8 km/h (1 Bft) 100,00 %
16.04.2016 16:20 17,4 C 60 % 1006,6 hPa 0,0 l/m 5,8 km/h (2 Bft) W-SW 258 1 min 0,000 mm 1,5 UV-I 316 W/m 9,6 C 17,4 C 9,7 km/h (2 Bft) 100,00 %
16.04.2016 16:21 17,4 C 59 % 1006,6 hPa 0,0 l/m 4,0 km/h (1 Bft) NW 313 1 min 0,000 mm 1,3 UV-I 316 W/m 9,3 C 17,4 C 6,4 km/h (2 Bft) 100,00 %
16.04.2016 16:22 17,4 C 61 % 1006,6 hPa 0,0 l/m 6,4 km/h (2 Bft) NW 322 0 min 0,000 mm 1,3 UV-I 266 W/m 9,8 C 17,4 C 12,9 km/h (3 Bft) 100,00 %
16.04.2016 16:23 17,4 C 60 % 1006,7 hPa 0,0 l/m 4,3 km/h (1 Bft) SW 229 0 min 0,000 mm 1,2 UV-I 245 W/m 9,6 C 17,4 C 8,0 km/h (2 Bft) 100,00 %
16.04.2016 16:24 17,4 C 60 % 1006,7 hPa 0,0 l/m 5,2 km/h (1 Bft) W 272 0 min 0,000 mm 1,2 UV-I 230 W/m 9,6 C 17,4 C 9,7 km/h (2 Bft) 100,00 %
16.04.2016 16:25 17,4 C 60 % 1006,7 hPa 0,0 l/m 4,8 km/h (1 Bft) W 267 0 min 0,000 mm 1,1 UV-I 219 W/m 9,6 C 17,4 C 9,7 km/h (2 Bft) 100,00 %
16.04.2016 16:26 17,4 C 60 % 1006,8 hPa 0,0 l/m 9,6 km/h (2 Bft) W 275 0 min 0,000 mm 1,0 UV-I 210 W/m 9,6 C 15,9 C 14,5 km/h (3 Bft) 100,00 %
16.04.2016 16:27 17,3 C 60 % 1006,8 hPa 0,0 l/m 10,9 km/h (2 Bft) W 268 0 min 0,000 mm 1,0 UV-I 225 W/m 9,5 C 15,3 C 14,5 km/h (3 Bft) 92,31 %
16.04.2016 16:28 17,3 C 59 % 1006,8 hPa 0,0 l/m 8,7 km/h (2 Bft) SW 235 0 min 0,000 mm 1,2 UV-I 225 W/m 9,2 C 16,2 C 12,9 km/h (3 Bft) 100,00 %
16.04.2016 16:29 17,3 C 60 % 1006,8 hPa 0,0 l/m 7,0 km/h (2 Bft) W 265 0 min 0,000 mm 1,0 UV-I 230 W/m 9,5 C 17,0 C 9,7 km/h (2 Bft) 100,00 %
16.04.2016 16:30 17,3 C 60 % 1006,8 hPa 0,0 l/m 6,0 km/h (2 Bft) W 273 0 min 0,000 mm 1,0 UV-I 260 W/m 9,5 C 17,3 C 8,0 km/h (2 Bft) 100,00 %
16.04.2016 16:31 17,3 C 61 % 1006,8 hPa 0,0 l/m 10,6 km/h (2 Bft) W-SW 238 0 min 0,000 mm 1,0 UV-I 252 W/m 9,7 C 15,4 C 16,1 km/h (3 Bft) 100,00 %
16.04.2016 16:32 17,3 C 60 % 1006,8 hPa 0,0 l/m 11,1 km/h (2 Bft) W-SW 250 0 min 0,000 mm 1,0 UV-I 237 W/m 9,5 C 15,2 C 17,7 km/h (3 Bft) 100,00 %
16.04.2016 16:33 17,2 C 60 % 1006,8 hPa 0,0 l/m 11,3 km/h (2 Bft) W-SW 253 0 min 0,000 mm 0,9 UV-I 219 W/m 9,4 C 15,1 C 17,7 km/h (3 Bft) 100,00 %
16.04.2016 16:34 17,2 C 60 % 1006,8 hPa 0,0 l/m 8,8 km/h (2 Bft) W 270 0 min 0,000 mm 0,9 UV-I 209 W/m 9,4 C 16,0 C 11,3 km/h (2 Bft) 100,00 %
16.04.2016 16:35 17,2 C 60 % 1006,8 hPa 0,0 l/m 6,7 km/h (2 Bft) W-SW 252 0 min 0,000 mm 0,8 UV-I 198 W/m 9,4 C 17,1 C 11,3 km/h (2 Bft) 100,00 %
16.04.2016 16:36 17,2 C 61 % 1006,8 hPa 0,0 l/m 5,4 km/h (1 Bft) W 279 0 min 0,000 mm 0,8 UV-I 192 W/m 9,6 C 17,2 C 9,7 km/h (2 Bft) 100,00 %
16.04.2016 16:37 17,1 C 61 % 1006,8 hPa 0,0 l/m 7,2 km/h (2 Bft) NW 315 0 min 0,000 mm 0,7 UV-I 187 W/m 9,5 C 16,7 C 12,9 km/h (3 Bft) 100,00 %
16.04.2016 16:38 17,1 C 61 % 1006,8 hPa 0,0 l/m 7,2 km/h (2 Bft) W 275 0 min 0,000 mm 0,7 UV-I 179 W/m 9,5 C 16,7 C 12,9 km/h (3 Bft) 100,00 %
16.04.2016 16:39 17,1 C 61 % 1006,7 hPa 0,0 l/m 6,4 km/h (2 Bft) W-NW 284 0 min 0,000 mm 0,7 UV-I 188 W/m 9,5 C 17,1 C 11,3 km/h (2 Bft) 100,00 %
16.04.2016 16:40 17,0 C 61 % 1006,7 hPa 0,0 l/m 7,2 km/h (2 Bft) W 259 0 min 0,000 mm 0,7 UV-I 210 W/m 9,4 C 16,6 C 9,7 km/h (2 Bft) 95,65 %
16.04.2016 16:41 17,0 C 61 % 1006,8 hPa 0,0 l/m 4,8 km/h (1 Bft) W 281 0 min 0,000 mm 0,6 UV-I 175 W/m 9,4 C 17,0 C 6,4 km/h (2 Bft) 100,00 %
16.04.2016 16:42 16,9 C 61 % 1006,7 hPa 0,0 l/m 5,5 km/h (1 Bft) W-SW 257 0 min 0,000 mm 0,6 UV-I 174 W/m 9,3 C 16,9 C 11,3 km/h (2 Bft) 100,00 %
16.04.2016 16:43 16,9 C 61 % 1006,7 hPa 0,0 l/m 5,7 km/h (1 Bft) W-NW 290 0 min 0,000 mm 0,7 UV-I 183 W/m 9,3 C 16,9 C 9,7 km/h (2 Bft) 100,00 %
16.04.2016 16:44 16,9 C 61 % 1006,7 hPa 0,0 l/m 3,5 km/h (1 Bft) W 279 0 min 0,000 mm 0,7 UV-I 193 W/m 9,3 C 16,9 C 4,8 km/h (1 Bft) 96,55 %
16.04.2016 16:45 16,9 C 62 % 1006,7 hPa 0,0 l/m 4,2 km/h (1 Bft) W 265 0 min 0,000 mm 0,7 UV-I 203 W/m 9,6 C 16,9 C 6,4 km/h (2 Bft) 100,00 %
16.04.2016 16:46 16,9 C 61 % 1006,7 hPa 0,0 l/m 2,4 km/h (1 Bft) W 269 0 min 0,000 mm 0,8 UV-I 211 W/m 9,3 C 16,9 C 4,8 km/h (1 Bft) 100,00 %
16.04.2016 16:47 16,9 C 61 % 1006,7 hPa 0,0 l/m 1,3 km/h (1 Bft) W 269 0 min 0,000 mm 0,8 UV-I 213 W/m 9,3 C 16,9 C 1,6 km/h (1 Bft) 100,00 %
16.04.2016 16:48 16,9 C 63 % 1006,7 hPa 0,0 l/m 3,0 km/h (1 Bft) NW 324 0 min 0,000 mm 0,8 UV-I 213 W/m 9,8 C 16,9 C 8,0 km/h (2 Bft) 100,00 %
16.04.2016 16:49 16,9 C 64 % 1006,7 hPa 0,0 l/m 2,5 km/h (1 Bft) N-NW 328 0 min 0,000 mm 0,8 UV-I 199 W/m 10,0 C 16,9 C 6,4 km/h (2 Bft) 100,00 %
16.04.2016 16:50 16,9 C 63 % 1006,7 hPa 0,0 l/m 3,2 km/h (1 Bft) NW 306 0 min 0,000 mm 0,8 UV-I 208 W/m 9,8 C 16,9 C 6,4 km/h (2 Bft) 100,00 %
16.04.2016 16:51 16,8 C 66 % 1006,7 hPa 0,0 l/m 0,4 km/h (0 Bft) NW 306 0 min 0,000 mm 0,8 UV-I 209 W/m 10,4 C 16,8 C 1,6 km/h (1 Bft) 100,00 %
16.04.2016 16:52 16,8 C 66 % 1006,7 hPa 0,0 l/m 0,1 km/h (0 Bft) NW 306 0 min 0,000 mm 0,8 UV-I 212 W/m 10,4 C 16,8 C 1,6 km/h (1 Bft) 100,00 %
16.04.2016 16:53 16,8 C 62 % 1006,6 hPa 0,0 l/m 0,6 km/h (0 Bft) NW 306 0 min 0,000 mm 0,8 UV-I 217 W/m 9,5 C 16,8 C 3,2 km/h (1 Bft) 95,65 %
16.04.2016 16:54 16,8 C 62 % 1006,6 hPa 0,0 l/m 0,9 km/h (0 Bft) NW 314 0 min 0,000 mm 0,8 UV-I 228 W/m 9,5 C 16,8 C 1,6 km/h (1 Bft) 100,00 %
16.04.2016 16:55 16,9 C 65 % 1006,6 hPa 0,0 l/m 0,6 km/h (0 Bft) NW 314 0 min 0,000 mm 0,8 UV-I 238 W/m 10,3 C 16,9 C 1,6 km/h (1 Bft) 100,00 %
16.04.2016 16:56 16,9 C 67 % 1006,6 hPa 0,0 l/m 1,1 km/h (1 Bft) NW 314 0 min 0,000 mm 0,9 UV-I 254 W/m 10,7 C 16,9 C 3,2 km/h (1 Bft) 100,00 %
16.04.2016 16:57 16,9 C 64 % 1006,6 hPa 0,0 l/m 0,3 km/h (0 Bft) NW 314 1 min 0,000 mm 0,9 UV-I 266 W/m 10,0 C 16,9 C 1,6 km/h (1 Bft) 100,00 %
16.04.2016 16:58 16,9 C 66 % 1006,6 hPa 0,0 l/m 2,7 km/h (1 Bft) NW 308 1 min 0,000 mm 0,9 UV-I 281 W/m 10,5 C 16,9 C 4,8 km/h (1 Bft) 100,00 %
16.04.2016 16:59 17,0 C 64 % 1006,6 hPa 0,0 l/m 2,2 km/h (1 Bft) NW 313 1 min 0,000 mm 0,9 UV-I 294 W/m 10,1 C 17,0 C 3,2 km/h (1 Bft) 96,15 %
16.04.2016 17:00 17,0 C 65 % 1006,5 hPa 0,0 l/m 1,2 km/h (1 Bft) NW 313 1 min 0,178 mm 0,9 UV-I 288 W/m 10,4 C 17,0 C 3,2 km/h (1 Bft) 100,00 %
16.04.2016 17:01 17,1 C 66 % 1006,6 hPa 0,0 l/m 1,2 km/h (1 Bft) NW 313 1 min 0,000 mm 0,9 UV-I 273 W/m 10,7 C 17,1 C 1,6 km/h (1 Bft) 95,65 %
16.04.2016 17:02 17,1 C 62 % 1006,6 hPa 0,0 l/m 2,3 km/h (1 Bft) NW 305 0 min 0,000 mm 0,9 UV-I 252 W/m 9,8 C 17,1 C 3,2 km/h (1 Bft) 100,00 %
16.04.2016 17:03 17,1 C 62 % 1006,6 hPa 0,0 l/m 1,8 km/h (1 Bft) NW 305 0 min 0,000 mm 0,9 UV-I 212 W/m 9,8 C 17,1 C 4,8 km/h (1 Bft) 100,00 %
16.04.2016 17:04 17,1 C 63 % 1006,6 hPa 0,0 l/m 1,8 km/h (1 Bft) NW 308 0 min 0,000 mm 0,8 UV-I 216 W/m 10,0 C 17,1 C 4,8 km/h (1 Bft) 100,00 %
16.04.2016 17:05 17,2 C 65 % 1006,7 hPa 0,0 l/m 0,4 km/h (0 Bft) NW 308 0 min 0,000 mm 0,8 UV-I 226 W/m 10,6 C 17,2 C 1,6 km/h (1 Bft) 100,00 %
16.04.2016 17:06 17,2 C 63 % 1006,6 hPa 0,0 l/m 2,1 km/h (1 Bft) W-NW 302 0 min 0,000 mm 0,8 UV-I 220 W/m 10,1 C 17,2 C 4,8 km/h (1 Bft) 100,00 %
16.04.2016 17:07 17,2 C 64 % 1006,7 hPa 0,0 l/m 1,4 km/h (1 Bft) NW 304 0 min 0,000 mm 0,8 UV-I 181 W/m 10,3 C 17,2 C 3,2 km/h (1 Bft) 100,00 %
16.04.2016 17:08 17,1 C 64 % 1006,7 hPa 0,0 l/m 3,0 km/h (1 Bft) NW 320 0 min 0,000 mm 0,7 UV-I 212 W/m 10,2 C 17,1 C 6,4 km/h (2 Bft) 95,65 %
16.04.2016 17:09 17,1 C 63 % 1006,7 hPa 0,0 l/m 3,1 km/h (1 Bft) NW 320 0 min 0,000 mm 0,7 UV-I 214 W/m 10,0 C 17,1 C 6,4 km/h (2 Bft) 100,00 %
16.04.2016 17:10 17,1 C 65 % 1006,7 hPa 0,0 l/m 3,9 km/h (1 Bft) W 276 0 min 0,000 mm 0,7 UV-I 211 W/m 10,5 C 17,1 C 4,8 km/h (1 Bft) 100,00 %
16.04.2016 17:11 17,1 C 65 % 1006,7 hPa 0,0 l/m 4,8 km/h (1 Bft) W 276 0 min 0,000 mm 0,7 UV-I 203 W/m 10,5 C 17,1 C 8,0 km/h (2 Bft) 100,00 %
16.04.2016 17:12 17,1 C 64 % 1006,7 hPa 0,0 l/m 1,9 km/h (1 Bft) W 277 0 min 0,000 mm 0,6 UV-I 171 W/m 10,2 C 17,1 C 3,2 km/h (1 Bft) 100,00 %
16.04.2016 17:13 17,1 C 64 % 1006,7 hPa 0,0 l/m 0,6 km/h (0 Bft) W 277 0 min 0,000 mm 0,6 UV-I 180 W/m 10,2 C 17,1 C 1,6 km/h (1 Bft) 100,00 %
16.04.2016 17:14 17,1 C 65 % 1006,7 hPa 0,0 l/m 1,7 km/h (1 Bft) W 277 0 min 0,000 mm 0,6 UV-I 158 W/m 10,5 C 17,1 C 3,2 km/h (1 Bft) 100,00 %
16.04.2016 17:15 17,1 C 63 % 1006,7 hPa 0,0 l/m 3,4 km/h (1 Bft) W-SW 250 0 min 0,000 mm 0,6 UV-I 171 W/m 10,0 C 17,1 C 4,8 km/h (1 Bft) 100,00 %
16.04.2016 17:16 17,1 C 62 % 1006,6 hPa 0,0 l/m 3,6 km/h (1 Bft) W-NW 297 0 min 0,000 mm 0,6 UV-I 167 W/m 9,8 C 17,1 C 4,8 km/h (1 Bft) 96,15 %
16.04.2016 17:17 17,1 C 63 % 1006,6 hPa 0,0 l/m 4,7 km/h (1 Bft) W 281 0 min 0,000 mm 0,6 UV-I 163 W/m 10,0 C 17,1 C 6,4 km/h (2 Bft) 100,00 %
16.04.2016 17:18 17,1 C 62 % 1006,6 hPa 0,0 l/m 5,1 km/h (1 Bft) W 273 0 min 0,000 mm 0,5 UV-I 160 W/m 9,8 C 17,1 C 6,4 km/h (2 Bft) 100,00 %
16.04.2016 17:19 17,1 C 63 % 1006,6 hPa 0,0 l/m 3,5 km/h (1 Bft) W-SW 257 0 min 0,000 mm 0,1 UV-I 160 W/m 10,0 C 17,1 C 6,4 km/h (2 Bft) 100,00 %
16.04.2016 17:20 17,1 C 63 % 1006,6 hPa 0,0 l/m 4,5 km/h (1 Bft) W 281 0 min 0,000 mm 0,4 UV-I 160 W/m 10,0 C 17,1 C 6,4 km/h (2 Bft) 95,65 %
16.04.2016 17:21 17,0 C 61 % 1006,5 hPa 0,0 l/m 1,9 km/h (1 Bft) W 281 0 min 0,000 mm 0,5 UV-I 152 W/m 9,4 C 17,0 C 3,2 km/h (1 Bft) 100,00 %
16.04.2016 17:22 17,0 C 61 % 1006,5 hPa 0,0 l/m 0,8 km/h (0 Bft) W 281 0 min 0,000 mm 0,5 UV-I 131 W/m 9,4 C 17,0 C 3,2 km/h (1 Bft) 100,00 %
16.04.2016 17:23 17,0 C 63 % 1006,4 hPa 0,0 l/m 1,6 km/h (1 Bft) W-NW 290 0 min 0,000 mm 0,5 UV-I 155 W/m 9,9 C 17,0 C 4,8 km/h (1 Bft) 100,00 %
16.04.2016 17:24 17,0 C 64 % 1006,4 hPa 0,0 l/m 1,2 km/h (1 Bft) W-NW 294 0 min 0,000 mm 0,5 UV-I 175 W/m 10,1 C 17,0 C 3,2 km/h (1 Bft) 96,15 %
16.04.2016 17:25 17,0 C 67 % 1006,4 hPa 0,0 l/m 1,0 km/h (0 Bft) W-NW 295 0 min 0,000 mm 0,5 UV-I 182 W/m 10,8 C 17,0 C 1,6 km/h (1 Bft) 100,00 %
16.04.2016 17:26 16,9 C 67 % 1006,3 hPa 0,0 l/m 1,4 km/h (1 Bft) W-NW 298 1 min 0,000 mm 0,6 UV-I 224 W/m 10,7 C 16,9 C 3,2 km/h (1 Bft) 100,00 %
16.04.2016 17:27 16,9 C 69 % 1006,3 hPa 0,0 l/m 0,7 km/h (0 Bft) NW 308 0 min 0,000 mm 0,6 UV-I 186 W/m 11,2 C 16,9 C 1,6 km/h (1 Bft) 100,00 %
16.04.2016 17:28 16,9 C 65 % 1006,3 hPa 0,0 l/m 0,9 km/h (0 Bft) NW 308 0 min 0,000 mm 0,5 UV-I 181 W/m 10,3 C 16,9 C 1,6 km/h (1 Bft) 100,00 %
16.04.2016 17:29 16,9 C 66 % 1006,3 hPa 0,0 l/m 0,7 km/h (0 Bft) NW 308 0 min 0,000 mm 0,5 UV-I 182 W/m 10,5 C 16,9 C 1,6 km/h (1 Bft) 100,00 %
16.04.2016 17:30 16,9 C 64 % 1006,3 hPa 0,0 l/m 1,9 km/h (1 Bft) N 5 0 min 0,000 mm 0,5 UV-I 185 W/m 10,0 C 16,9 C 3,2 km/h (1 Bft) 100,00 %
16.04.2016 17:31 16,9 C 64 % 1006,4 hPa 0,0 l/m 2,7 km/h (1 Bft) N-NW 328 0 min 0,000 mm 0,5 UV-I 188 W/m 10,0 C 16,9 C 4,8 km/h (1 Bft) 100,00 %
16.04.2016 17:32 16,9 C 64 % 1006,4 hPa 0,0 l/m 2,8 km/h (1 Bft) NW 316 0 min 0,000 mm 0,5 UV-I 190 W/m 10,0 C 16,9 C 3,2 km/h (1 Bft) 96,30 %
16.04.2016 17:33 16,9 C 63 % 1006,5 hPa 0,0 l/m 3,0 km/h (1 Bft) W-NW 298 0 min 0,000 mm 0,5 UV-I 191 W/m 9,8 C 16,9 C 4,8 km/h (1 Bft) 100,00 %
16.04.2016 17:34 16,9 C 64 % 1006,5 hPa 0,0 l/m 2,1 km/h (1 Bft) NW 304 0 min 0,000 mm 0,5 UV-I 191 W/m 10,0 C 16,9 C 3,2 km/h (1 Bft) 100,00 %
16.04.2016 17:35 16,9 C 63 % 1006,6 hPa 0,0 l/m 2,3 km/h (1 Bft) W 277 0 min 0,000 mm 0,5 UV-I 193 W/m 9,8 C 16,9 C 4,8 km/h (1 Bft) 100,00 %
16.04.2016 17:36 17,0 C 63 % 1006,6 hPa 0,0 l/m 2,7 km/h (1 Bft) W 277 0 min 0,000 mm 0,5 UV-I 196 W/m 9,9 C 17,0 C 3,2 km/h (1 Bft) 100,00 %
16.04.2016 17:37 17,1 C 64 % 1006,7 hPa 0,0 l/m 1,8 km/h (1 Bft) W-NW 290 0 min 0,000 mm 0,5 UV-I 205 W/m 10,2 C 17,1 C 3,2 km/h (1 Bft) 100,00 %
16.04.2016 17:38 17,1 C 62 % 1006,6 hPa 0,0 l/m 0,7 km/h (0 Bft) W-NW 290 1 min 0,000 mm 0,5 UV-I 206 W/m 9,8 C 17,1 C 1,6 km/h (1 Bft) 100,00 %
16.04.2016 17:39 17,1 C 62 % 1006,5 hPa 0,0 l/m 1,4 km/h (1 Bft) N-NW 342 1 min 0,000 mm 0,6 UV-I 214 W/m 9,8 C 17,1 C 4,8 km/h (1 Bft) 100,00 %
16.04.2016 17:40 17,1 C 64 % 1006,4 hPa 0,0 l/m 1,2 km/h (1 Bft) N-NW 342 1 min 0,000 mm 0,6 UV-I 241 W/m 10,2 C 17,1 C 3,2 km/h (1 Bft) 96,55 %
16.04.2016 17:41 17,2 C 65 % 1006,4 hPa 0,0 l/m 1,3 km/h (1 Bft) N-NW 342 1 min 0,000 mm 0,7 UV-I 397 W/m 10,6 C 17,2 C 3,2 km/h (1 Bft) 96,15 %
16.04.2016 17:42 17,3 C 64 % 1006,4 hPa 0,0 l/m 3,2 km/h (1 Bft) NW 309 1 min 0,000 mm 0,7 UV-I 431 W/m 10,4 C 17,3 C 4,8 km/h (1 Bft) 100,00 %
16.04.2016 17:43 17,3 C 62 % 1006,4 hPa 0,0 l/m 2,7 km/h (1 Bft) NW 319 1 min 0,000 mm 0,7 UV-I 427 W/m 9,9 C 17,3 C 6,4 km/h (2 Bft) 98,68 %
16.04.2016 17:44 17,4 C 63 % 1006,5 hPa 0,0 l/m 1,5 km/h (1 Bft) NW 304 1 min 0,000 mm 0,7 UV-I 410 W/m 10,3 C 17,4 C 3,2 km/h (1 Bft) 97,73 %
16.04.2016 17:45 17,6 C 61 % 1006,5 hPa 0,0 l/m 2,0 km/h (1 Bft) W-NW 302 1 min 0,000 mm 0,7 UV-I 400 W/m 10,0 C 17,6 C 4,8 km/h (1 Bft) 91,30 %
16.04.2016 17:46 17,7 C 62 % 1006,6 hPa 0,0 l/m 2,9 km/h (1 Bft) W-NW 299 1 min 0,000 mm 0,7 UV-I 384 W/m 10,3 C 17,7 C 4,8 km/h (1 Bft) 100,00 %
16.04.2016 17:47 17,7 C 60 % 1006,5 hPa 0,0 l/m 0,6 km/h (0 Bft) W-NW 299 1 min 0,000 mm 0,6 UV-I 368 W/m 9,8 C 17,7 C 1,6 km/h (1 Bft) 96,30 %
16.04.2016 17:48 17,7 C 60 % 1006,4 hPa 0,0 l/m 2,9 km/h (1 Bft) NW 304 1 min 0,000 mm 0,6 UV-I 298 W/m 9,8 C 17,7 C 4,8 km/h (1 Bft) 96,55 %
16.04.2016 17:49 17,7 C 60 % 1006,4 hPa 0,0 l/m 0,3 km/h (0 Bft) NW 304 1 min 0,000 mm 0,6 UV-I 345 W/m 9,8 C 17,7 C 1,6 km/h (1 Bft) 100,00 %
16.04.2016 17:50 17,7 C 59 % 1006,3 hPa 0,0 l/m 0,0 km/h (0 Bft) NW 304 1 min 0,000 mm 0,6 UV-I 312 W/m 9,6 C 17,7 C 0,0 km/h (0 Bft) 96,15 %
16.04.2016 17:51 17,6 C 60 % 1006,3 hPa 0,0 l/m 0,8 km/h (0 Bft) NW 305 1 min 0,000 mm 0,5 UV-I 212 W/m 9,7 C 17,6 C 1,6 km/h (1 Bft) 100,00 %
16.04.2016 17:52 17,6 C 60 % 1006,3 hPa 0,0 l/m 2,1 km/h (1 Bft) N-NO 32 0 min 0,000 mm 0,5 UV-I 169 W/m 9,7 C 17,6 C 4,8 km/h (1 Bft) 96,15 %
16.04.2016 17:53 17,6 C 60 % 1006,4 hPa 0,0 l/m 0,4 km/h (0 Bft) N-NO 32 1 min 0,000 mm 0,5 UV-I 258 W/m 9,7 C 17,6 C 1,6 km/h (1 Bft) 95,83 %
16.04.2016 17:54 17,6 C 62 % 1006,3 hPa 0,0 l/m 0,3 km/h (0 Bft) N-NO 32 1 min 0,000 mm 0,5 UV-I 258 W/m 10,2 C 17,6 C 1,6 km/h (1 Bft) 100,00 %
16.04.2016 17:55 17,6 C 61 % 1006,4 hPa 0,0 l/m 1,8 km/h (1 Bft) N-NW 328 1 min 0,000 mm 0,5 UV-I 248 W/m 10,0 C 17,6 C 4,8 km/h (1 Bft) 100,00 %
16.04.2016 17:56 17,6 C 60 % 1006,4 hPa 0,0 l/m 1,8 km/h (1 Bft) NW 325 0 min 0,000 mm 0,4 UV-I 167 W/m 9,7 C 17,6 C 3,2 km/h (1 Bft) 96,15 %
16.04.2016 17:57 17,6 C 61 % 1006,4 hPa 0,0 l/m 2,6 km/h (1 Bft) NW 325 0 min 0,000 mm 0,0 UV-I 115 W/m 10,0 C 17,6 C 3,2 km/h (1 Bft) 96,30 %
16.04.2016 17:58 17,6 C 61 % 1006,4 hPa 0,0 l/m 2,2 km/h (1 Bft) NW 325 0 min 0,000 mm 0,0 UV-I 117 W/m 10,0 C 17,6 C 3,2 km/h (1 Bft) 100,00 %
16.04.2016 17:59 17,5 C 61 % 1006,3 hPa 0,0 l/m 1,7 km/h (1 Bft) NW 325 0 min 0,000 mm 0,0 UV-I 116 W/m 9,9 C 17,5 C 3,2 km/h (1 Bft) 94,74 %
16.04.2016 18:00 17,4 C 61 % 1006,3 hPa 0,0 l/m 1,1 km/h (1 Bft) NW 325 0 min 0,000 mm 0,0 UV-I 114 W/m 9,8 C 17,4 C 1,6 km/h (1 Bft) 100,00 %
16.04.2016 18:01 17,4 C 61 % 1006,3 hPa 0,0 l/m 0,6 km/h (0 Bft) NW 325 0 min 0,127 mm 0,0 UV-I 117 W/m 9,8 C 17,4 C 1,6 km/h (1 Bft) 91,67 %
16.04.2016 18:02 17,4 C 61 % 1006,3 hPa 0,0 l/m 3,2 km/h (1 Bft) N-NW 327 0 min 0,000 mm 0,0 UV-I 135 W/m 9,8 C 17,4 C 4,8 km/h (1 Bft) 100,00 %
16.04.2016 18:03 17,4 C 60 % 1006,3 hPa 0,0 l/m 0,5 km/h (0 Bft) N-NW 327 1 min 0,000 mm 0,0 UV-I 198 W/m 9,6 C 17,4 C 1,6 km/h (1 Bft) 91,67 %
16.04.2016 18:04 17,4 C 62 % 1006,3 hPa 0,0 l/m 0,3 km/h (0 Bft) N-NW 327 1 min 0,000 mm 0,0 UV-I 301 W/m 10,0 C 17,4 C 1,6 km/h (1 Bft) 96,67 %
16.04.2016 18:05 17,4 C 65 % 1006,2 hPa 0,0 l/m 0,4 km/h (0 Bft) W-NW 300 1 min 0,000 mm 0,0 UV-I 298 W/m 10,8 C 17,4 C 1,6 km/h (1 Bft) 96,15 %
16.04.2016 18:06 17,4 C 65 % 1006,2 hPa 0,0 l/m 0,8 km/h (0 Bft) NW 313 1 min 0,000 mm 0,0 UV-I 299 W/m 10,8 C 17,4 C 3,2 km/h (1 Bft) 95,83 %
16.04.2016 18:07 17,5 C 66 % 1006,2 hPa 0,0 l/m 0,7 km/h (0 Bft) NW 313 1 min 0,000 mm 0,0 UV-I 298 W/m 11,1 C 17,5 C 3,2 km/h (1 Bft) 100,00 %
16.04.2016 18:08 17,6 C 66 % 1006,2 hPa 0,0 l/m 1,1 km/h (1 Bft) NW 317 1 min 0,000 mm 0,0 UV-I 290 W/m 11,2 C 17,6 C 3,2 km/h (1 Bft) 95,83 %
16.04.2016 18:09 17,6 C 65 % 1006,2 hPa 0,0 l/m 0,9 km/h (0 Bft) NW 317 1 min 0,000 mm 0,0 UV-I 278 W/m 10,9 C 17,6 C 1,6 km/h (1 Bft) 100,00 %
16.04.2016 18:10 17,6 C 62 % 1006,2 hPa 0,0 l/m 2,3 km/h (1 Bft) NW 309 1 min 0,000 mm 0,0 UV-I 271 W/m 10,2 C 17,6 C 4,8 km/h (1 Bft) 88,89 %
16.04.2016 18:11 17,7 C 61 % 1006,2 hPa 0,0 l/m 2,3 km/h (1 Bft) NW 310 1 min 0,000 mm 0,0 UV-I 259 W/m 10,1 C 17,7 C 4,8 km/h (1 Bft) 100,00 %
16.04.2016 18:12 17,7 C 60 % 1006,2 hPa 0,0 l/m 1,3 km/h (1 Bft) NW 310 1 min 0,000 mm 0,0 UV-I 250 W/m 9,8 C 17,7 C 3,2 km/h (1 Bft) 96,30 %
16.04.2016 18:13 17,7 C 60 % 1006,2 hPa 0,0 l/m 3,1 km/h (1 Bft) W-NW 296 1 min 0,000 mm 0,0 UV-I 235 W/m 9,8 C 17,7 C 4,8 km/h (1 Bft) 96,55 %
16.04.2016 18:14 17,7 C 59 % 1006,2 hPa 0,0 l/m 3,0 km/h (1 Bft) W-NW 296 1 min 0,000 mm 0,0 UV-I 220 W/m 9,6 C 17,7 C 3,2 km/h (1 Bft) 100,00 %
16.04.2016 18:15 17,7 C 59 % 1006,2 hPa 0,0 l/m 3,7 km/h (1 Bft) W-NW 292 1 min 0,000 mm 0,0 UV-I 222 W/m 9,6 C 17,7 C 4,8 km/h (1 Bft) 96,15 %
16.04.2016 18:16 17,7 C 58 % 1006,2 hPa 0,0 l/m 2,6 km/h (1 Bft) W-NW 292 1 min 0,000 mm 0,0 UV-I 222 W/m 9,3 C 17,7 C 3,2 km/h (1 Bft) 95,83 %
16.04.2016 18:17 17,7 C 58 % 1006,2 hPa 0,0 l/m 1,4 km/h (1 Bft) W-NW 292 1 min 0,000 mm 0,0 UV-I 220 W/m 9,3 C 17,7 C 3,2 km/h (1 Bft) 100,00 %
16.04.2016 18:18 17,7 C 61 % 1006,2 hPa 0,0 l/m 1,5 km/h (1 Bft) W-NW 292 1 min 0,000 mm 0,0 UV-I 218 W/m 10,1 C 17,7 C 3,2 km/h (1 Bft) 100,00 %
16.04.2016 18:19 17,7 C 59 % 1006,2 hPa 0,0 l/m 0,3 km/h (0 Bft) W-NW 292 1 min 0,000 mm 0,0 UV-I 212 W/m 9,6 C 17,7 C 1,6 km/h (1 Bft) 100,00 %
16.04.2016 18:20 17,6 C 61 % 1006,2 hPa 0,0 l/m 1,3 km/h (1 Bft) W-NW 292 1 min 0,000 mm 0,0 UV-I 206 W/m 10,0 C 17,6 C 1,6 km/h (1 Bft) 95,83 %
16.04.2016 18:21 17,6 C 59 % 1006,2 hPa 0,0 l/m 0,5 km/h (0 Bft) W-NW 292 1 min 0,000 mm 0,0 UV-I 199 W/m 9,5 C 17,6 C 1,6 km/h (1 Bft) 100,00 %
16.04.2016 18:22 17,6 C 61 % 1006,2 hPa 0,0 l/m 0,2 km/h (0 Bft) W-NW 292 1 min 0,000 mm 0,0 UV-I 196 W/m 10,0 C 17,6 C 1,6 km/h (1 Bft) 98,61 %
16.04.2016 18:23 17,6 C 60 % 1006,2 hPa 0,0 l/m 0,5 km/h (0 Bft) W-NW 292 1 min 0,000 mm 0,0 UV-I 187 W/m 9,7 C 17,6 C 1,6 km/h (1 Bft) 100,00 %
16.04.2016 18:24 17,6 C 61 % 1006,2 hPa 0,0 l/m 1,7 km/h (1 Bft) W-NW 292 1 min 0,000 mm 0,0 UV-I 178 W/m 10,0 C 17,6 C 3,2 km/h (1 Bft) 95,65 %
16.04.2016 18:25 17,6 C 62 % 1006,3 hPa 0,0 l/m 0,9 km/h (0 Bft) W-NW 292 1 min 0,000 mm 0,0 UV-I 174 W/m 10,2 C 17,6 C 1,6 km/h (1 Bft) 100,00 %
16.04.2016 18:26 17,6 C 60 % 1006,3 hPa 0,0 l/m 0,2 km/h (0 Bft) W-NW 292 1 min 0,000 mm 0,0 UV-I 156 W/m 9,7 C 17,6 C 1,6 km/h (1 Bft) 100,00 %
16.04.2016 18:27 17,6 C 63 % 1006,3 hPa 0,0 l/m 1,7 km/h (1 Bft) W-NW 294 1 min 0,000 mm 0,0 UV-I 152 W/m 10,5 C 17,6 C 3,2 km/h (1 Bft) 100,00 %
16.04.2016 18:28 17,5 C 62 % 1006,3 hPa 0,0 l/m 0,2 km/h (0 Bft) W-NW 294 1 min 0,000 mm 0,0 UV-I 169 W/m 10,1 C 17,5 C 1,6 km/h (1 Bft) 100,00 %
16.04.2016 18:29 17,5 C 61 % 1006,4 hPa 0,0 l/m 1,1 km/h (1 Bft) W-NW 294 1 min 0,000 mm 0,0 UV-I 168 W/m 9,9 C 17,5 C 3,2 km/h (1 Bft) 100,00 %
16.04.2016 18:30 17,5 C 60 % 1006,3 hPa 0,0 l/m 1,0 km/h (0 Bft) W-NW 294 0 min 0,000 mm 0,0 UV-I 111 W/m 9,6 C 17,5 C 1,6 km/h (1 Bft) 100,00 %
16.04.2016 18:31 17,5 C 60 % 1006,4 hPa 0,0 l/m 0,6 km/h (0 Bft) W-NW 294 0 min 0,000 mm 0,0 UV-I 120 W/m 9,6 C 17,5 C 1,6 km/h (1 Bft) 100,00 %
16.04.2016 18:32 17,5 C 60 % 1006,3 hPa 0,0 l/m 0,7 km/h (0 Bft) W-NW 294 0 min 0,000 mm 0,0 UV-I 100 W/m 9,6 C 17,5 C 3,2 km/h (1 Bft) 95,65 %
16.04.2016 18:33 17,4 C 61 % 1006,4 hPa 0,0 l/m 1,8 km/h (1 Bft) W-NW 294 0 min 0,000 mm 0,0 UV-I 108 W/m 9,8 C 17,4 C 3,2 km/h (1 Bft) 100,00 %
16.04.2016 18:34 17,4 C 61 % 1006,3 hPa 0,0 l/m 0,6 km/h (0 Bft) W-NW 294 0 min 0,000 mm 0,0 UV-I 110 W/m 9,8 C 17,4 C 1,6 km/h (1 Bft) 100,00 %
16.04.2016 18:35 17,3 C 61 % 1006,3 hPa 0,0 l/m 1,3 km/h (1 Bft) NW 304 0 min 0,000 mm 0,0 UV-I 109 W/m 9,7 C 17,3 C 3,2 km/h (1 Bft) 100,00 %
16.04.2016 18:36 17,3 C 61 % 1006,4 hPa 0,0 l/m 2,4 km/h (1 Bft) N-NW 338 0 min 0,000 mm 0,0 UV-I 94 W/m 9,7 C 17,3 C 4,8 km/h (1 Bft) 100,00 %
16.04.2016 18:37 17,3 C 62 % 1006,3 hPa 0,0 l/m 0,9 km/h (0 Bft) N-NW 339 0 min 0,000 mm 0,0 UV-I 76 W/m 9,9 C 17,3 C 1,6 km/h (1 Bft) 100,00 %
16.04.2016 18:38 17,3 C 61 % 1006,3 hPa 0,0 l/m 1,4 km/h (1 Bft) N-NW 339 0 min 0,000 mm 0,0 UV-I 79 W/m 9,7 C 17,3 C 3,2 km/h (1 Bft) 95,65 %
16.04.2016 18:39 17,2 C 62 % 1006,3 hPa 0,0 l/m 0,2 km/h (0 Bft) N-NW 339 0 min 0,000 mm 0,0 UV-I 80 W/m 9,9 C 17,2 C 1,6 km/h (1 Bft) 100,00 %
16.04.2016 18:40 17,2 C 63 % 1006,3 hPa 0,0 l/m 0,8 km/h (0 Bft) N-NW 339 1 min 0,000 mm 0,0 UV-I 111 W/m 10,1 C 17,2 C 1,6 km/h (1 Bft) 100,00 %
16.04.2016 18:41 17,1 C 63 % 1006,4 hPa 0,0 l/m 0,8 km/h (0 Bft) N-NW 339 1 min 0,000 mm 0,0 UV-I 123 W/m 10,0 C 17,1 C 3,2 km/h (1 Bft) 100,00 %
16.04.2016 18:42 17,1 C 63 % 1006,3 hPa 0,0 l/m 0,7 km/h (0 Bft) N-NW 339 1 min 0,000 mm 0,0 UV-I 131 W/m 10,0 C 17,1 C 1,6 km/h (1 Bft) 100,00 %
16.04.2016 18:43 17,0 C 63 % 1006,3 hPa 0,0 l/m 0,3 km/h (0 Bft) N-NW 338 1 min 0,000 mm 0,0 UV-I 136 W/m 9,9 C 17,0 C 1,6 km/h (1 Bft) 100,00 %
16.04.2016 18:44 17,0 C 64 % 1006,3 hPa 0,0 l/m 1,4 km/h (1 Bft) N-NW 337 1 min 0,000 mm 0,0 UV-I 121 W/m 10,1 C 17,0 C 3,2 km/h (1 Bft) 100,00 %
16.04.2016 18:45 17,0 C 65 % 1006,3 hPa 0,0 l/m 0,5 km/h (0 Bft) N-NW 337 1 min 0,000 mm 0,0 UV-I 111 W/m 10,4 C 17,0 C 1,6 km/h (1 Bft) 100,00 %
16.04.2016 18:46 16,9 C 64 % 1006,3 hPa 0,0 l/m 0,6 km/h (0 Bft) N-NW 337 1 min 0,000 mm 0,0 UV-I 143 W/m 10,0 C 16,9 C 1,6 km/h (1 Bft) 95,83 %
16.04.2016 18:47 16,9 C 63 % 1006,3 hPa 0,0 l/m 0,2 km/h (0 Bft) N-NW 337 1 min 0,000 mm 0,0 UV-I 156 W/m 9,8 C 16,9 C 1,6 km/h (1 Bft) 96,15 %
16.04.2016 18:48 17,0 C 66 % 1006,3 hPa 0,0 l/m 0,1 km/h (0 Bft) N-NW 337 1 min 0,000 mm 0,0 UV-I 162 W/m 10,6 C 17,0 C 1,6 km/h (1 Bft) 100,00 %
16.04.2016 18:49 17,0 C 66 % 1006,3 hPa 0,0 l/m 0,2 km/h (0 Bft) N-NW 337 1 min 0,000 mm 0,0 UV-I 163 W/m 10,6 C 17,0 C 1,6 km/h (1 Bft) 100,00 %
16.04.2016 18:50 17,1 C 65 % 1006,3 hPa 0,0 l/m 0,0 km/h (0 Bft) N-NW 337 1 min 0,000 mm 0,0 UV-I 164 W/m 10,5 C 17,1 C 0,0 km/h (0 Bft) 100,00 %
16.04.2016 18:51 17,1 C 64 % 1006,3 hPa 0,0 l/m 0,0 km/h (0 Bft) N-NW 337 1 min 0,000 mm 0,0 UV-I 164 W/m 10,2 C 17,1 C 0,0 km/h (0 Bft) 100,00 %
16.04.2016 18:52 17,2 C 62 % 1006,2 hPa 0,0 l/m 0,7 km/h (0 Bft) N-NW 337 1 min 0,000 mm 0,0 UV-I 128 W/m 9,9 C 17,2 C 1,6 km/h (1 Bft) 100,00 %
16.04.2016 18:53 17,2 C 64 % 1006,2 hPa 0,0 l/m 1,5 km/h (1 Bft) N-NW 337 1 min 0,000 mm 0,0 UV-I 150 W/m 10,3 C 17,2 C 1,6 km/h (1 Bft) 96,15 %
16.04.2016 18:54 17,3 C 64 % 1006,2 hPa 0,0 l/m 2,1 km/h (1 Bft) N-NW 337 1 min 0,000 mm 0,0 UV-I 131 W/m 10,4 C 17,3 C 3,2 km/h (1 Bft) 100,00 %
16.04.2016 18:55 17,3 C 64 % 1006,2 hPa 0,0 l/m 5,2 km/h (1 Bft) N-NO 33 1 min 0,000 mm 0,0 UV-I 114 W/m 10,4 C 17,3 C 6,4 km/h (2 Bft) 100,00 %
16.04.2016 18:56 17,3 C 63 % 1006,2 hPa 0,0 l/m 3,6 km/h (1 Bft) N-NO 22 1 min 0,000 mm 0,0 UV-I 92 W/m 10,2 C 17,3 C 6,4 km/h (2 Bft) 100,00 %
16.04.2016 18:57 17,3 C 64 % 1006,2 hPa 0,0 l/m 3,8 km/h (1 Bft) N-NO 22 0 min 0,000 mm 0,0 UV-I 81 W/m 10,4 C 17,3 C 6,4 km/h (2 Bft) 100,00 %
16.04.2016 18:58 17,3 C 66 % 1006,3 hPa 0,0 l/m 4,8 km/h (1 Bft) N-NO 22 0 min 0,000 mm 0,0 UV-I 75 W/m 10,9 C 17,3 C 6,4 km/h (2 Bft) 100,00 %
16.04.2016 18:59 17,2 C 65 % 1006,3 hPa 0,0 l/m 3,4 km/h (1 Bft) N-NO 22 1 min 0,000 mm 0,0 UV-I 98 W/m 10,6 C 17,2 C 4,8 km/h (1 Bft) 100,00 %
16.04.2016 19:00 17,1 C 65 % 1006,3 hPa 0,0 l/m 2,4 km/h (1 Bft) N-NO 22 1 min 0,101 mm 0,0 UV-I 95 W/m 10,5 C 17,1 C 3,2 km/h (1 Bft) 100,00 %
16.04.2016 19:01 17,1 C 66 % 1006,3 hPa 0,0 l/m 3,6 km/h (1 Bft) N-NO 22 1 min 0,000 mm 0,0 UV-I 90 W/m 10,7 C 17,1 C 4,8 km/h (1 Bft) 100,00 %
16.04.2016 19:02 16,9 C 67 % 1006,3 hPa 0,0 l/m 4,6 km/h (1 Bft) N-NO 12 1 min 0,000 mm 0,0 UV-I 86 W/m 10,7 C 16,9 C 8,0 km/h (2 Bft) 100,00 %
16.04.2016 19:03 16,9 C 66 % 1006,3 hPa 0,0 l/m 3,2 km/h (1 Bft) N-NO 12 1 min 0,000 mm 0,0 UV-I 82 W/m 10,5 C 16,9 C 4,8 km/h (1 Bft) 100,00 %
16.04.2016 19:04 16,9 C 67 % 1006,3 hPa 0,0 l/m 3,5 km/h (1 Bft) N-NO 12 1 min 0,000 mm 0,0 UV-I 77 W/m 10,7 C 16,9 C 4,8 km/h (1 Bft) 100,00 %
16.04.2016 19:05 16,8 C 67 % 1006,3 hPa 0,0 l/m 3,1 km/h (1 Bft) N-NO 12 0 min 0,000 mm 0,0 UV-I 62 W/m 10,6 C 16,8 C 3,2 km/h (1 Bft) 95,83 %
16.04.2016 19:06 16,8 C 65 % 1006,4 hPa 0,0 l/m 1,5 km/h (1 Bft) N-NO 12 0 min 0,000 mm 0,0 UV-I 69 W/m 10,2 C 16,8 C 3,2 km/h (1 Bft) 100,00 %
16.04.2016 19:07 16,8 C 66 % 1006,4 hPa 0,0 l/m 1,9 km/h (1 Bft) N-NO 12 0 min 0,000 mm 0,0 UV-I 65 W/m 10,4 C 16,8 C 3,2 km/h (1 Bft) 100,00 %
16.04.2016 19:08 16,8 C 66 % 1006,5 hPa 0,0 l/m 2,1 km/h (1 Bft) N-NO 12 0 min 0,000 mm 0,0 UV-I 58 W/m 10,4 C 16,8 C 3,2 km/h (1 Bft) 100,00 %
16.04.2016 19:09 16,7 C 66 % 1006,5 hPa 0,0 l/m 1,7 km/h (1 Bft) N-NO 12 0 min 0,000 mm 0,0 UV-I 54 W/m 10,3 C 16,7 C 3,2 km/h (1 Bft) 100,00 %
16.04.2016 19:10 16,7 C 65 % 1006,5 hPa 0,0 l/m 2,6 km/h (1 Bft) N-NO 12 0 min 0,000 mm 0,0 UV-I 60 W/m 10,1 C 16,7 C 4,8 km/h (1 Bft) 100,00 %
16.04.2016 19:11 16,6 C 67 % 1006,4 hPa 0,0 l/m 0,7 km/h (0 Bft) N 9 0 min 0,000 mm 0,0 UV-I 59 W/m 10,4 C 16,6 C 3,2 km/h (1 Bft) 98,65 %
16.04.2016 19:12 16,5 C 66 % 1006,4 hPa 0,0 l/m 3,1 km/h (1 Bft) N 9 1 min 0,000 mm 0,0 UV-I 63 W/m 10,1 C 16,5 C 4,8 km/h (1 Bft) 94,74 %
16.04.2016 19:13 16,5 C 66 % 1006,4 hPa 0,0 l/m 1,5 km/h (1 Bft) N 9 1 min 0,000 mm 0,0 UV-I 62 W/m 10,1 C 16,5 C 3,2 km/h (1 Bft) 96,30 %
16.04.2016 19:14 16,5 C 65 % 1006,4 hPa 0,0 l/m 0,9 km/h (0 Bft) N 9 1 min 0,000 mm 0,0 UV-I 58 W/m 9,9 C 16,5 C 3,2 km/h (1 Bft) 100,00 %
16.04.2016 19:15 16,5 C 66 % 1006,4 hPa 0,0 l/m 0,1 km/h (0 Bft) N 9 0 min 0,000 mm 0,0 UV-I 52 W/m 10,1 C 16,5 C 1,6 km/h (1 Bft) 100,00 %
16.04.2016 19:16 16,5 C 66 % 1006,4 hPa 0,0 l/m 1,0 km/h (0 Bft) N 9 0 min 0,000 mm 0,0 UV-I 49 W/m 10,1 C 16,5 C 1,6 km/h (1 Bft) 100,00 %
16.04.2016 19:17 16,4 C 67 % 1006,4 hPa 0,0 l/m 2,5 km/h (1 Bft) N 9 0 min 0,000 mm 0,0 UV-I 46 W/m 10,3 C 16,4 C 3,2 km/h (1 Bft) 100,00 %
16.04.2016 19:18 16,4 C 66 % 1006,4 hPa 0,0 l/m 2,8 km/h (1 Bft) N 9 0 min 0,000 mm 0,0 UV-I 46 W/m 10,0 C 16,4 C 4,8 km/h (1 Bft) 96,15 %
16.04.2016 19:19 16,4 C 66 % 1006,4 hPa 0,0 l/m 3,8 km/h (1 Bft) N-NO 28 0 min 0,000 mm 0,0 UV-I 47 W/m 10,0 C 16,4 C 4,8 km/h (1 Bft) 100,00 %
16.04.2016 19:20 16,3 C 66 % 1006,4 hPa 0,0 l/m 4,5 km/h (1 Bft) N-NO 31 0 min 0,000 mm 0,0 UV-I 46 W/m 9,9 C 16,3 C 4,8 km/h (1 Bft) 100,00 %
16.04.2016 19:21 16,3 C 66 % 1006,3 hPa 0,0 l/m 4,4 km/h (1 Bft) N-NO 32 0 min 0,000 mm 0,0 UV-I 44 W/m 9,9 C 16,3 C 4,8 km/h (1 Bft) 93,33 %
16.04.2016 19:22 16,3 C 67 % 1006,3 hPa 0,0 l/m 4,1 km/h (1 Bft) NO 44 0 min 0,000 mm 0,0 UV-I 38 W/m 10,2 C 16,3 C 6,4 km/h (2 Bft) 100,00 %
16.04.2016 19:23 16,3 C 67 % 1006,3 hPa 0,0 l/m 3,9 km/h (1 Bft) NO 44 0 min 0,000 mm 0,0 UV-I 31 W/m 10,2 C 16,3 C 4,8 km/h (1 Bft) 97,56 %
16.04.2016 19:24 16,3 C 67 % 1006,3 hPa 0,0 l/m 3,7 km/h (1 Bft) NO 44 0 min 0,000 mm 0,0 UV-I 27 W/m 10,2 C 16,3 C 4,8 km/h (1 Bft) 93,33 %
16.04.2016 19:25 16,3 C 67 % 1006,2 hPa 0,0 l/m 4,1 km/h (1 Bft) NO 44 0 min 0,000 mm 0,0 UV-I 24 W/m 10,2 C 16,3 C 6,4 km/h (2 Bft) 96,15 %
16.04.2016 19:26 16,3 C 67 % 1006,2 hPa 0,0 l/m 3,1 km/h (1 Bft) NO 44 0 min 0,000 mm 0,0 UV-I 22 W/m 10,2 C 16,3 C 4,8 km/h (1 Bft) 100,00 %
16.04.2016 19:27 16,2 C 68 % 1006,3 hPa 0,0 l/m 3,8 km/h (1 Bft) NO 44 0 min 0,000 mm 0,0 UV-I 19 W/m 10,3 C 16,2 C 4,8 km/h (1 Bft) 100,00 %
16.04.2016 19:28 16,2 C 68 % 1006,2 hPa 0,0 l/m 3,0 km/h (1 Bft) NO 44 0 min 0,000 mm 0,0 UV-I 19 W/m 10,3 C 16,2 C 4,8 km/h (1 Bft) 100,00 %
16.04.2016 19:29 16,1 C 68 % 1006,3 hPa 0,0 l/m 3,3 km/h (1 Bft) NO 44 0 min 0,000 mm 0,0 UV-I 18 W/m 10,2 C 16,1 C 4,8 km/h (1 Bft) 100,00 %
16.04.2016 19:30 16,1 C 68 % 1006,3 hPa 0,0 l/m 4,0 km/h (1 Bft) NO 50 0 min 0,000 mm 0,0 UV-I 18 W/m 10,2 C 16,1 C 4,8 km/h (1 Bft) 100,00 %
16.04.2016 19:31 16,1 C 68 % 1006,3 hPa 0,0 l/m 3,6 km/h (1 Bft) NO 51 0 min 0,000 mm 0,0 UV-I 16 W/m 10,2 C 16,1 C 4,8 km/h (1 Bft) 96,15 %
16.04.2016 19:32 15,9 C 69 % 1006,3 hPa 0,0 l/m 3,4 km/h (1 Bft) NO 51 0 min 0,000 mm 0,0 UV-I 15 W/m 10,2 C 15,9 C 4,8 km/h (1 Bft) 100,00 %
16.04.2016 19:33 15,9 C 69 % 1006,2 hPa 0,0 l/m 3,0 km/h (1 Bft) NO 51 0 min 0,000 mm 0,0 UV-I 14 W/m 10,2 C 15,9 C 4,8 km/h (1 Bft) 100,00 %
16.04.2016 19:34 15,8 C 70 % 1006,3 hPa 0,0 l/m 4,3 km/h (1 Bft) NO 51 0 min 0,000 mm 0,0 UV-I 14 W/m 10,3 C 15,8 C 4,8 km/h (1 Bft) 100,00 %
16.04.2016 19:35 15,7 C 70 % 1006,3 hPa 0,0 l/m 4,2 km/h (1 Bft) NO 55 0 min 0,000 mm 0,0 UV-I 14 W/m 10,2 C 15,7 C 6,4 km/h (2 Bft) 100,00 %
16.04.2016 19:36 15,6 C 70 % 1006,3 hPa 0,0 l/m 4,2 km/h (1 Bft) O-NO 61 0 min 0,000 mm 0,0 UV-I 14 W/m 10,1 C 15,6 C 4,8 km/h (1 Bft) 100,00 %
16.04.2016 19:37 15,5 C 71 % 1006,3 hPa 0,0 l/m 4,2 km/h (1 Bft) O-NO 71 0 min 0,000 mm 0,0 UV-I 14 W/m 10,3 C 15,5 C 6,4 km/h (2 Bft) 100,00 %
16.04.2016 19:38 15,4 C 70 % 1006,4 hPa 0,0 l/m 2,5 km/h (1 Bft) O-NO 71 0 min 0,000 mm 0,0 UV-I 14 W/m 10,0 C 15,4 C 3,2 km/h (1 Bft) 100,00 %
16.04.2016 19:39 15,4 C 70 % 1006,4 hPa 0,0 l/m 3,4 km/h (1 Bft) O-NO 71 0 min 0,000 mm 0,0 UV-I 14 W/m 10,0 C 15,4 C 4,8 km/h (1 Bft) 100,00 %
16.04.2016 19:40 15,4 C 70 % 1006,4 hPa 0,0 l/m 4,4 km/h (1 Bft) O-NO 71 0 min 0,000 mm 0,0 UV-I 14 W/m 10,0 C 15,4 C 4,8 km/h (1 Bft) 100,00 %
16.04.2016 19:41 15,4 C 70 % 1006,4 hPa 0,0 l/m 3,8 km/h (1 Bft) O-NO 71 0 min 0,000 mm 0,0 UV-I 14 W/m 10,0 C 15,4 C 4,8 km/h (1 Bft) 100,00 %
16.04.2016 19:42 15,4 C 70 % 1006,5 hPa 0,0 l/m 3,5 km/h (1 Bft) O-NO 71 0 min 0,000 mm 0,0 UV-I 12 W/m 10,0 C 15,4 C 4,8 km/h (1 Bft) 96,15 %
16.04.2016 19:43 15,3 C 71 % 1006,4 hPa 0,0 l/m 4,3 km/h (1 Bft) O 98 1 min 0,000 mm 0,0 UV-I 12 W/m 10,1 C 15,3 C 4,8 km/h (1 Bft) 100,00 %
16.04.2016 19:44 15,2 C 72 % 1006,5 hPa 0,0 l/m 4,4 km/h (1 Bft) O 90 1 min 0,000 mm 0,0 UV-I 12 W/m 10,2 C 15,2 C 6,4 km/h (2 Bft) 97,56 %
16.04.2016 19:45 15,1 C 73 % 1006,4 hPa 0,0 l/m 4,5 km/h (1 Bft) O 101 1 min 0,000 mm 0,0 UV-I 12 W/m 10,3 C 15,1 C 4,8 km/h (1 Bft) 96,15 %
16.04.2016 19:46 14,9 C 73 % 1006,4 hPa 0,0 l/m 4,8 km/h (1 Bft) O 101 0 min 0,000 mm 0,0 UV-I 11 W/m 10,1 C 14,9 C 6,4 km/h (2 Bft) 91,67 %
16.04.2016 19:47 14,7 C 74 % 1006,4 hPa 0,0 l/m 4,2 km/h (1 Bft) O 101 0 min 0,000 mm 0,0 UV-I 11 W/m 10,1 C 14,7 C 4,8 km/h (1 Bft) 100,00 %
16.04.2016 19:48 14,6 C 75 % 1006,4 hPa 0,0 l/m 3,7 km/h (1 Bft) O 101 0 min 0,000 mm 0,0 UV-I 11 W/m 10,2 C 14,6 C 4,8 km/h (1 Bft) 91,30 %
16.04.2016 19:49 14,4 C 76 % 1006,4 hPa 0,0 l/m 4,0 km/h (1 Bft) O 101 0 min 0,000 mm 0,0 UV-I 10 W/m 10,2 C 14,4 C 4,8 km/h (1 Bft) 100,00 %
16.04.2016 19:50 14,3 C 76 % 1006,4 hPa 0,0 l/m 4,1 km/h (1 Bft) O 101 0 min 0,000 mm 0,0 UV-I 9 W/m 10,1 C 14,3 C 4,8 km/h (1 Bft) 96,55 %
16.04.2016 19:51 14,2 C 76 % 1006,4 hPa 0,0 l/m 3,6 km/h (1 Bft) O 101 0 min 0,000 mm 0,0 UV-I 9 W/m 10,0 C 14,2 C 4,8 km/h (1 Bft) 100,00 %
16.04.2016 19:52 14,1 C 77 % 1006,4 hPa 0,0 l/m 3,0 km/h (1 Bft) O 101 0 min 0,000 mm 0,0 UV-I 9 W/m 10,1 C 14,1 C 4,8 km/h (1 Bft) 95,65 %
16.04.2016 19:53 14,1 C 77 % 1006,5 hPa 0,0 l/m 4,0 km/h (1 Bft) O 101 0 min 0,000 mm 0,0 UV-I 7 W/m 10,1 C 14,1 C 4,8 km/h (1 Bft) 95,83 %
16.04.2016 19:54 14,0 C 77 % 1006,5 hPa 0,0 l/m 3,2 km/h (1 Bft) O 101 0 min 0,000 mm 0,0 UV-I 7 W/m 10,0 C 14,0 C 4,8 km/h (1 Bft) 100,00 %
16.04.2016 19:55 14,0 C 77 % 1006,5 hPa 0,0 l/m 4,8 km/h (1 Bft) O 101 0 min 0,000 mm 0,0 UV-I 7 W/m 10,0 C 14,0 C 9,7 km/h (2 Bft) 100,00 %
16.04.2016 19:56 13,9 C 77 % 1006,5 hPa 0,0 l/m 4,1 km/h (1 Bft) O 100 0 min 0,000 mm 0,0 UV-I 6 W/m 9,9 C 13,9 C 4,8 km/h (1 Bft) 96,15 %
16.04.2016 19:57 13,9 C 77 % 1006,5 hPa 0,0 l/m 3,4 km/h (1 Bft) O 100 0 min 0,000 mm 0,0 UV-I 5 W/m 9,9 C 13,9 C 4,8 km/h (1 Bft) 96,30 %
16.04.2016 19:58 13,8 C 77 % 1006,6 hPa 0,0 l/m 3,9 km/h (1 Bft) O 100 0 min 0,000 mm 0,0 UV-I 5 W/m 9,8 C 13,8 C 4,8 km/h (1 Bft) 100,00 %
16.04.2016 19:59 13,8 C 77 % 1006,6 hPa 0,0 l/m 3,9 km/h (1 Bft) O 100 0 min 0,000 mm 0,0 UV-I 5 W/m 9,8 C 13,8 C 4,8 km/h (1 Bft) 91,67 %
16.04.2016 20:00 13,8 C 77 % 1006,6 hPa 0,0 l/m 4,6 km/h (1 Bft) O 100 0 min 0,000 mm 0,0 UV-I 5 W/m 9,8 C 13,8 C 6,4 km/h (2 Bft) 100,00 %
16.04.2016 20:01 13,7 C 77 % 1006,6 hPa 0,0 l/m 3,5 km/h (1 Bft) O 100 0 min 0,026 mm 0,0 UV-I 2 W/m 9,7 C 13,7 C 4,8 km/h (1 Bft) 96,15 %
16.04.2016 20:02 13,6 C 78 % 1006,6 hPa 0,0 l/m 3,4 km/h (1 Bft) O 100 0 min 0,000 mm 0,0 UV-I 0 W/m 9,8 C 13,6 C 4,8 km/h (1 Bft) 100,00 %
16.04.2016 20:03 13,6 C 78 % 1006,6 hPa 0,0 l/m 3,3 km/h (1 Bft) O 100 0 min 0,000 mm 0,0 UV-I 0 W/m 9,8 C 13,6 C 4,8 km/h (1 Bft) 93,10 %
16.04.2016 20:04 13,5 C 78 % 1006,6 hPa 0,0 l/m 2,1 km/h (1 Bft) O 100 0 min 0,000 mm 0,0 UV-I 0 W/m 9,7 C 13,5 C 3,2 km/h (1 Bft) 95,83 %
16.04.2016 20:05 13,4 C 78 % 1006,6 hPa 0,0 l/m 0,9 km/h (0 Bft) O 100 0 min 0,000 mm 0,0 UV-I 0 W/m 9,6 C 13,4 C 3,2 km/h (1 Bft) 95,65 %
16.04.2016 20:06 13,4 C 79 % 1006,6 hPa 0,0 l/m 1,6 km/h (1 Bft) O 100 0 min 0,000 mm 0,0 UV-I 0 W/m 9,8 C 13,4 C 3,2 km/h (1 Bft) 95,83 %
16.04.2016 20:07 13,4 C 79 % 1006,6 hPa 0,0 l/m 0,9 km/h (0 Bft) O 100 0 min 0,000 mm 0,0 UV-I 0 W/m 9,8 C 13,4 C 1,6 km/h (1 Bft) 100,00 %
16.04.2016 20:08 13,4 C 79 % 1006,6 hPa 0,0 l/m 1,5 km/h (1 Bft) O 100 0 min 0,000 mm 0,0 UV-I 0 W/m 9,8 C 13,4 C 3,2 km/h (1 Bft) 91,67 %
16.04.2016 20:09 13,4 C 79 % 1006,6 hPa 0,0 l/m 1,5 km/h (1 Bft) O 100 0 min 0,000 mm 0,0 UV-I 0 W/m 9,8 C 13,4 C 3,2 km/h (1 Bft) 100,00 %
16.04.2016 20:10 13,4 C 80 % 1006,6 hPa 0,0 l/m 2,1 km/h (1 Bft) O 100 0 min 0,000 mm 0,0 UV-I 0 W/m 10,0 C 13,4 C 3,2 km/h (1 Bft) 95,83 %
16.04.2016 20:11 13,4 C 79 % 1006,6 hPa 0,0 l/m 2,3 km/h (1 Bft) O 100 0 min 0,000 mm 0,0 UV-I 0 W/m 9,8 C 13,4 C 3,2 km/h (1 Bft) 96,15 %
16.04.2016 20:12 13,3 C 80 % 1006,6 hPa 0,0 l/m 3,1 km/h (1 Bft) O 100 0 min 0,000 mm 0,0 UV-I 0 W/m 9,9 C 13,3 C 3,2 km/h (1 Bft) 100,00 %
16.04.2016 20:13 13,2 C 80 % 1006,6 hPa 0,0 l/m 2,3 km/h (1 Bft) O 100 0 min 0,000 mm 0,0 UV-I 0 W/m 9,8 C 13,2 C 3,2 km/h (1 Bft) 94,12 %
16.04.2016 20:14 13,2 C 80 % 1006,6 hPa 0,0 l/m 3,5 km/h (1 Bft) O 100 0 min 0,000 mm 0,0 UV-I 0 W/m 9,8 C 13,2 C 4,8 km/h (1 Bft) 100,00 %
16.04.2016 20:15 13,1 C 80 % 1006,6 hPa 0,0 l/m 4,3 km/h (1 Bft) O 100 0 min 0,000 mm 0,0 UV-I 0 W/m 9,7 C 13,1 C 4,8 km/h (1 Bft) 96,15 %
16.04.2016 20:16 12,9 C 81 % 1006,6 hPa 0,0 l/m 4,9 km/h (1 Bft) O-SO 106 0 min 0,000 mm 0,0 UV-I 0 W/m 9,7 C 12,9 C 6,4 km/h (2 Bft) 100,00 %
16.04.2016 20:17 12,8 C 80 % 1006,6 hPa 0,0 l/m 6,0 km/h (2 Bft) O-SO 104 0 min 0,000 mm 0,0 UV-I 0 W/m 9,4 C 12,8 C 6,4 km/h (2 Bft) 92,86 %
16.04.2016 20:18 12,8 C 80 % 1006,6 hPa 0,0 l/m 5,9 km/h (2 Bft) O-SO 111 0 min 0,000 mm 0,0 UV-I 0 W/m 9,4 C 12,8 C 9,7 km/h (2 Bft) 95,83 %
16.04.2016 20:19 12,8 C 80 % 1006,6 hPa 0,0 l/m 5,6 km/h (1 Bft) O-SO 110 0 min 0,000 mm 0,0 UV-I 0 W/m 9,4 C 12,8 C 6,4 km/h (2 Bft) 95,83 %
16.04.2016 20:20 12,8 C 80 % 1006,6 hPa 0,0 l/m 7,6 km/h (2 Bft) O 93 0 min 0,000 mm 0,0 UV-I 0 W/m 9,4 C 12,0 C 9,7 km/h (2 Bft) 100,00 %
16.04.2016 20:21 12,8 C 80 % 1006,6 hPa 0,0 l/m 7,2 km/h (2 Bft) O 98 0 min 0,000 mm 0,0 UV-I 0 W/m 9,4 C 12,3 C 9,7 km/h (2 Bft) 95,45 %
16.04.2016 20:22 12,8 C 80 % 1006,5 hPa 0,0 l/m 9,2 km/h (2 Bft) O-SO 111 0 min 0,000 mm 0,0 UV-I 0 W/m 9,4 C 11,1 C 11,3 km/h (2 Bft) 100,00 %
16.04.2016 20:23 12,8 C 80 % 1006,5 hPa 0,0 l/m 8,1 km/h (2 Bft) O-SO 102 0 min 0,000 mm 0,0 UV-I 0 W/m 9,4 C 11,7 C 11,3 km/h (2 Bft) 100,00 %
16.04.2016 20:24 12,8 C 80 % 1006,4 hPa 0,0 l/m 9,0 km/h (2 Bft) O 101 0 min 0,000 mm 0,0 UV-I 0 W/m 9,4 C 11,2 C 11,3 km/h (2 Bft) 100,00 %
16.04.2016 20:25 12,8 C 80 % 1006,4 hPa 0,0 l/m 8,5 km/h (2 Bft) O-SO 121 0 min 0,000 mm 0,0 UV-I 0 W/m 9,4 C 11,5 C 11,3 km/h (2 Bft) 100,00 %
16.04.2016 20:26 12,9 C 79 % 1006,4 hPa 0,0 l/m 7,9 km/h (2 Bft) O-SO 119 0 min 0,000 mm 0,0 UV-I 0 W/m 9,3 C 12,0 C 11,3 km/h (2 Bft) 100,00 %
16.04.2016 20:27 13,0 C 79 % 1006,5 hPa 0,0 l/m 6,5 km/h (2 Bft) SO 140 0 min 0,000 mm 0,0 UV-I 0 W/m 9,4 C 13,0 C 8,0 km/h (2 Bft) 96,30 %
16.04.2016 20:28 13,1 C 79 % 1006,5 hPa 0,0 l/m 5,3 km/h (1 Bft) SO 128 0 min 0,000 mm 0,0 UV-I 0 W/m 9,5 C 13,1 C 8,0 km/h (2 Bft) 92,86 %
16.04.2016 20:29 13,2 C 79 % 1006,5 hPa 0,0 l/m 4,7 km/h (1 Bft) S-SO 150 0 min 0,000 mm 0,0 UV-I 0 W/m 9,6 C 13,2 C 8,0 km/h (2 Bft) 100,00 %
16.04.2016 20:30 13,2 C 78 % 1006,6 hPa 0,0 l/m 5,1 km/h (1 Bft) O-SO 118 0 min 0,000 mm 0,0 UV-I 0 W/m 9,4 C 13,2 C 8,0 km/h (2 Bft) 95,65 %
16.04.2016 20:31 13,3 C 78 % 1006,6 hPa 0,0 l/m 5,5 km/h (1 Bft) SO 128 0 min 0,000 mm 0,0 UV-I 0 W/m 9,5 C 13,3 C 8,0 km/h (2 Bft) 100,00 %
16.04.2016 20:32 13,3 C 78 % 1006,7 hPa 0,0 l/m 3,6 km/h (1 Bft) SO 128 0 min 0,000 mm 0,0 UV-I 0 W/m 9,5 C 13,3 C 4,8 km/h (1 Bft) 95,65 %
16.04.2016 20:33 13,4 C 78 % 1006,7 hPa 0,0 l/m 5,4 km/h (1 Bft) SO 144 0 min 0,000 mm 0,0 UV-I 0 W/m 9,6 C 13,4 C 6,4 km/h (2 Bft) 100,00 %
16.04.2016 20:34 13,4 C 77 % 1006,7 hPa 0,0 l/m 4,2 km/h (1 Bft) O-SO 121 0 min 0,000 mm 0,0 UV-I 0 W/m 9,5 C 13,4 C 6,4 km/h (2 Bft) 100,00 %
16.04.2016 20:35 13,5 C 77 % 1006,7 hPa 0,0 l/m 5,1 km/h (1 Bft) SO 132 0 min 0,000 mm 0,0 UV-I 0 W/m 9,5 C 13,5 C 6,4 km/h (2 Bft) 100,00 %
16.04.2016 20:36 13,6 C 77 % 1006,7 hPa 0,0 l/m 4,8 km/h (1 Bft) SO 127 0 min 0,000 mm 0,0 UV-I 0 W/m 9,6 C 13,6 C 6,4 km/h (2 Bft) 96,15 %
16.04.2016 20:37 13,6 C 77 % 1006,7 hPa 0,0 l/m 6,0 km/h (2 Bft) O-SO 115 0 min 0,000 mm 0,0 UV-I 0 W/m 9,6 C 13,6 C 9,7 km/h (2 Bft) 100,00 %
16.04.2016 20:38 13,6 C 77 % 1006,7 hPa 0,0 l/m 6,2 km/h (2 Bft) O-SO 123 0 min 0,000 mm 0,0 UV-I 0 W/m 9,6 C 13,6 C 8,0 km/h (2 Bft) 100,00 %
16.04.2016 20:39 13,5 C 77 % 1006,7 hPa 0,0 l/m 5,7 km/h (1 Bft) SO 134 0 min 0,000 mm 0,0 UV-I 0 W/m 9,5 C 13,5 C 6,4 km/h (2 Bft) 100,00 %
16.04.2016 20:40 13,5 C 77 % 1006,7 hPa 0,0 l/m 5,6 km/h (1 Bft) S-SO 149 0 min 0,000 mm 0,0 UV-I 0 W/m 9,5 C 13,5 C 8,0 km/h (2 Bft) 100,00 %
16.04.2016 20:41 13,4 C 77 % 1006,7 hPa 0,0 l/m 7,0 km/h (2 Bft) SO 140 0 min 0,000 mm 0,0 UV-I 0 W/m 9,5 C 13,0 C 11,3 km/h (2 Bft) 92,86 %
16.04.2016 20:42 13,4 C 77 % 1006,7 hPa 0,0 l/m 5,8 km/h (2 Bft) SO 134 0 min 0,000 mm 0,0 UV-I 0 W/m 9,5 C 13,4 C 8,0 km/h (2 Bft) 97,44 %
16.04.2016 20:43 13,4 C 77 % 1006,7 hPa 0,0 l/m 5,5 km/h (1 Bft) O-SO 115 0 min 0,000 mm 0,0 UV-I 0 W/m 9,5 C 13,4 C 9,7 km/h (2 Bft) 100,00 %
16.04.2016 20:44 13,3 C 77 % 1006,7 hPa 0,0 l/m 5,7 km/h (1 Bft) S-SO 151 0 min 0,000 mm 0,0 UV-I 0 W/m 9,4 C 13,3 C 9,7 km/h (2 Bft) 98,58 %
16.04.2016 20:45 13,3 C 77 % 1006,7 hPa 0,0 l/m 5,8 km/h (2 Bft) O-SO 118 0 min 0,000 mm 0,0 UV-I 0 W/m 9,4 C 13,3 C 9,7 km/h (2 Bft) 100,00 %
16.04.2016 20:46 13,3 C 77 % 1006,7 hPa 0,0 l/m 8,4 km/h (2 Bft) O-SO 109 0 min 0,000 mm 0,0 UV-I 0 W/m 9,4 C 12,1 C 11,3 km/h (2 Bft) 96,30 %
16.04.2016 20:47 13,3 C 77 % 1006,7 hPa 0,0 l/m 7,6 km/h (2 Bft) SO 131 0 min 0,000 mm 0,0 UV-I 0 W/m 9,4 C 12,6 C 11,3 km/h (2 Bft) 100,00 %
16.04.2016 20:48 13,4 C 77 % 1006,7 hPa 0,0 l/m 7,2 km/h (2 Bft) SO 138 0 min 0,000 mm 0,0 UV-I 0 W/m 9,5 C 12,9 C 11,3 km/h (2 Bft) 100,00 %
16.04.2016 20:49 13,4 C 77 % 1006,7 hPa 0,0 l/m 7,4 km/h (2 Bft) O-SO 121 0 min 0,000 mm 0,0 UV-I 0 W/m 9,5 C 12,8 C 11,3 km/h (2 Bft) 100,00 %
16.04.2016 20:50 13,4 C 77 % 1006,7 hPa 0,0 l/m 8,0 km/h (2 Bft) O-SO 122 0 min 0,000 mm 0,0 UV-I 0 W/m 9,5 C 12,4 C 11,3 km/h (2 Bft) 100,00 %
16.04.2016 20:51 13,3 C 77 % 1006,7 hPa 0,0 l/m 7,4 km/h (2 Bft) SO 130 0 min 0,000 mm 0,0 UV-I 0 W/m 9,4 C 12,7 C 11,3 km/h (2 Bft) 100,00 %
16.04.2016 20:52 13,3 C 77 % 1006,7 hPa 0,0 l/m 7,9 km/h (2 Bft) SO 134 0 min 0,000 mm 0,0 UV-I 0 W/m 9,4 C 12,4 C 11,3 km/h (2 Bft) 100,00 %
16.04.2016 20:53 13,3 C 77 % 1006,7 hPa 0,0 l/m 6,4 km/h (2 Bft) SO 138 0 min 0,000 mm 0,0 UV-I 0 W/m 9,4 C 13,3 C 9,7 km/h (2 Bft) 100,00 %
16.04.2016 20:54 13,3 C 77 % 1006,7 hPa 0,0 l/m 8,3 km/h (2 Bft) O-SO 113 0 min 0,000 mm 0,0 UV-I 0 W/m 9,4 C 12,1 C 14,5 km/h (3 Bft) 100,00 %
16.04.2016 20:55 13,3 C 77 % 1006,7 hPa 0,0 l/m 6,6 km/h (2 Bft) O-SO 121 0 min 0,000 mm 0,0 UV-I 0 W/m 9,4 C 13,2 C 11,3 km/h (2 Bft) 100,00 %
16.04.2016 20:56 13,3 C 77 % 1006,7 hPa 0,0 l/m 7,3 km/h (2 Bft) SO 126 0 min 0,000 mm 0,0 UV-I 0 W/m 9,4 C 12,7 C 11,3 km/h (2 Bft) 100,00 %
16.04.2016 20:57 13,3 C 77 % 1006,7 hPa 0,0 l/m 9,4 km/h (2 Bft) O-SO 121 0 min 0,000 mm 0,0 UV-I 0 W/m 9,4 C 11,5 C 11,3 km/h (2 Bft) 100,00 %
16.04.2016 20:58 13,4 C 76 % 1006,7 hPa 0,0 l/m 9,5 km/h (2 Bft) SO 133 0 min 0,000 mm 0,0 UV-I 0 W/m 9,3 C 11,6 C 12,9 km/h (3 Bft) 100,00 %
16.04.2016 20:59 13,4 C 76 % 1006,6 hPa 0,0 l/m 10,5 km/h (2 Bft) O-SO 122 0 min 0,000 mm 0,0 UV-I 0 W/m 9,3 C 11,1 C 12,9 km/h (3 Bft) 100,00 %
16.04.2016 21:00 13,5 C 76 % 1006,6 hPa 0,0 l/m 6,7 km/h (2 Bft) O-SO 122 0 min 0,000 mm 0,0 UV-I 0 W/m 9,4 C 13,3 C 11,3 km/h (2 Bft) 100,00 %
16.04.2016 21:01 13,4 C 76 % 1006,6 hPa 0,0 l/m 6,7 km/h (2 Bft) O-SO 119 0 min 0,025 mm 0,0 UV-I 0 W/m 9,3 C 13,2 C 12,9 km/h (3 Bft) 100,00 %
16.04.2016 21:02 13,4 C 76 % 1006,6 hPa 0,0 l/m 9,4 km/h (2 Bft) SO 136 0 min 0,000 mm 0,0 UV-I 0 W/m 9,3 C 11,7 C 12,9 km/h (3 Bft) 100,00 %
16.04.2016 21:03 13,4 C 76 % 1006,6 hPa 0,0 l/m 8,0 km/h (2 Bft) O-SO 102 0 min 0,000 mm 0,0 UV-I 0 W/m 9,3 C 12,4 C 12,9 km/h (3 Bft) 100,00 %
16.04.2016 21:04 13,4 C 76 % 1006,6 hPa 0,0 l/m 9,1 km/h (2 Bft) O-SO 119 0 min 0,000 mm 0,0 UV-I 0 W/m 9,3 C 11,8 C 12,9 km/h (3 Bft) 100,00 %
16.04.2016 21:05 13,4 C 76 % 1006,6 hPa 0,0 l/m 11,1 km/h (2 Bft) O-SO 116 0 min 0,000 mm 0,0 UV-I 0 W/m 9,3 C 10,8 C 19,3 km/h (3 Bft) 100,00 %
16.04.2016 21:06 13,5 C 75 % 1006,6 hPa 0,0 l/m 9,0 km/h (2 Bft) SO 144 0 min 0,000 mm 0,0 UV-I 0 W/m 9,2 C 12,0 C 12,9 km/h (3 Bft) 100,00 %
16.04.2016 21:07 13,6 C 75 % 1006,6 hPa 0,0 l/m 8,6 km/h (2 Bft) SO 128 0 min 0,000 mm 0,0 UV-I 0 W/m 9,3 C 12,3 C 12,9 km/h (3 Bft) 100,00 %
16.04.2016 21:08 13,6 C 75 % 1006,6 hPa 0,0 l/m 8,8 km/h (2 Bft) SO 130 0 min 0,000 mm 0,0 UV-I 0 W/m 9,3 C 12,2 C 12,9 km/h (3 Bft) 100,00 %
16.04.2016 21:09 13,6 C 75 % 1006,6 hPa 0,0 l/m 8,4 km/h (2 Bft) O-SO 113 0 min 0,000 mm 0,0 UV-I 0 W/m 9,3 C 12,4 C 11,3 km/h (2 Bft) 100,00 %
16.04.2016 21:10 13,6 C 75 % 1006,7 hPa 0,0 l/m 7,0 km/h (2 Bft) O-SO 119 0 min 0,000 mm 0,0 UV-I 0 W/m 9,3 C 13,2 C 12,9 km/h (3 Bft) 100,00 %
16.04.2016 21:11 13,7 C 75 % 1006,7 hPa 0,0 l/m 9,7 km/h (2 Bft) S-SO 150 0 min 0,000 mm 0,0 UV-I 0 W/m 9,3 C 11,8 C 14,5 km/h (3 Bft) 96,30 %
16.04.2016 21:12 13,7 C 75 % 1006,7 hPa 0,0 l/m 7,5 km/h (2 Bft) O-SO 119 0 min 0,000 mm 0,0 UV-I 0 W/m 9,3 C 13,0 C 14,5 km/h (3 Bft) 100,00 %
16.04.2016 21:13 13,7 C 75 % 1006,8 hPa 0,0 l/m 6,4 km/h (2 Bft) SO 136 0 min 0,000 mm 0,0 UV-I 0 W/m 9,3 C 13,7 C 11,3 km/h (2 Bft) 100,00 %
16.04.2016 21:14 13,7 C 75 % 1006,8 hPa 0,0 l/m 7,9 km/h (2 Bft) O-SO 113 0 min 0,000 mm 0,0 UV-I 0 W/m 9,3 C 12,8 C 12,9 km/h (3 Bft) 100,00 %
16.04.2016 21:15 13,7 C 75 % 1006,7 hPa 0,0 l/m 6,7 km/h (2 Bft) SO 133 0 min 0,000 mm 0,0 UV-I 0 W/m 9,3 C 13,5 C 11,3 km/h (2 Bft) 100,00 %
16.04.2016 21:16 13,6 C 75 % 1006,8 hPa 0,0 l/m 6,7 km/h (2 Bft) SO 134 0 min 0,000 mm 0,0 UV-I 0 W/m 9,3 C 13,4 C 12,9 km/h (3 Bft) 100,00 %
16.04.2016 21:17 13,6 C 75 % 1006,8 hPa 0,0 l/m 5,9 km/h (2 Bft) SO 140 0 min 0,000 mm 0,0 UV-I 0 W/m 9,3 C 13,6 C 9,7 km/h (2 Bft) 100,00 %
16.04.2016 21:18 13,6 C 75 % 1006,7 hPa 0,0 l/m 4,7 km/h (1 Bft) SO 133 0 min 0,000 mm 0,0 UV-I 0 W/m 9,3 C 13,6 C 6,4 km/h (2 Bft) 100,00 %
16.04.2016 21:19 13,5 C 75 % 1006,8 hPa 0,0 l/m 4,9 km/h (1 Bft) SO 145 0 min 0,000 mm 0,0 UV-I 0 W/m 9,2 C 13,5 C 6,4 km/h (2 Bft) 100,00 %
16.04.2016 21:20 13,4 C 76 % 1006,8 hPa 0,0 l/m 5,3 km/h (1 Bft) S-SO 157 0 min 0,000 mm 0,0 UV-I 0 W/m 9,3 C 13,4 C 8,0 km/h (2 Bft) 100,00 %
16.04.2016 21:21 13,3 C 76 % 1006,8 hPa 0,0 l/m 6,3 km/h (2 Bft) O 86 0 min 0,000 mm 0,0 UV-I 0 W/m 9,2 C 13,3 C 9,7 km/h (2 Bft) 100,00 %
16.04.2016 21:22 13,3 C 76 % 1006,8 hPa 0,0 l/m 4,4 km/h (1 Bft) SO 131 0 min 0,000 mm 0,0 UV-I 0 W/m 9,2 C 13,3 C 6,4 km/h (2 Bft) 100,00 %
16.04.2016 21:23 13,3 C 76 % 1006,8 hPa 0,0 l/m 6,4 km/h (2 Bft) SO 126 0 min 0,000 mm 0,0 UV-I 0 W/m 9,2 C 13,3 C 11,3 km/h (2 Bft) 100,00 %
16.04.2016 21:24 13,3 C 76 % 1006,8 hPa 0,0 l/m 4,0 km/h (1 Bft) S-SO 161 0 min 0,000 mm 0,0 UV-I 0 W/m 9,2 C 13,3 C 6,4 km/h (2 Bft) 100,00 %
16.04.2016 21:25 13,3 C 76 % 1006,9 hPa 0,0 l/m 2,4 km/h (1 Bft) SO 144 0 min 0,000 mm 0,0 UV-I 0 W/m 9,2 C 13,3 C 4,8 km/h (1 Bft) 100,00 %
16.04.2016 21:26 13,2 C 76 % 1006,8 hPa 0,0 l/m 5,3 km/h (1 Bft) SO 142 0 min 0,000 mm 0,0 UV-I 0 W/m 9,1 C 13,2 C 8,0 km/h (2 Bft) 100,00 %
16.04.2016 21:27 13,1 C 76 % 1006,9 hPa 0,0 l/m 4,3 km/h (1 Bft) O-SO 105 0 min 0,000 mm 0,0 UV-I 0 W/m 9,0 C 13,1 C 6,4 km/h (2 Bft) 100,00 %
16.04.2016 21:28 13,1 C 77 % 1006,9 hPa 0,0 l/m 6,8 km/h (2 Bft) SO 125 0 min 0,000 mm 0,0 UV-I 0 W/m 9,2 C 12,9 C 11,3 km/h (2 Bft) 100,00 %
16.04.2016 21:29 13,1 C 77 % 1006,9 hPa 0,0 l/m 7,2 km/h (2 Bft) SO 126 0 min 0,000 mm 0,0 UV-I 0 W/m 9,2 C 12,6 C 11,3 km/h (2 Bft) 100,00 %
16.04.2016 21:30 13,1 C 76 % 1006,9 hPa 0,0 l/m 5,6 km/h (1 Bft) SO 135 0 min 0,000 mm 0,0 UV-I 0 W/m 9,0 C 13,1 C 8,0 km/h (2 Bft) 100,00 %
16.04.2016 21:31 13,1 C 76 % 1006,8 hPa 0,0 l/m 6,9 km/h (2 Bft) SO 125 0 min 0,000 mm 0,0 UV-I 0 W/m 9,0 C 12,8 C 11,3 km/h (2 Bft) 100,00 %
16.04.2016 21:32 13,0 C 77 % 1006,8 hPa 0,0 l/m 6,4 km/h (2 Bft) SO 135 0 min 0,000 mm 0,0 UV-I 0 W/m 9,1 C 13,0 C 11,3 km/h (2 Bft) 100,00 %
16.04.2016 21:33 12,9 C 77 % 1006,8 hPa 0,0 l/m 6,7 km/h (2 Bft) SO 143 0 min 0,000 mm 0,0 UV-I 0 W/m 9,0 C 12,7 C 11,3 km/h (2 Bft) 100,00 %
16.04.2016 21:34 12,9 C 77 % 1006,8 hPa 0,0 l/m 9,8 km/h (2 Bft) SO 127 0 min 0,000 mm 0,0 UV-I 0 W/m 9,0 C 10,9 C 12,9 km/h (3 Bft) 100,00 %
16.04.2016 21:35 12,9 C 77 % 1006,8 hPa 0,0 l/m 8,8 km/h (2 Bft) O-SO 119 0 min 0,000 mm 0,0 UV-I 0 W/m 9,0 C 11,4 C 14,5 km/h (3 Bft) 100,00 %
16.04.2016 21:36 12,9 C 77 % 1006,8 hPa 0,0 l/m 9,0 km/h (2 Bft) SO 124 0 min 0,000 mm 0,0 UV-I 0 W/m 9,0 C 11,3 C 11,3 km/h (2 Bft) 100,00 %
16.04.2016 21:37 13,0 C 77 % 1006,9 hPa 0,0 l/m 10,2 km/h (2 Bft) SO 134 0 min 0,000 mm 0,0 UV-I 0 W/m 9,1 C 10,8 C 14,5 km/h (3 Bft) 100,00 %
16.04.2016 21:38 13,0 C 77 % 1006,8 hPa 0,0 l/m 7,9 km/h (2 Bft) SO 134 0 min 0,000 mm 0,0 UV-I 0 W/m 9,1 C 12,1 C 12,9 km/h (3 Bft) 91,67 %
16.04.2016 21:39 13,0 C 77 % 1006,9 hPa 0,0 l/m 6,3 km/h (2 Bft) SO 128 0 min 0,000 mm 0,0 UV-I 0 W/m 9,1 C 13,0 C 9,7 km/h (2 Bft) 100,00 %
16.04.2016 21:40 13,0 C 77 % 1006,9 hPa 0,0 l/m 4,9 km/h (1 Bft) SO 130 0 min 0,000 mm 0,0 UV-I 0 W/m 9,1 C 13,0 C 6,4 km/h (2 Bft) 96,55 %
16.04.2016 21:41 13,0 C 77 % 1006,9 hPa 0,0 l/m 7,3 km/h (2 Bft) SO 128 0 min 0,000 mm 0,0 UV-I 0 W/m 9,1 C 12,4 C 11,3 km/h (2 Bft) 100,00 %
16.04.2016 21:42 13,0 C 77 % 1006,9 hPa 0,0 l/m 7,2 km/h (2 Bft) SO 136 0 min 0,000 mm 0,0 UV-I 0 W/m 9,1 C 12,5 C 11,3 km/h (2 Bft) 100,00 %
16.04.2016 21:43 13,1 C 77 % 1006,9 hPa 0,0 l/m 7,2 km/h (2 Bft) SO 130 0 min 0,000 mm 0,0 UV-I 0 W/m 9,2 C 12,6 C 11,3 km/h (2 Bft) 100,00 %
16.04.2016 21:44 13,1 C 76 % 1006,9 hPa 0,0 l/m 6,1 km/h (2 Bft) SO 141 0 min 0,000 mm 0,0 UV-I 0 W/m 9,0 C 13,1 C 11,3 km/h (2 Bft) 100,00 %
16.04.2016 21:45 13,1 C 76 % 1006,9 hPa 0,0 l/m 5,3 km/h (1 Bft) SO 132 0 min 0,000 mm 0,0 UV-I 0 W/m 9,0 C 13,1 C 9,7 km/h (2 Bft) 100,00 %
16.04.2016 21:46 13,1 C 76 % 1006,8 hPa 0,0 l/m 7,1 km/h (2 Bft) O-SO 117 0 min 0,000 mm 0,0 UV-I 0 W/m 9,0 C 12,7 C 9,7 km/h (2 Bft) 100,00 %
16.04.2016 21:47 13,0 C 76 % 1006,9 hPa 0,0 l/m 6,2 km/h (2 Bft) O-SO 111 0 min 0,000 mm 0,0 UV-I 0 W/m 8,9 C 13,0 C 9,7 km/h (2 Bft) 100,00 %
16.04.2016 21:48 12,9 C 77 % 1006,9 hPa 0,0 l/m 5,0 km/h (1 Bft) O-SO 117 0 min 0,000 mm 0,0 UV-I 0 W/m 9,0 C 12,9 C 6,4 km/h (2 Bft) 100,00 %
16.04.2016 21:49 12,8 C 77 % 1006,9 hPa 0,0 l/m 3,1 km/h (1 Bft) SO 136 0 min 0,000 mm 0,0 UV-I 0 W/m 8,9 C 12,8 C 4,8 km/h (1 Bft) 98,65 %
16.04.2016 21:50 12,8 C 77 % 1006,9 hPa 0,0 l/m 2,6 km/h (1 Bft) SO 130 0 min 0,000 mm 0,0 UV-I 0 W/m 8,9 C 12,8 C 4,8 km/h (1 Bft) 97,37 %
16.04.2016 21:51 12,8 C 77 % 1006,9 hPa 0,0 l/m 4,1 km/h (1 Bft) S-SO 150 0 min 0,000 mm 0,0 UV-I 0 W/m 8,9 C 12,8 C 6,4 km/h (2 Bft) 100,00 %
16.04.2016 21:52 12,8 C 77 % 1006,9 hPa 0,0 l/m 3,6 km/h (1 Bft) S-SO 163 0 min 0,000 mm 0,0 UV-I 0 W/m 8,9 C 12,8 C 9,7 km/h (2 Bft) 100,00 %
16.04.2016 21:53 12,8 C 77 % 1006,8 hPa 0,0 l/m 2,8 km/h (1 Bft) S-SO 163 0 min 0,000 mm 0,0 UV-I 0 W/m 8,9 C 12,8 C 4,8 km/h (1 Bft) 100,00 %
16.04.2016 21:54 12,8 C 77 % 1006,8 hPa 0,0 l/m 2,5 km/h (1 Bft) S-SO 152 0 min 0,000 mm 0,0 UV-I 0 W/m 8,9 C 12,8 C 3,2 km/h (1 Bft) 94,12 %
16.04.2016 21:55 12,8 C 77 % 1006,8 hPa 0,0 l/m 1,9 km/h (1 Bft) S-SO 150 0 min 0,000 mm 0,0 UV-I 0 W/m 8,9 C 12,8 C 3,2 km/h (1 Bft) 100,00 %
16.04.2016 21:56 12,7 C 77 % 1006,8 hPa 0,0 l/m 1,8 km/h (1 Bft) S-SO 150 0 min 0,000 mm 0,0 UV-I 0 W/m 8,8 C 12,7 C 3,2 km/h (1 Bft) 96,15 %
16.04.2016 21:57 12,6 C 78 % 1006,8 hPa 0,0 l/m 1,6 km/h (1 Bft) S-SO 150 0 min 0,000 mm 0,0 UV-I 0 W/m 8,9 C 12,6 C 3,2 km/h (1 Bft) 95,83 %
16.04.2016 21:58 12,5 C 78 % 1006,9 hPa 0,0 l/m 1,6 km/h (1 Bft) S-SO 150 0 min 0,000 mm 0,0 UV-I 0 W/m 8,8 C 12,5 C 3,2 km/h (1 Bft) 100,00 %
16.04.2016 21:59 12,3 C 78 % 1006,9 hPa 0,0 l/m 1,6 km/h (1 Bft) S-SO 150 0 min 0,000 mm 0,0 UV-I 0 W/m 8,6 C 12,3 C 3,2 km/h (1 Bft) 96,88 %
16.04.2016 22:00 12,3 C 79 % 1006,9 hPa 0,0 l/m 0,7 km/h (0 Bft) S-SO 150 0 min 0,000 mm 0,0 UV-I 0 W/m 8,8 C 12,3 C 1,6 km/h (1 Bft) 100,00 %
16.04.2016 22:01 12,2 C 79 % 1006,9 hPa 0,0 l/m 1,6 km/h (1 Bft) SO 138 0 min 0,026 mm 0,0 UV-I 0 W/m 8,7 C 12,2 C 3,2 km/h (1 Bft) 96,55 %
16.04.2016 22:02 12,2 C 79 % 1006,9 hPa 0,0 l/m 2,8 km/h (1 Bft) SO 142 0 min 0,000 mm 0,0 UV-I 0 W/m 8,7 C 12,2 C 6,4 km/h (2 Bft) 100,00 %
16.04.2016 22:03 12,1 C 80 % 1006,9 hPa 0,0 l/m 1,7 km/h (1 Bft) SO 142 0 min 0,000 mm 0,0 UV-I 0 W/m 8,8 C 12,1 C 4,8 km/h (1 Bft) 95,65 %
16.04.2016 22:04 12,1 C 80 % 1006,9 hPa 0,0 l/m 1,2 km/h (1 Bft) SO 142 0 min 0,000 mm 0,0 UV-I 0 W/m 8,8 C 12,1 C 3,2 km/h (1 Bft) 91,67 %
16.04.2016 22:05 11,9 C 80 % 1007,0 hPa 0,0 l/m 1,4 km/h (1 Bft) SO 142 0 min 0,000 mm 0,0 UV-I 0 W/m 8,6 C 11,9 C 3,2 km/h (1 Bft) 96,15 %
16.04.2016 22:06 11,8 C 80 % 1007,0 hPa 0,0 l/m 1,3 km/h (1 Bft) SO 142 0 min 0,000 mm 0,0 UV-I 0 W/m 8,5 C 11,8 C 3,2 km/h (1 Bft) 100,00 %
16.04.2016 22:07 11,7 C 80 % 1006,9 hPa 0,0 l/m 2,4 km/h (1 Bft) SO 142 0 min 0,000 mm 0,0 UV-I 0 W/m 8,4 C 11,7 C 3,2 km/h (1 Bft) 96,15 %
16.04.2016 22:08 11,7 C 81 % 1006,9 hPa 0,0 l/m 2,1 km/h (1 Bft) SO 136 0 min 0,000 mm 0,0 UV-I 0 W/m 8,5 C 11,7 C 4,8 km/h (1 Bft) 96,30 %
16.04.2016 22:09 11,6 C 81 % 1007,0 hPa 0,0 l/m 2,4 km/h (1 Bft) SO 129 0 min 0,000 mm 0,0 UV-I 0 W/m 8,5 C 11,6 C 4,8 km/h (1 Bft) 100,00 %
16.04.2016 22:10 11,5 C 82 % 1006,9 hPa 0,0 l/m 2,7 km/h (1 Bft) SO 134 0 min 0,000 mm 0,0 UV-I 0 W/m 8,5 C 11,5 C 4,8 km/h (1 Bft) 91,67 %
16.04.2016 22:11 11,4 C 82 % 1007,0 hPa 0,0 l/m 2,3 km/h (1 Bft) SO 135 0 min 0,000 mm 0,0 UV-I 0 W/m 8,4 C 11,4 C 4,8 km/h (1 Bft) 96,55 %
16.04.2016 22:12 11,4 C 82 % 1006,9 hPa 0,0 l/m 2,0 km/h (1 Bft) SO 139 0 min 0,000 mm 0,0 UV-I 0 W/m 8,4 C 11,4 C 3,2 km/h (1 Bft) 95,83 %
16.04.2016 22:13 11,3 C 82 % 1007,0 hPa 0,0 l/m 1,2 km/h (1 Bft) SO 139 0 min 0,000 mm 0,0 UV-I 0 W/m 8,3 C 11,3 C 3,2 km/h (1 Bft) 100,00 %
16.04.2016 22:14 11,3 C 82 % 1006,9 hPa 0,0 l/m 2,0 km/h (1 Bft) SO 140 0 min 0,000 mm 0,0 UV-I 0 W/m 8,3 C 11,3 C 4,8 km/h (1 Bft) 96,67 %
16.04.2016 22:15 11,3 C 83 % 1006,9 hPa 0,0 l/m 2,4 km/h (1 Bft) SO 142 0 min 0,000 mm 0,0 UV-I 0 W/m 8,5 C 11,3 C 4,8 km/h (1 Bft) 95,65 %
16.04.2016 22:16 11,3 C 83 % 1006,9 hPa 0,0 l/m 3,0 km/h (1 Bft) SO 137 0 min 0,000 mm 0,0 UV-I 0 W/m 8,5 C 11,3 C 4,8 km/h (1 Bft) 100,00 %
16.04.2016 22:17 11,3 C 82 % 1006,9 hPa 0,0 l/m 2,4 km/h (1 Bft) SO 137 0 min 0,000 mm 0,0 UV-I 0 W/m 8,3 C 11,3 C 3,2 km/h (1 Bft) 93,33 %
16.04.2016 22:18 11,3 C 83 % 1006,9 hPa 0,0 l/m 1,9 km/h (1 Bft) SO 137 0 min 0,000 mm 0,0 UV-I 0 W/m 8,5 C 11,3 C 3,2 km/h (1 Bft) 100,00 %
16.04.2016 22:19 11,3 C 83 % 1006,9 hPa 0,0 l/m 3,1 km/h (1 Bft) O-SO 120 0 min 0,000 mm 0,0 UV-I 0 W/m 8,5 C 11,3 C 4,8 km/h (1 Bft) 95,83 %
16.04.2016 22:20 11,3 C 83 % 1006,9 hPa 0,0 l/m 1,4 km/h (1 Bft) O-SO 120 0 min 0,000 mm 0,0 UV-I 0 W/m 8,5 C 11,3 C 3,2 km/h (1 Bft) 100,00 %
16.04.2016 22:21 11,3 C 83 % 1006,9 hPa 0,0 l/m 2,3 km/h (1 Bft) O-SO 120 0 min 0,000 mm 0,0 UV-I 0 W/m 8,5 C 11,3 C 3,2 km/h (1 Bft) 96,67 %
16.04.2016 22:22 11,3 C 83 % 1006,9 hPa 0,0 l/m 1,7 km/h (1 Bft) O-SO 120 0 min 0,000 mm 0,0 UV-I 0 W/m 8,5 C 11,3 C 3,2 km/h (1 Bft) 96,15 %
16.04.2016 22:23 11,2 C 83 % 1006,9 hPa 0,0 l/m 2,0 km/h (1 Bft) O-SO 119 0 min 0,000 mm 0,0 UV-I 0 W/m 8,4 C 11,2 C 3,2 km/h (1 Bft) 100,00 %
16.04.2016 22:24 11,1 C 83 % 1006,9 hPa 0,0 l/m 2,8 km/h (1 Bft) O 94 0 min 0,000 mm 0,0 UV-I 0 W/m 8,3 C 11,1 C 3,2 km/h (1 Bft) 93,55 %
16.04.2016 22:25 10,9 C 84 % 1006,8 hPa 0,0 l/m 2,3 km/h (1 Bft) O-NO 66 0 min 0,000 mm 0,0 UV-I 0 W/m 8,3 C 10,9 C 3,2 km/h (1 Bft) 100,00 %
16.04.2016 22:26 10,9 C 84 % 1006,8 hPa 0,0 l/m 1,9 km/h (1 Bft) O-NO 66 0 min 0,000 mm 0,0 UV-I 0 W/m 8,3 C 10,9 C 3,2 km/h (1 Bft) 95,65 %
16.04.2016 22:27 10,8 C 84 % 1006,7 hPa 0,0 l/m 1,3 km/h (1 Bft) O-NO 66 0 min 0,000 mm 0,0 UV-I 0 W/m 8,2 C 10,8 C 3,2 km/h (1 Bft) 100,00 %
16.04.2016 22:28 10,8 C 85 % 1006,7 hPa 0,0 l/m 1,2 km/h (1 Bft) O-NO 66 0 min 0,000 mm 0,0 UV-I 0 W/m 8,4 C 10,8 C 3,2 km/h (1 Bft) 95,65 %
16.04.2016 22:29 10,8 C 85 % 1006,7 hPa 0,0 l/m 1,7 km/h (1 Bft) O-NO 66 0 min 0,000 mm 0,0 UV-I 0 W/m 8,4 C 10,8 C 4,8 km/h (1 Bft) 95,83 %
16.04.2016 22:30 10,8 C 85 % 1006,7 hPa 0,0 l/m 3,7 km/h (1 Bft) O-NO 66 0 min 0,000 mm 0,0 UV-I 0 W/m 8,4 C 10,8 C 4,8 km/h (1 Bft) 100,00 %
16.04.2016 22:31 10,9 C 85 % 1006,7 hPa 0,0 l/m 3,9 km/h (1 Bft) O-NO 66 0 min 0,000 mm 0,0 UV-I 0 W/m 8,5 C 10,9 C 4,8 km/h (1 Bft) 100,00 %
16.04.2016 22:32 10,9 C 85 % 1006,7 hPa 0,0 l/m 3,1 km/h (1 Bft) O-NO 66 0 min 0,000 mm 0,0 UV-I 0 W/m 8,5 C 10,9 C 4,8 km/h (1 Bft) 100,00 %
16.04.2016 22:33 11,0 C 85 % 1006,7 hPa 0,0 l/m 3,0 km/h (1 Bft) O-NO 66 0 min 0,000 mm 0,0 UV-I 0 W/m 8,6 C 11,0 C 3,2 km/h (1 Bft) 100,00 %
16.04.2016 22:34 11,0 C 84 % 1006,7 hPa 0,0 l/m 2,8 km/h (1 Bft) O-NO 66 0 min 0,000 mm 0,0 UV-I 0 W/m 8,4 C 11,0 C 3,2 km/h (1 Bft) 92,86 %
16.04.2016 22:35 11,0 C 84 % 1006,7 hPa 0,0 l/m 3,7 km/h (1 Bft) O-NO 66 0 min 0,000 mm 0,0 UV-I 0 W/m 8,4 C 11,0 C 4,8 km/h (1 Bft) 91,67 %
16.04.2016 22:36 11,0 C 84 % 1006,7 hPa 0,0 l/m 1,8 km/h (1 Bft) O-NO 66 0 min 0,000 mm 0,0 UV-I 0 W/m 8,4 C 11,0 C 3,2 km/h (1 Bft) 100,00 %
16.04.2016 22:37 10,9 C 84 % 1006,7 hPa 0,0 l/m 0,6 km/h (0 Bft) O-NO 66 0 min 0,000 mm 0,0 UV-I 0 W/m 8,3 C 10,9 C 1,6 km/h (1 Bft) 100,00 %
16.04.2016 22:38 10,8 C 84 % 1006,7 hPa 0,0 l/m 0,4 km/h (0 Bft) O-NO 66 0 min 0,000 mm 0,0 UV-I 0 W/m 8,2 C 10,8 C 1,6 km/h (1 Bft) 100,00 %
16.04.2016 22:39 10,7 C 85 % 1006,7 hPa 0,0 l/m 1,1 km/h (1 Bft) O-NO 66 0 min 0,000 mm 0,0 UV-I 0 W/m 8,3 C 10,7 C 1,6 km/h (1 Bft) 100,00 %
16.04.2016 22:40 10,5 C 85 % 1006,7 hPa 0,0 l/m 0,1 km/h (0 Bft) O-NO 66 0 min 0,000 mm 0,0 UV-I 0 W/m 8,1 C 10,5 C 1,6 km/h (1 Bft) 100,00 %
16.04.2016 22:41 10,4 C 86 % 1006,7 hPa 0,0 l/m 0,9 km/h (0 Bft) O-NO 66 0 min 0,000 mm 0,0 UV-I 0 W/m 8,2 C 10,4 C 1,6 km/h (1 Bft) 100,00 %
16.04.2016 22:42 10,3 C 86 % 1006,6 hPa 0,0 l/m 1,7 km/h (1 Bft) O-NO 66 0 min 0,000 mm 0,0 UV-I 0 W/m 8,1 C 10,3 C 3,2 km/h (1 Bft) 100,00 %
16.04.2016 22:43 10,3 C 86 % 1006,6 hPa 0,0 l/m 2,8 km/h (1 Bft) O-NO 66 0 min 0,000 mm 0,0 UV-I 0 W/m 8,1 C 10,3 C 3,2 km/h (1 Bft) 100,00 %
16.04.2016 22:44 10,3 C 86 % 1006,6 hPa 0,0 l/m 1,8 km/h (1 Bft) O-NO 66 0 min 0,000 mm 0,0 UV-I 0 W/m 8,1 C 10,3 C 3,2 km/h (1 Bft) 100,00 %
16.04.2016 22:45 10,3 C 87 % 1006,5 hPa 0,0 l/m 1,5 km/h (1 Bft) O-NO 66 0 min 0,000 mm 0,0 UV-I 0 W/m 8,2 C 10,3 C 3,2 km/h (1 Bft) 100,00 %
16.04.2016 22:46 10,3 C 87 % 1006,5 hPa 0,0 l/m 2,1 km/h (1 Bft) O-NO 66 0 min 0,000 mm 0,0 UV-I 0 W/m 8,2 C 10,3 C 4,8 km/h (1 Bft) 100,00 %
16.04.2016 22:47 10,3 C 87 % 1006,5 hPa 0,0 l/m 3,0 km/h (1 Bft) NO 34 0 min 0,000 mm 0,0 UV-I 0 W/m 8,2 C 10,3 C 4,8 km/h (1 Bft) 95,65 %
16.04.2016 22:48 10,2 C 87 % 1006,5 hPa 0,0 l/m 5,1 km/h (1 Bft) NO 34 0 min 0,000 mm 0,0 UV-I 0 W/m 8,1 C 10,2 C 6,4 km/h (2 Bft) 100,00 %
16.04.2016 22:49 10,2 C 87 % 1006,5 hPa 0,0 l/m 5,5 km/h (1 Bft) NO 34 0 min 0,000 mm 0,0 UV-I 0 W/m 8,1 C 10,2 C 6,4 km/h (2 Bft) 100,00 %
16.04.2016 22:50 10,2 C 87 % 1006,4 hPa 0,0 l/m 5,6 km/h (1 Bft) NO 34 0 min 0,000 mm 0,0 UV-I 0 W/m 8,1 C 10,2 C 6,4 km/h (2 Bft) 100,00 %
16.04.2016 22:51 10,2 C 87 % 1006,4 hPa 0,0 l/m 5,4 km/h (1 Bft) NO 38 0 min 0,000 mm 0,0 UV-I 0 W/m 8,1 C 10,2 C 6,4 km/h (2 Bft) 100,00 %
16.04.2016 22:52 10,2 C 87 % 1006,4 hPa 0,0 l/m 5,6 km/h (1 Bft) NO 42 0 min 0,000 mm 0,0 UV-I 0 W/m 8,1 C 10,2 C 8,0 km/h (2 Bft) 100,00 %
16.04.2016 22:53 10,2 C 87 % 1006,4 hPa 0,0 l/m 6,9 km/h (2 Bft) NO 35 0 min 0,000 mm 0,0 UV-I 0 W/m 8,1 C 9,8 C 8,0 km/h (2 Bft) 100,00 %
16.04.2016 22:54 10,2 C 87 % 1006,4 hPa 0,0 l/m 7,1 km/h (2 Bft) NO 34 0 min 0,000 mm 0,0 UV-I 0 W/m 8,1 C 9,7 C 8,0 km/h (2 Bft) 100,00 %
16.04.2016 22:55 10,2 C 87 % 1006,3 hPa 0,0 l/m 6,4 km/h (2 Bft) NO 34 0 min 0,000 mm 0,0 UV-I 0 W/m 8,1 C 10,2 C 8,0 km/h (2 Bft) 100,00 %
16.04.2016 22:56 10,2 C 87 % 1006,3 hPa 0,0 l/m 7,1 km/h (2 Bft) NO 38 0 min 0,000 mm 0,0 UV-I 0 W/m 8,1 C 9,7 C 8,0 km/h (2 Bft) 100,00 %
16.04.2016 22:57 10,2 C 87 % 1006,3 hPa 0,0 l/m 7,2 km/h (2 Bft) NO 40 0 min 0,000 mm 0,0 UV-I 0 W/m 8,1 C 9,6 C 8,0 km/h (2 Bft) 100,00 %
16.04.2016 22:58 10,2 C 87 % 1006,2 hPa 0,0 l/m 7,1 km/h (2 Bft) NO 42 0 min 0,000 mm 0,0 UV-I 0 W/m 8,1 C 9,7 C 8,0 km/h (2 Bft) 100,00 %
16.04.2016 22:59 10,2 C 87 % 1006,1 hPa 0,0 l/m 6,8 km/h (2 Bft) NO 40 0 min 0,000 mm 0,0 UV-I 0 W/m 8,1 C 9,9 C 8,0 km/h (2 Bft) 100,00 %
16.04.2016 23:00 10,2 C 87 % 1006,1 hPa 0,0 l/m 7,4 km/h (2 Bft) NO 45 0 min 0,000 mm 0,0 UV-I 0 W/m 8,1 C 9,5 C 9,7 km/h (2 Bft) 95,65 %
16.04.2016 23:01 10,2 C 87 % 1006,1 hPa 0,0 l/m 6,3 km/h (2 Bft) NO 45 0 min 0,000 mm 0,0 UV-I 0 W/m 8,1 C 10,2 C 8,0 km/h (2 Bft) 100,00 %
16.04.2016 23:02 10,3 C 87 % 1006,2 hPa 0,0 l/m 5,8 km/h (2 Bft) NO 44 0 min 0,000 mm 0,0 UV-I 0 W/m 8,2 C 10,3 C 8,0 km/h (2 Bft) 100,00 %
16.04.2016 23:03 10,3 C 87 % 1006,1 hPa 0,0 l/m 6,5 km/h (2 Bft) NO 46 0 min 0,000 mm 0,0 UV-I 0 W/m 8,2 C 10,3 C 8,0 km/h (2 Bft) 100,00 %
16.04.2016 23:04 10,4 C 87 % 1006,2 hPa 0,0 l/m 5,2 km/h (1 Bft) NO 49 0 min 0,000 mm 0,0 UV-I 0 W/m 8,3 C 10,4 C 6,4 km/h (2 Bft) 95,65 %
16.04.2016 23:05 10,5 C 87 % 1006,3 hPa 0,0 l/m 5,2 km/h (1 Bft) NO 49 0 min 0,000 mm 0,0 UV-I 0 W/m 8,4 C 10,5 C 6,4 km/h (2 Bft) 100,00 %
16.04.2016 23:06 10,6 C 86 % 1006,3 hPa 0,0 l/m 5,2 km/h (1 Bft) NO 49 0 min 0,000 mm 0,0 UV-I 0 W/m 8,4 C 10,6 C 6,4 km/h (2 Bft) 95,65 %
16.04.2016 23:07 10,7 C 86 % 1006,3 hPa 0,0 l/m 5,1 km/h (1 Bft) NO 49 0 min 0,000 mm 0,0 UV-I 0 W/m 8,5 C 10,7 C 6,4 km/h (2 Bft) 95,83 %
16.04.2016 23:08 10,7 C 86 % 1006,3 hPa 0,0 l/m 3,9 km/h (1 Bft) NO 49 0 min 0,000 mm 0,0 UV-I 0 W/m 8,5 C 10,7 C 4,8 km/h (1 Bft) 100,00 %
16.04.2016 23:09 10,8 C 86 % 1006,3 hPa 0,0 l/m 3,8 km/h (1 Bft) NO 49 0 min 0,000 mm 0,0 UV-I 0 W/m 8,6 C 10,8 C 4,8 km/h (1 Bft) 100,00 %
16.04.2016 23:10 10,8 C 85 % 1006,3 hPa 0,0 l/m 3,4 km/h (1 Bft) NO 49 0 min 0,000 mm 0,0 UV-I 0 W/m 8,4 C 10,8 C 4,8 km/h (1 Bft) 90,91 %
16.04.2016 23:11 10,9 C 85 % 1006,3 hPa 0,0 l/m 3,7 km/h (1 Bft) NO 49 0 min 0,000 mm 0,0 UV-I 0 W/m 8,5 C 10,9 C 4,8 km/h (1 Bft) 100,00 %
16.04.2016 23:12 10,8 C 85 % 1006,3 hPa 0,0 l/m 4,1 km/h (1 Bft) NO 49 0 min 0,000 mm 0,0 UV-I 0 W/m 8,4 C 10,8 C 4,8 km/h (1 Bft) 100,00 %
16.04.2016 23:13 10,8 C 85 % 1006,3 hPa 0,0 l/m 3,5 km/h (1 Bft) NO 49 0 min 0,000 mm 0,0 UV-I 0 W/m 8,4 C 10,8 C 4,8 km/h (1 Bft) 100,00 %
16.04.2016 23:14 10,8 C 85 % 1006,3 hPa 0,0 l/m 3,8 km/h (1 Bft) NO 49 0 min 0,000 mm 0,0 UV-I 0 W/m 8,4 C 10,8 C 4,8 km/h (1 Bft) 100,00 %
16.04.2016 23:15 10,8 C 85 % 1006,2 hPa 0,0 l/m 3,4 km/h (1 Bft) NO 49 0 min 0,000 mm 0,0 UV-I 0 W/m 8,4 C 10,8 C 4,8 km/h (1 Bft) 95,83 %
16.04.2016 23:16 10,7 C 85 % 1006,2 hPa 0,0 l/m 4,2 km/h (1 Bft) NO 49 0 min 0,000 mm 0,0 UV-I 0 W/m 8,3 C 10,7 C 4,8 km/h (1 Bft) 95,65 %
16.04.2016 23:17 10,6 C 85 % 1006,2 hPa 0,0 l/m 4,7 km/h (1 Bft) NO 49 0 min 0,000 mm 0,0 UV-I 0 W/m 8,2 C 10,6 C 6,4 km/h (2 Bft) 100,00 %
16.04.2016 23:18 10,6 C 85 % 1006,2 hPa 0,0 l/m 5,6 km/h (1 Bft) NO 37 0 min 0,000 mm 0,0 UV-I 0 W/m 8,2 C 10,6 C 8,0 km/h (2 Bft) 100,00 %
16.04.2016 23:19 10,6 C 85 % 1006,2 hPa 0,0 l/m 5,8 km/h (2 Bft) NO 42 0 min 0,000 mm 0,0 UV-I 0 W/m 8,2 C 10,6 C 6,4 km/h (2 Bft) 100,00 %
16.04.2016 23:20 10,5 C 86 % 1006,2 hPa 0,0 l/m 6,2 km/h (2 Bft) NO 41 0 min 0,000 mm 0,0 UV-I 0 W/m 8,3 C 10,5 C 6,4 km/h (2 Bft) 100,00 %
16.04.2016 23:21 10,5 C 86 % 1006,1 hPa 0,0 l/m 6,4 km/h (2 Bft) NO 39 0 min 0,000 mm 0,0 UV-I 0 W/m 8,3 C 10,5 C 8,0 km/h (2 Bft) 100,00 %
16.04.2016 23:22 10,5 C 86 % 1006,1 hPa 0,0 l/m 6,6 km/h (2 Bft) NO 42 0 min 0,000 mm 0,0 UV-I 0 W/m 8,3 C 10,4 C 8,0 km/h (2 Bft) 98,62 %
16.04.2016 23:23 10,4 C 86 % 1006,1 hPa 0,0 l/m 6,7 km/h (2 Bft) NO 40 0 min 0,000 mm 0,0 UV-I 0 W/m 8,2 C 10,2 C 8,0 km/h (2 Bft) 95,12 %
16.04.2016 23:24 10,4 C 86 % 1006,1 hPa 0,0 l/m 6,0 km/h (2 Bft) NO 40 0 min 0,000 mm 0,0 UV-I 0 W/m 8,2 C 10,4 C 6,4 km/h (2 Bft) 100,00 %
16.04.2016 23:25 10,4 C 86 % 1006,1 hPa 0,0 l/m 4,3 km/h (1 Bft) NO 40 0 min 0,000 mm 0,0 UV-I 0 W/m 8,2 C 10,4 C 6,4 km/h (2 Bft) 100,00 %
16.04.2016 23:26 10,4 C 87 % 1006,0 hPa 0,0 l/m 4,4 km/h (1 Bft) NO 40 0 min 0,000 mm 0,0 UV-I 0 W/m 8,3 C 10,4 C 6,4 km/h (2 Bft) 100,00 %
16.04.2016 23:27 10,4 C 87 % 1006,1 hPa 0,0 l/m 5,8 km/h (2 Bft) NO 40 0 min 0,000 mm 0,0 UV-I 0 W/m 8,3 C 10,4 C 6,4 km/h (2 Bft) 95,65 %
16.04.2016 23:28 10,4 C 86 % 1006,1 hPa 0,0 l/m 5,5 km/h (1 Bft) NO 38 0 min 0,000 mm 0,0 UV-I 0 W/m 8,2 C 10,4 C 6,4 km/h (2 Bft) 100,00 %
16.04.2016 23:29 10,3 C 86 % 1006,1 hPa 0,0 l/m 5,2 km/h (1 Bft) NO 38 0 min 0,000 mm 0,0 UV-I 0 W/m 8,1 C 10,3 C 6,4 km/h (2 Bft) 100,00 %
16.04.2016 23:30 10,3 C 87 % 1006,1 hPa 0,0 l/m 5,2 km/h (1 Bft) NO 38 0 min 0,000 mm 0,0 UV-I 0 W/m 8,2 C 10,3 C 6,4 km/h (2 Bft) 100,00 %
16.04.2016 23:31 10,4 C 87 % 1006,1 hPa 0,0 l/m 4,5 km/h (1 Bft) NO 53 0 min 0,000 mm 0,0 UV-I 0 W/m 8,3 C 10,4 C 6,4 km/h (2 Bft) 100,00 %
16.04.2016 23:32 10,4 C 87 % 1006,1 hPa 0,0 l/m 5,4 km/h (1 Bft) NO 56 0 min 0,000 mm 0,0 UV-I 0 W/m 8,3 C 10,4 C 8,0 km/h (2 Bft) 100,00 %
16.04.2016 23:33 10,5 C 87 % 1006,1 hPa 0,0 l/m 6,3 km/h (2 Bft) O-NO 62 0 min 0,000 mm 0,0 UV-I 0 W/m 8,4 C 10,5 C 8,0 km/h (2 Bft) 98,63 %
16.04.2016 23:34 10,6 C 87 % 1006,1 hPa 0,0 l/m 6,4 km/h (2 Bft) O-NO 57 0 min 0,000 mm 0,0 UV-I 0 W/m 8,5 C 10,6 C 8,0 km/h (2 Bft) 100,00 %
16.04.2016 23:35 10,7 C 86 % 1006,1 hPa 0,0 l/m 6,6 km/h (2 Bft) O-NO 64 0 min 0,000 mm 0,0 UV-I 0 W/m 8,5 C 10,6 C 8,0 km/h (2 Bft) 100,00 %
16.04.2016 23:36 10,7 C 86 % 1006,0 hPa 0,0 l/m 6,4 km/h (2 Bft) O-NO 75 0 min 0,000 mm 0,0 UV-I 0 W/m 8,5 C 10,7 C 8,0 km/h (2 Bft) 100,00 %
16.04.2016 23:37 10,7 C 86 % 1006,0 hPa 0,0 l/m 7,2 km/h (2 Bft) O-NO 73 0 min 0,000 mm 0,0 UV-I 0 W/m 8,5 C 10,1 C 8,0 km/h (2 Bft) 93,33 %
16.04.2016 23:38 10,7 C 85 % 1006,0 hPa 0,0 l/m 5,7 km/h (1 Bft) O 82 0 min 0,000 mm 0,0 UV-I 0 W/m 8,3 C 10,7 C 6,4 km/h (2 Bft) 100,00 %
16.04.2016 23:39 10,6 C 85 % 1006,1 hPa 0,0 l/m 5,8 km/h (2 Bft) O 80 0 min 0,000 mm 0,0 UV-I 0 W/m 8,2 C 10,6 C 11,3 km/h (2 Bft) 100,00 %
16.04.2016 23:40 10,5 C 85 % 1006,1 hPa 0,0 l/m 7,3 km/h (2 Bft) O 80 0 min 0,000 mm 0,0 UV-I 0 W/m 8,1 C 9,9 C 11,3 km/h (2 Bft) 100,00 %
16.04.2016 23:41 10,4 C 85 % 1006,1 hPa 0,0 l/m 7,1 km/h (2 Bft) O 79 0 min 0,000 mm 0,0 UV-I 0 W/m 8,0 C 9,9 C 11,3 km/h (2 Bft) 100,00 %
16.04.2016 23:42 10,4 C 86 % 1006,0 hPa 0,0 l/m 9,3 km/h (2 Bft) O 96 0 min 0,000 mm 0,0 UV-I 0 W/m 8,2 C 8,4 C 12,9 km/h (3 Bft) 100,00 %
16.04.2016 23:43 10,5 C 86 % 1006,0 hPa 0,0 l/m 7,3 km/h (2 Bft) O-NO 66 0 min 0,000 mm 0,0 UV-I 0 W/m 8,3 C 9,9 C 11,3 km/h (2 Bft) 100,00 %
16.04.2016 23:44 10,6 C 86 % 1006,0 hPa 0,0 l/m 8,7 km/h (2 Bft) O-NO 78 0 min 0,000 mm 0,0 UV-I 0 W/m 8,4 C 9,0 C 12,9 km/h (3 Bft) 100,00 %
16.04.2016 23:45 10,6 C 86 % 1005,9 hPa 0,0 l/m 7,1 km/h (2 Bft) O-NO 69 0 min 0,000 mm 0,0 UV-I 0 W/m 8,4 C 10,1 C 11,3 km/h (2 Bft) 100,00 %
16.04.2016 23:46 10,7 C 85 % 1005,9 hPa 0,0 l/m 5,6 km/h (1 Bft) O 93 0 min 0,000 mm 0,0 UV-I 0 W/m 8,3 C 10,7 C 11,3 km/h (2 Bft) 100,00 %
16.04.2016 23:47 10,8 C 85 % 1006,0 hPa 0,0 l/m 7,8 km/h (2 Bft) O 81 0 min 0,000 mm 0,0 UV-I 0 W/m 8,4 C 9,8 C 11,3 km/h (2 Bft) 95,83 %
16.04.2016 23:48 10,8 C 85 % 1005,9 hPa 0,0 l/m 8,2 km/h (2 Bft) O 92 0 min 0,000 mm 0,0 UV-I 0 W/m 8,4 C 9,6 C 12,9 km/h (3 Bft) 100,00 %
16.04.2016 23:49 10,8 C 85 % 1005,9 hPa 0,0 l/m 7,7 km/h (2 Bft) O 82 0 min 0,000 mm 0,0 UV-I 0 W/m 8,4 C 9,9 C 9,7 km/h (2 Bft) 100,00 %
16.04.2016 23:50 10,7 C 85 % 1005,9 hPa 0,0 l/m 5,7 km/h (1 Bft) O 99 0 min 0,000 mm 0,0 UV-I 0 W/m 8,3 C 10,7 C 8,0 km/h (2 Bft) 96,55 %
16.04.2016 23:51 10,7 C 85 % 1005,9 hPa 0,0 l/m 8,4 km/h (2 Bft) O 93 0 min 0,000 mm 0,0 UV-I 0 W/m 8,3 C 9,3 C 11,3 km/h (2 Bft) 100,00 %
16.04.2016 23:52 10,7 C 85 % 1005,8 hPa 0,0 l/m 6,0 km/h (2 Bft) O 95 0 min 0,000 mm 0,0 UV-I 0 W/m 8,3 C 10,7 C 9,7 km/h (2 Bft) 100,00 %
16.04.2016 23:53 10,7 C 85 % 1005,8 hPa 0,0 l/m 7,8 km/h (2 Bft) O 82 0 min 0,000 mm 0,0 UV-I 0 W/m 8,3 C 9,7 C 11,3 km/h (2 Bft) 100,00 %
16.04.2016 23:54 10,7 C 85 % 1005,8 hPa 0,0 l/m 5,2 km/h (1 Bft) O 86 0 min 0,000 mm 0,0 UV-I 0 W/m 8,3 C 10,7 C 8,0 km/h (2 Bft) 100,00 %
16.04.2016 23:55 10,7 C 85 % 1005,7 hPa 0,0 l/m 6,9 km/h (2 Bft) O 96 0 min 0,000 mm 0,0 UV-I 0 W/m 8,3 C 10,4 C 11,3 km/h (2 Bft) 100,00 %
16.04.2016 23:56 10,7 C 85 % 1005,7 hPa 0,0 l/m 4,8 km/h (1 Bft) O-NO 76 0 min 0,000 mm 0,0 UV-I 0 W/m 8,3 C 10,7 C 8,0 km/h (2 Bft) 95,83 %
16.04.2016 23:57 10,7 C 85 % 1005,6 hPa 0,0 l/m 9,0 km/h (2 Bft) O-NO 76 0 min 0,000 mm 0,0 UV-I 0 W/m 8,3 C 9,0 C 12,9 km/h (3 Bft) 100,00 %
16.04.2016 23:58 10,7 C 85 % 1005,6 hPa 0,0 l/m 8,3 km/h (2 Bft) O-NO 57 0 min 0,000 mm 0,0 UV-I 0 W/m 8,3 C 9,4 C 12,9 km/h (3 Bft) 100,00 %
16.04.2016 23:59 10,8 C 85 % 1005,6 hPa 0,0 l/m 11,8 km/h (2 Bft) O 86 0 min 0,000 mm 0,0 UV-I 0 W/m 8,4 C 7,5 C 16,1 km/h (3 Bft) 100,00 %
_ Min-Zeit 06:38 18:16 11:48 - 00:00 - - - - - - 06:38 06:38 00:00 04:04
Minimum _ 3,4 C 58 % 1003,6 hPa - 0,0 km/h (0 Bft) - - - - - - 2,7 C 3,4 C 0,0 km/h (0 Bft) 7,14 %
_ Max-Zeit 17:46 07:14 00:24 00:00 14:47 - - 10:02 12:00 11:22 11:22 13:22 17:46 11:53 00:00
Maximum _ 17,7 C 97 % 1008,8 hPa 0,0 l/m 19,8 km/h
W (3 Bft)
- - 2 min 0,381 mm 3,6 UV-I 832 W/m 11,8 C 17,7 C 25,7 km/h
O-NO (4 Bft)
100,00 %
Durchschnitt _ 11,2 C 80 % 1006,5 hPa #0,0 l/m 4,4 km/h (1 Bft) NO - #6:51 h #2,388 mm 1,6 UV-I 294 W/m 7,6 C 10,8 C 6,7 km/h (2 Bft) 98,47 %